Date StartTime U_cm/s V_cm/s W_cm/s Ustd_cm/s Vstd_cm/s Wstd_cm/s Uvar_(cm/s)^2 Vvar_(cm/s)^2 Wvar_(cm/s)^2 KE_(m/s)^2 TurbulentKE_(m/s)^2 HorizWindSpeed_cm/s FrictionSpeec_cm/s DragCoef SpeedOfSound_m/s SonicTemperature_C Pressure_mb 
08/01/2014  00:00:00       64.028       38.525       30.101       41.935       16.602       23.175     1758.519      275.639      537.068        0.453        0.129       74.724       18.064        0.058      345.822       23.629      863.818
08/01/2014  00:01:00       95.770        3.189       25.679       37.672       28.843       26.834     1419.211      831.902      720.065        0.641        0.149       95.823       13.220        0.019      345.861       23.695      863.815
08/01/2014  00:02:00       21.005       38.150       37.111       31.943       23.658       25.402     1020.328      559.680      645.246        0.275        0.111       43.550       26.250        0.363      345.712       23.439      863.804
08/01/2014  00:03:00       29.208       32.584       50.403       30.953       29.190       27.052      958.065      852.072      731.835        0.350        0.127       43.759       24.524        0.314      345.803       23.596      863.800
08/01/2014  00:04:00       34.938       41.310       60.062       34.880       44.712       26.913     1216.641     1999.145      724.315        0.524        0.197       54.103       31.395        0.337      345.802       23.595      863.804
08/01/2014  00:05:00       62.721       64.444       53.641       57.503       33.032       32.453     3306.642     1091.112     1053.177        0.821        0.273       89.927       36.918        0.169      345.840       23.660      863.799
08/01/2014  00:06:00      123.731       77.736       20.041       39.213       38.548       27.049     1537.623     1485.917      731.675        1.275        0.188      146.124       14.560        0.010      345.838       23.656      863.794
08/01/2014  00:07:00      137.704       87.241       27.542       39.840       32.436       26.845     1587.248     1052.116      720.675        1.535        0.168      163.014       20.918        0.016      345.938       23.826      863.788
08/01/2014  00:08:00      110.024       61.781       21.340       46.873       36.670       32.777     2197.066     1344.714     1074.353        1.050        0.231      126.183       23.768        0.035      345.950       23.846      863.781
08/01/2014  00:09:00       88.926       36.920       11.141       39.679       37.760       26.512     1574.402     1425.841      702.894        0.655        0.185       96.285       22.602        0.055      345.857       23.688      863.782
08/01/2014  00:10:00       55.917       30.480       14.401       33.324       19.620       15.240     1110.496      384.955      232.260        0.300        0.086       63.685        8.181        0.017      345.773       23.543      863.784
08/01/2014  00:11:00       83.843       59.041       22.480       22.476       18.118       16.924      505.177      328.256      286.435        0.607        0.056      102.545        5.650        0.003      345.930       23.813      863.784
08/01/2014  00:12:00       99.612       49.861       26.770       18.234       17.940       13.714      332.469      321.838      188.073        0.698        0.042      111.394        9.699        0.008      345.865       23.701      863.776
08/01/2014  00:13:00       77.138       33.826       19.782       34.142       28.804       22.369     1165.661      829.643      500.364        0.499        0.125       84.228       17.217        0.042      345.795       23.580      863.766
08/01/2014  00:14:00       37.560       31.471       37.019       30.464       21.515       22.897      928.073      462.905      524.294        0.284        0.096       49.002       15.408        0.099      345.816       23.618      863.755
08/01/2014  00:15:00      -11.281       -8.558       16.041       27.885       30.651       20.340      777.595      939.476      413.699        0.129        0.107       14.160       25.932        3.354      345.782       23.560      863.753
08/01/2014  00:16:00      -47.479      -17.242       -7.785       14.761       14.110       10.140      217.882      199.103      102.819        0.157        0.026       50.513        7.879        0.024      345.594       23.235      863.770
08/01/2014  00:17:00       -5.273      -10.137       -4.279       18.512       14.056        5.719      342.697      197.571       32.711        0.036        0.029       11.427        4.421        0.150      345.869       23.707      863.761
08/01/2014  00:18:00       31.701       -6.279        0.704       22.003       22.333       16.126      484.120      498.770      260.053        0.114        0.062       32.317       14.963        0.214      345.869       23.709      863.746
08/01/2014  00:19:00        4.967        0.229       18.209       17.467       18.894       15.468      305.110      356.994      239.253        0.063        0.045        4.972        8.554        2.959      345.737       23.481      863.752
08/01/2014  00:20:00       -1.310        9.411       13.090       12.410       12.590        8.083      154.015      158.507       65.340        0.032        0.019        9.501        5.427        0.326      345.604       23.251      863.745
08/01/2014  00:21:00      -35.037        7.733       -6.262       19.229       22.833       12.251      369.737      521.361      150.080        0.118        0.052       35.880       11.085        0.095      345.644       23.320      863.751
08/01/2014  00:22:00      -77.845       16.793      -15.599       15.186       20.035        7.493      230.626      401.393       56.149        0.364        0.034       79.636        4.816        0.004      345.452       22.991      863.751
08/01/2014  00:23:00      -46.219      -14.983       -5.146       15.543       10.172        7.955      241.591      103.472       63.290        0.140        0.020       48.587        6.283        0.017      345.518       23.106      863.754
08/01/2014  00:24:00      -29.427      -32.066       -2.900        9.950       10.286        3.954       99.000      105.797       15.631        0.106        0.011       43.523        3.980        0.008      345.747       23.500      863.741
08/01/2014  00:25:00      -67.942       -0.367       -7.923       11.550       17.275        7.124      133.406      298.426       50.748        0.258        0.024       67.943        2.280        0.001      345.498       23.071      863.725
08/01/2014  00:26:00     -107.376       33.051      -12.099       30.783       18.754       13.536      947.609      351.713      183.211        0.713        0.074      112.347       16.496        0.022      345.421       22.939      863.719
08/01/2014  00:27:00      -43.383       59.974       -4.497       18.613       23.572       16.966      346.453      555.642      287.832        0.334        0.059       74.020       11.217        0.023      345.538       23.139      863.716
08/01/2014  00:28:00      -67.420       11.065      -10.382       25.899       31.959       11.316      670.758     1021.372      128.050        0.330        0.091       68.322       15.902        0.054      345.543       23.149      863.744
08/01/2014  00:29:00     -121.686       15.350      -10.165       43.328       35.764       20.788     1877.359     1279.040      432.121        0.937        0.179      122.650       21.024        0.029      345.345       22.808      863.775
08/01/2014  00:30:00      -57.160       23.868       -5.055       30.468       20.689       18.016      928.272      428.034      324.571        0.277        0.084       61.943        9.728        0.025      345.424       22.944      863.776
08/01/2014  00:31:00      -42.123       37.164       -3.382       28.953       25.727       18.761      838.280      661.899      351.962        0.251        0.093       56.173       18.085        0.104      345.471       23.025      863.784
08/01/2014  00:32:00      -13.334       69.359        3.422       40.921       28.335       20.001     1674.540      802.863      400.039        0.394        0.144       70.629       16.696        0.056      345.558       23.175      863.789
08/01/2014  00:33:00       18.421       21.093        2.462       30.986       23.456       14.436      960.128      550.184      208.398        0.125        0.086       28.004       11.088        0.157      345.625       23.289      863.787
08/01/2014  00:34:00      -53.271       18.932      -12.406       19.289       31.007       12.527      372.080      961.416      156.932        0.242        0.075       56.535       10.655        0.036      345.593       23.234      863.820
08/01/2014  00:35:00      -63.614       -9.814       -8.358       21.687       11.886        8.960      470.317      141.266       80.290        0.245        0.035       64.367        9.306        0.021      345.461       23.009      863.848
08/01/2014  00:36:00       10.287       27.628       -3.470       32.180       31.269       12.803     1035.535      977.780      163.923        0.153        0.109       29.481       14.871        0.254      345.708       23.431      863.854
08/01/2014  00:37:00       57.203       33.753       27.550       36.364       27.576       24.893     1322.346      760.423      619.648        0.394        0.135       66.419       23.780        0.128      345.668       23.364      863.832
08/01/2014  00:38:00       78.489       48.066       18.662       26.357       27.487       20.721      694.683      755.556      429.372        0.535        0.094       92.037       15.836        0.030      345.611       23.265      863.827
08/01/2014  00:39:00       81.808       41.744        9.329       22.093       16.675       14.354      488.120      278.051      206.039        0.475        0.049       91.843        9.792        0.011      345.622       23.285      863.836
08/01/2014  00:40:00       71.720       46.117       15.210       27.576       22.484       17.859      760.411      505.508      318.959        0.454        0.079       85.268       13.784        0.026      345.588       23.225      863.858
08/01/2014  00:41:00       59.232       53.935        4.282       31.496       31.262       26.272      992.004      977.328      690.228        0.455        0.133       80.108       17.681        0.049      345.654       23.339      863.878
08/01/2014  00:42:00       83.304       60.216       20.884       34.030       25.351       22.021     1158.063      642.667      484.936        0.664        0.114      102.789       14.953        0.021      345.664       23.356      863.887
08/01/2014  00:43:00      108.610       67.590       30.870       28.769       21.802       16.704      827.658      475.330      279.039        0.945        0.079      127.924        8.202        0.004      345.722       23.455      863.904
08/01/2014  00:44:00       89.593       67.225       31.576       39.260       23.077       23.833     1541.313      532.549      568.006        0.809        0.132      112.009       10.168        0.008      345.659       23.347      863.926
08/01/2014  00:45:00      148.602       91.291       26.488       26.799       15.667       16.137      718.212      245.453      260.416        1.617        0.061      174.404        4.962        0.001      345.991       23.917      863.935
08/01/2014  00:46:00      127.789       33.810       50.154       57.615       71.228       49.151     3319.539     5073.410     2415.813        1.540        0.540      132.186       45.548        0.119      345.931       23.814      863.929
08/01/2014  00:47:00       27.645       75.721      112.750       70.741       79.214       51.722     5004.345     6274.877     2675.150        1.658        0.698       80.610       51.411        0.407      345.867       23.703      863.898
08/01/2014  00:48:00       72.529       64.288       12.737       73.048       34.954       27.526     5336.023     1221.770      757.687        0.843        0.366       96.919       32.924        0.115      345.521       23.110      863.917
08/01/2014  00:49:00      128.381       64.149        7.659       40.638       27.184       26.559     1651.413      738.943      705.403        1.187        0.155      143.515       18.530        0.017      345.487       23.053      863.939
08/01/2014  00:50:00      139.120      108.557        5.777       55.197       46.268       34.679     3046.750     2140.759     1202.616        1.878        0.320      176.462       15.395        0.008      345.670       23.366      863.941
08/01/2014  00:51:00      120.858       64.544       24.357       46.409       29.520       27.832     2153.776      871.413      774.635        1.158        0.190      137.013       20.238        0.022      345.626       23.291      863.941
08/01/2014  00:52:00       74.349       56.300       42.436       44.310       43.544       33.893     1963.397     1896.046     1148.710        0.775        0.250       93.261       24.918        0.071      345.726       23.464      863.928
08/01/2014  00:53:00       99.045       14.012       10.298       56.460       45.975       39.791     3187.709     2113.696     1583.292        0.850        0.344      100.031       24.794        0.061      345.803       23.595      863.926
08/01/2014  00:54:00       81.131       40.111       31.030       44.319       37.396       31.344     1964.211     1398.482      982.429        0.675        0.217       90.505       17.966        0.039      345.742       23.491      863.936
08/01/2014  00:55:00      113.370       53.416       16.751       26.401       26.460       29.304      696.999      700.108      858.741        0.912        0.113      125.324       13.228        0.011      345.942       23.833      863.947
08/01/2014  00:56:00       50.505       43.605        5.791       63.603       48.129       23.718     4045.282     2316.394      562.525        0.570        0.346       66.724       15.016        0.051      345.983       23.904      863.941
08/01/2014  00:57:00       62.997       29.813        2.569       26.749       34.742       19.633      715.503     1207.034      385.449        0.359        0.115       69.695       19.862        0.081      345.796       23.583      863.958
08/01/2014  00:58:00       -6.052       15.666       23.398       19.458       27.523       17.688      378.608      757.516      312.849        0.114        0.072       16.795       13.623        0.658      345.717       23.446      863.958
08/01/2014  00:59:00      -34.398      -28.891       13.622       23.682       26.777       15.088      560.818      717.018      227.659        0.185        0.075       44.921       13.025        0.084      345.661       23.351      863.977
08/01/2014  01:00:00      -82.313       -1.983      -12.312       15.278        9.523        8.302      233.418       90.694       68.924        0.366        0.020       82.337        6.694        0.007      345.498       23.072      863.992
08/01/2014  01:01:00      -86.706        4.253       -7.389       28.089       24.924       17.270      789.015      621.182      298.251        0.465        0.085       86.811        8.357        0.009      345.407       22.915      863.997
08/01/2014  01:02:00      -75.541       34.154       -9.879       25.397       16.868       11.624      645.005      284.522      135.115        0.402        0.053       82.903        6.852        0.007      345.663       23.353      864.008
08/01/2014  01:03:00      -19.513       20.230       -7.933       16.274       15.819        7.265      264.844      250.236       52.785        0.071        0.028       28.107        9.865        0.123      345.789       23.572      864.025
08/01/2014  01:04:00      -10.530        4.286        0.553       16.538       12.381        8.938      273.512      153.277       79.889        0.032        0.025       11.369        9.451        0.691      345.755       23.514      864.030
08/01/2014  01:05:00      -95.329      -21.382       -8.844       32.617       22.160       14.740     1063.852      491.068      217.269        0.570        0.089       97.697       11.156        0.013      345.543       23.148      864.021
08/01/2014  01:06:00     -132.794      -47.846       -3.903       43.930       30.967       18.735     1929.803      958.937      351.015        1.159        0.162      141.151       22.592        0.026      345.422       22.940      864.015
08/01/2014  01:07:00     -107.475      -55.122        4.434       45.091       28.804       19.283     2033.208      829.653      371.844        0.892        0.162      120.786       20.411        0.029      345.469       23.023      864.017
08/01/2014  01:08:00     -100.897      -22.684       -4.322       53.561       21.224       18.324     2868.739      450.471      335.770        0.718        0.183      103.415       15.383        0.022      345.438       22.968      864.027
08/01/2014  01:09:00      -52.444      -69.148       -3.561       51.617       35.783       21.882     2664.359     1280.397      478.820        0.598        0.221       86.786       15.217        0.031      345.415       22.929      864.034
08/01/2014  01:10:00      -71.907      -58.357       -5.309       56.243       39.632       29.711     3163.276     1570.728      882.742        0.711        0.281       92.607       29.131        0.099      345.342       22.805      864.029
08/01/2014  01:11:00     -139.174      -51.123       -2.871       46.916       38.964       22.791     2201.089     1518.218      519.420        1.311        0.212      148.267       17.585        0.014      345.334       22.789      864.026
08/01/2014  01:12:00      -95.488      -56.810       -2.411       71.191       42.762       29.480     5068.115     1828.567      869.066        1.006        0.388      111.110       31.946        0.083      345.327       22.778      864.028
08/01/2014  01:13:00     -116.579      -77.447       -0.998       65.103       48.914       30.497     4238.380     2392.579      930.043        1.357        0.378      139.959       34.396        0.060      345.311       22.750      864.024
08/01/2014  01:14:00     -133.668      -87.164       -1.708       54.573       45.118       38.033     2978.231     2035.671     1446.480        1.596        0.323      159.577       35.432        0.049      345.291       22.714      864.022
08/01/2014  01:15:00     -111.260      -63.204       -0.556       61.723       55.417       31.316     3809.691     3071.034      980.672        1.212        0.393      127.959       35.247        0.076      345.249       22.643      864.018
08/01/2014  01:16:00     -142.914      -64.482       -0.916       58.361       52.216       31.966     3406.061     2726.550     1021.842        1.587        0.358      156.787       28.719        0.034      345.230       22.611      864.007
08/01/2014  01:17:00     -141.202      -93.703       -6.582       51.728       48.232       29.652     2675.823     2326.330      879.241        1.732        0.294      169.465       32.394        0.037      345.329       22.781      863.986
08/01/2014  01:18:00     -109.939      -82.350       -3.913       53.377       42.237       29.079     2849.068     1783.981      845.581        1.218        0.274      137.361       19.977        0.021      345.408       22.917      863.967
08/01/2014  01:19:00     -125.905      -98.385       -1.963       53.048       40.781       27.450     2814.077     1663.129      753.508        1.538        0.262      159.786       23.574        0.022      345.500       23.075      863.955
08/01/2014  01:20:00     -159.287      -78.959        0.217       43.491       47.128       24.979     1891.488     2221.009      623.934        1.817        0.237      177.783       21.694        0.015      345.451       22.988      863.956
08/01/2014  01:21:00     -101.167      -80.650        7.746       53.015       45.194       28.868     2810.579     2042.501      833.365        1.124        0.284      129.379       29.449        0.052      345.382       22.873      863.957
08/01/2014  01:22:00      -76.343      -70.138        7.398       51.923       39.201       31.150     2696.025     1536.720      970.350        0.800        0.260      103.671       33.211        0.103      345.410       22.920      863.948
08/01/2014  01:23:00     -127.114      -64.970      -12.242       30.172       24.637       19.617      910.342      606.960      384.808        1.122        0.095      142.755       12.708        0.008      345.384       22.875      863.948
08/01/2014  01:24:00      -37.255      -57.021        8.533       56.228       36.257       24.461     3161.582     1314.537      598.357        0.489        0.254       68.113       27.393        0.162      345.334       22.789      863.948
08/01/2014  01:25:00      -79.063      -62.857        4.828       49.033       29.899       28.269     2404.186      893.925      799.153        0.716        0.205      101.005       21.544        0.045      345.327       22.779      863.948
08/01/2014  01:26:00      -76.987      -51.582        3.585       57.533       36.840       28.146     3310.093     1357.222      792.215        0.703        0.273       92.670       30.772        0.110      345.369       22.850      863.944
08/01/2014  01:27:00      -92.447      -86.591       -6.806       45.577       32.560       23.438     2077.290     1060.121      549.340        0.989        0.184      126.667       18.776        0.022      345.374       22.858      863.946
08/01/2014  01:28:00      -81.884      -89.809        1.161       76.760       55.455       33.135     5892.167     3075.235     1097.937        1.242        0.503      121.534       31.560        0.067      345.333       22.786      863.940
08/01/2014  01:29:00     -112.790      -86.442        4.477       69.437       53.177       37.036     4821.501     2827.789     1371.697        1.462        0.451      142.105       30.191        0.045      345.308       22.744      863.942
08/01/2014  01:30:00     -143.564      -91.505       -2.659       79.594       46.568       32.986     6335.158     2168.543     1088.047        1.929        0.480      170.246       31.685        0.035      345.314       22.752      863.943
08/01/2014  01:31:00     -122.972      -86.182        0.742       63.993       48.489       33.713     4095.056     2351.169     1136.567        1.506        0.379      150.165       35.072        0.055      345.273       22.684      863.950
08/01/2014  01:32:00     -148.307      -54.790        0.667       67.695       51.165       28.521     4582.639     2617.848      813.428        1.650        0.401      158.104       27.938        0.031      345.330       22.783      863.940
08/01/2014  01:33:00     -180.720      -74.794       -7.210       38.202       38.889       32.852     1459.359     1512.352     1079.236        2.118        0.203      195.586       21.674        0.012      345.372       22.852      863.937
08/01/2014  01:34:00     -174.924      -29.039      -10.626       71.419       54.744       33.856     5100.654     2996.894     1146.238        2.040        0.462      177.318       41.699        0.055      345.330       22.780      863.946
08/01/2014  01:35:00     -106.538     -101.532        4.488       76.923       83.108       40.063     5917.098     6906.976     1605.027        1.805        0.721      147.170       45.975        0.098      345.389       22.883      863.960
08/01/2014  01:36:00     -110.588      -79.496       10.500       79.444       45.281       36.646     6311.318     2050.398     1342.898        1.418        0.485      136.195       38.181        0.079      345.427       22.948      863.971
08/01/2014  01:37:00     -149.634      -97.967        3.525       55.340       50.246       34.492     3062.476     2524.694     1189.724        1.939        0.339      178.852       27.423        0.024      345.410       22.918      863.987
08/01/2014  01:38:00     -152.272     -122.791       -5.427       64.075       52.029       36.740     4105.581     2706.985     1349.800        2.323        0.408      195.613       36.950        0.036      345.464       23.010      864.003
08/01/2014  01:39:00     -105.499      -85.827        0.329       63.423       32.104       26.712     4022.501     1030.669      713.511        1.213        0.288      136.001       27.659        0.041      345.416       22.929      864.001
08/01/2014  01:40:00     -101.233     -137.867        7.492       67.846       77.946       47.780     4603.045     6075.602     2282.945        2.113        0.648      171.042       44.228        0.067      345.425       22.945      864.020
08/01/2014  01:41:00     -133.586      -89.554        6.916       81.140       58.113       46.392     6583.682     3377.110     2152.203        1.901        0.606      160.826       44.748        0.077      345.398       22.898      864.047
08/01/2014  01:42:00     -139.717      -77.144        7.853      102.182       51.949       43.242    10441.179     2698.694     1869.894        2.027        0.750      159.600       51.845        0.106      345.342       22.802      864.056
08/01/2014  01:43:00     -125.706      -60.861        0.980       72.237       53.054       37.030     5218.184     2814.689     1371.233        1.445        0.470      139.664       35.383        0.064      345.318       22.762      864.060
08/01/2014  01:44:00     -157.645      -83.409        1.742       82.464       59.080       38.285     6800.389     3490.443     1465.750        2.178        0.588      178.351       26.402        0.022      345.360       22.832      864.073
08/01/2014  01:45:00     -103.533      -66.900        8.805       61.831       49.947       32.834     3823.087     2494.658     1078.091        1.133        0.370      123.267       34.683        0.079      345.380       22.869      864.088
08/01/2014  01:46:00     -116.857      -92.249        7.078       79.179       67.207       28.860     6269.280     4516.724      832.900        1.691        0.581      148.880       37.333        0.063      345.425       22.943      864.119
08/01/2014  01:47:00     -132.133     -105.635      -12.612       46.694       53.636       26.684     2180.292     2876.775      712.046        1.727        0.288      169.168       19.100        0.013      345.476       23.032      864.138
08/01/2014  01:48:00      -47.784      -54.786       -5.639       26.121       39.913       16.405      682.329     1593.056      269.131        0.393        0.127       72.697       13.418        0.034      345.410       22.918      864.152
08/01/2014  01:49:00      -16.483      -55.863       -4.127       35.509       26.878       19.513     1260.910      722.430      380.776        0.289        0.118       58.244       16.317        0.078      345.446       22.982      864.168
08/01/2014  01:50:00       -7.314     -102.646       16.818       33.263       32.592       21.573     1106.435     1062.237      465.388        0.675        0.132      102.906       16.303        0.025      345.448       22.984      864.179
08/01/2014  01:51:00      -39.563      -50.796       28.294       52.220       74.387       23.670     2726.947     5533.434      560.292        0.688        0.441       64.386       21.550        0.112      345.390       22.884      864.191
08/01/2014  01:52:00       -6.863       11.757       15.185       24.749       24.925       22.178      612.515      621.237      491.858        0.107        0.086       13.614       14.264        1.098      345.309       22.747      864.211
08/01/2014  01:53:00       18.881       75.663       85.056       43.497       39.640       31.274     1891.961     1571.368      978.063        0.888        0.222       77.983       19.720        0.064      345.250       22.647      864.233
08/01/2014  01:54:00      113.806       93.286       62.480       57.223       35.197       35.913     3274.524     1238.851     1289.727        1.568        0.290      147.153       25.006        0.029      345.189       22.541      864.247
08/01/2014  01:55:00       45.935       67.866       74.919       54.611       39.639       29.874     2982.377     1571.215      892.484        0.889        0.272       81.950       22.541        0.076      345.191       22.545      864.264
08/01/2014  01:56:00       26.818       54.580       74.955       39.283       38.778       24.071     1543.185     1503.749      579.427        0.647        0.181       60.813       24.311        0.160      345.284       22.703      864.282
08/01/2014  01:57:00       51.775      -54.258        5.822       38.659       43.686       24.302     1494.527     1908.438      590.571        0.483        0.200       74.997       26.867        0.128      345.480       23.040      864.289
08/01/2014  01:58:00       12.383       -8.562        8.060       20.044       23.880       16.665      401.756      570.269      277.710        0.077        0.062       15.055        5.970        0.157      345.362       22.840      864.292
08/01/2014  01:59:00        8.895       -2.240        1.788       11.104        9.793        8.962      123.297       95.899       80.324        0.019        0.015        9.173        4.954        0.292      345.383       22.875      864.294
08/01/2014  02:00:00       -0.176        6.827        1.387        5.335        8.137        5.244       28.460       66.215       27.495        0.009        0.006        6.829        3.836        0.316      345.389       22.883      864.291
08/01/2014  02:01:00       -1.704       28.078       -2.037        9.652        6.455        6.963       93.155       41.668       48.486        0.049        0.009       28.129        4.418        0.025      345.412       22.922      864.298
08/01/2014  02:02:00       10.632       15.550        0.946       11.828        8.093        7.602      139.912       65.501       57.793        0.031        0.013       18.837        6.518        0.120      345.496       23.065      864.305
08/01/2014  02:03:00       12.877       10.834       -5.600       17.214        8.159        8.983      296.306       66.572       80.689        0.038        0.022       16.828        5.190        0.095      345.543       23.146      864.311
08/01/2014  02:04:00      -21.996        6.516        1.641       17.054        7.135        7.826      290.837       50.901       61.243        0.047        0.020       22.941        5.793        0.064      345.446       22.984      864.309
08/01/2014  02:05:00      -42.606      -10.045       -3.467        5.627        6.559        3.885       31.666       43.027       15.090        0.101        0.004       43.774        3.152        0.005      345.269       22.679      864.302
08/01/2014  02:06:00      -46.015       -6.109       -5.319        6.905       11.733        5.334       47.674      137.667       28.452        0.120        0.011       46.419        2.350        0.003      345.221       22.594      864.292
08/01/2014  02:07:00      -66.721       -1.834      -10.295       17.181       13.815       10.904      295.173      190.863      118.905        0.258        0.030       66.746        8.211        0.015      345.502       23.076      864.283
08/01/2014  02:08:00      -36.088        0.388      -11.552       17.156       11.046        9.771      294.342      122.018       95.471        0.097        0.026       36.090        6.381        0.031      345.669       23.366      864.277
08/01/2014  02:09:00      -34.983       -6.979       -1.425       13.779       15.260        7.158      189.850      232.872       51.241        0.087        0.024       35.672        5.441        0.023      345.423       22.943      864.275
08/01/2014  02:10:00      -39.864      -10.661       -0.751       14.320        8.926        5.418      205.074       79.674       29.357        0.101        0.016       41.265        3.466        0.007      345.313       22.754      864.276
08/01/2014  02:11:00      -24.199      -16.206       -1.800        8.857        9.068        6.395       78.444       82.231       40.894        0.053        0.010       29.124        3.686        0.016      345.321       22.770      864.273
08/01/2014  02:12:00      -31.926      -14.909       -4.588        7.275        7.267        4.777       52.920       52.804       22.822        0.070        0.006       35.236        2.782        0.006      345.347       22.812      864.274
08/01/2014  02:13:00      -33.463      -11.040       -4.135       26.480       11.523        7.495      701.170      132.772       56.177        0.107        0.045       35.237       12.423        0.124      345.372       22.858      864.279
08/01/2014  02:14:00      -48.159      -28.146       -1.920       13.758       13.476        7.507      189.271      181.601       56.357        0.177        0.021       55.781        3.566        0.004      345.329       22.780      864.276
08/01/2014  02:15:00       -6.680      -20.386        3.999       21.998       12.573       10.398      483.920      158.088      108.128        0.061        0.038       21.453        5.260        0.060      345.369       22.849      864.270
08/01/2014  02:16:00      -70.625      -36.482       -2.019       20.438       17.981       11.298      417.721      323.317      127.654        0.360        0.043       79.491       10.975        0.019      345.423       22.941      864.271
08/01/2014  02:17:00      -51.234      -34.992       -1.655       46.012       23.323       14.727     2117.065      543.950      216.897        0.336        0.144       62.043        8.788        0.020      345.283       22.700      864.281
08/01/2014  02:18:00      -66.918      -14.130       -2.592       22.198       19.236       11.216      492.759      370.021      125.801        0.284        0.049       68.394       10.543        0.024      345.270       22.680      864.286
08/01/2014  02:19:00      -61.036        1.353        0.813       30.252       18.196       14.024      915.191      331.099      196.683        0.259        0.072       61.051       13.649        0.050      345.193       22.547      864.279
08/01/2014  02:20:00      -63.380       10.468       -4.649       28.111       17.182       13.684      790.252      295.232      187.257        0.271        0.064       64.239       13.214        0.042      345.209       22.576      864.280
08/01/2014  02:21:00      -82.248      -17.556       -1.533       22.281       26.472       14.826      496.441      700.772      219.825        0.425        0.071       84.101       13.819        0.027      345.179       22.525      864.277
08/01/2014  02:22:00      -98.051      -16.723      -16.791       21.635       22.062       15.112      468.068      486.751      228.382        0.568        0.059       99.467        7.134        0.005      345.132       22.443      864.273
08/01/2014  02:23:00      -87.417      -40.137       -4.882       20.649       28.292       14.049      426.384      800.426      197.370        0.535        0.071       96.191       11.322        0.014      345.123       22.429      864.284
08/01/2014  02:24:00      -88.976      -35.783       -2.470       36.546       27.277       13.141     1335.577      744.061      172.677        0.573        0.113       95.902       13.054        0.019      345.128       22.438      864.288
08/01/2014  02:25:00     -111.103      -35.744       -1.245       33.074       24.736       17.700     1093.893      611.846      313.297        0.782        0.101      116.711       19.492        0.028      345.106       22.399      864.294
08/01/2014  02:26:00     -115.812      -33.024        2.609       44.915       26.753       19.420     2017.402      715.724      377.119        0.881        0.156      120.428       21.004        0.030      345.168       22.505      864.297
08/01/2014  02:27:00      -75.401      -56.694        5.401       55.455       28.967       20.590     3075.309      839.116      423.963        0.663        0.217       94.337       24.889        0.070      345.257       22.657      864.304
08/01/2014  02:28:00     -104.863      -68.735        0.046       33.729       35.192       21.533     1137.655     1238.454      463.664        0.928        0.142      125.382       18.847        0.023      345.261       22.664      864.298
08/01/2014  02:29:00      -90.482      -52.131        7.046       40.877       39.675       25.922     1670.936     1574.109      671.937        0.743        0.196      104.426       25.158        0.058      345.220       22.593      864.286
08/01/2014  02:30:00     -148.109       -2.438        0.189       50.629       40.281       24.688     2563.346     1622.598      609.520        1.337        0.240      148.129       25.574        0.030      345.123       22.428      864.275
08/01/2014  02:31:00     -123.368      -22.598       -5.469       48.903       56.628       28.866     2391.513     3206.692      833.253        1.109        0.322      125.421       26.188        0.044      345.126       22.435      864.261
08/01/2014  02:32:00     -149.509      -33.472      -10.157       54.492       50.483       27.611     2969.368     2548.484      762.393        1.493        0.314      153.210       25.529        0.028      345.179       22.523      864.247
08/01/2014  02:33:00     -129.826      -18.649       -4.565       41.076       35.647       24.877     1687.231     1270.715      618.856        1.040        0.179      131.158       22.769        0.030      345.122       22.427      864.233
08/01/2014  02:34:00     -106.794       -8.307       -5.143       54.052       33.525       23.204     2921.583     1123.918      538.427        0.804        0.229      107.117       28.574        0.071      345.058       22.317      864.222
08/01/2014  02:35:00     -154.980        8.462      -17.432       56.773       34.791       21.694     3223.145     1210.442      470.622        1.465        0.245      155.210       17.762        0.013      345.048       22.299      864.203
08/01/2014  02:36:00     -136.221      -19.201       -9.465       41.320       48.767       25.512     1707.350     2378.244      650.858        1.187        0.237      137.568       17.956        0.017      345.019       22.252      864.191
08/01/2014  02:37:00     -120.490        2.911      -11.947       41.347       39.028       21.950     1709.564     1523.168      481.800        0.919        0.186      120.525       20.769        0.030      345.019       22.249      864.183
08/01/2014  02:38:00      -94.798      -19.046       -5.233       34.987       38.457       29.559     1224.108     1478.922      873.741        0.648        0.179       96.692       23.304        0.058      345.086       22.366      864.179
08/01/2014  02:39:00     -112.294      -19.110      -10.972       49.177       32.126       25.728     2418.420     1032.067      661.914        0.860        0.206      113.909       24.458        0.046      345.196       22.554      864.177
08/01/2014  02:40:00      -54.650      -30.684        6.603       49.406       49.082       26.322     2440.933     2409.055      692.859        0.476        0.277       62.675       29.243        0.218      345.095       22.382      864.175
08/01/2014  02:41:00     -123.401      -36.680       -8.326       72.962       39.080       20.840     5323.457     1527.229      434.285        1.196        0.364      128.737       26.074        0.041      345.232       22.615      864.158
08/01/2014  02:42:00     -174.306      -17.803       -8.457       51.750       45.166       28.749     2678.087     2039.980      826.505        1.816        0.277      175.213       29.545        0.028      345.212       22.579      864.142
08/01/2014  02:43:00     -158.951      -51.514      -14.954       40.397       47.755       27.301     1631.951     2280.496      745.358        1.640        0.233      167.090       20.789        0.015      345.256       22.656      864.137
08/01/2014  02:44:00     -134.557      -30.244        1.587       53.416       43.231       28.392     2853.267     1868.912      806.117        1.227        0.276      137.914       26.101        0.036      345.250       22.644      864.145
08/01/2014  02:45:00      -81.520      -21.012        0.237       46.447       37.216       22.727     2157.284     1385.061      516.498        0.557        0.203       84.184       19.329        0.053      345.304       22.738      864.150
08/01/2014  02:46:00     -135.790      -39.024       -4.965       50.214       28.553       21.937     2521.404      815.264      481.248        1.190        0.191      141.287       19.013        0.018      345.341       22.802      864.166
08/01/2014  02:47:00      -51.650      -22.713        0.211       25.531       23.064       15.217      651.842      531.940      231.550        0.230        0.071       56.424       14.048        0.062      345.269       22.679      864.168
08/01/2014  02:48:00       -9.879      -31.907        5.841       26.016       19.471       15.004      676.854      379.103      225.122        0.122        0.064       33.401       11.335        0.115      345.293       22.722      864.176
08/01/2014  02:49:00      -25.222      -24.216       10.058       34.823       24.717       16.345     1212.628      610.910      267.155        0.171        0.105       34.965       17.778        0.259      345.244       22.637      864.185
08/01/2014  02:50:00       -2.467      -22.936       15.802       30.053       23.741       20.148      903.185      563.614      405.926        0.133        0.094       23.068       18.363        0.634      345.259       22.661      864.188
08/01/2014  02:51:00      -32.400      -35.735        0.799       41.427       22.889       20.159     1716.208      523.928      406.397        0.249        0.132       48.236       16.488        0.117      345.264       22.670      864.192
08/01/2014  02:52:00      -39.662      -42.525        5.421       28.026       23.231       16.333      785.431      539.686      266.770        0.250        0.080       58.150       12.688        0.048      345.297       22.727      864.195
08/01/2014  02:53:00      -49.746      -38.842       -4.654       27.481       19.838       16.035      755.203      393.530      257.133        0.271        0.070       63.114        8.618        0.019      345.257       22.658      864.176
08/01/2014  02:54:00      -34.006      -43.506        3.883       29.465       20.703       17.468      868.200      428.617      305.118        0.233        0.080       55.219       12.554        0.052      345.216       22.586      864.164
08/01/2014  02:55:00      -29.225      -82.456       -2.419       22.870       36.919       15.092      523.056     1362.986      227.779        0.489        0.106       87.482       15.492        0.031      345.294       22.721      864.158
08/01/2014  02:56:00      -57.322      -86.691       -1.421       46.027       31.806       25.217     2118.508     1011.620      635.875        0.728        0.188      103.928       21.838        0.044      345.197       22.554      864.148
08/01/2014  02:57:00      -61.993     -120.955       -6.414       25.752       41.289       18.796      663.169     1704.805      353.285        1.062        0.136      135.917       21.299        0.025      345.142       22.463      864.123
08/01/2014  02:58:00      -44.803      -52.620        3.016       41.639       37.685       23.998     1733.783     1420.194      575.924        0.426        0.186       69.110       23.238        0.113      345.079       22.356      864.098
08/01/2014  02:59:00      -94.998      -90.104       -2.477       48.735       38.373       23.404     2375.147     1472.502      547.751        1.077        0.220      130.933       21.290        0.026      345.077       22.350      864.076
08/01/2014  03:00:00      -93.336      -75.763        5.000       37.990       34.843       24.266     1443.260     1214.014      588.833        0.886        0.162      120.215       21.503        0.032      345.072       22.343      864.069
08/01/2014  03:01:00     -121.830      -87.646       -5.109       37.227       29.888       21.106     1385.864      893.306      445.479        1.264        0.136      150.081       16.205        0.012      345.102       22.393      864.063
08/01/2014  03:02:00     -128.763      -56.224       -7.718       41.955       42.759       22.645     1760.210     1828.301      512.781        1.195        0.205      140.502       17.937        0.016      344.941       22.115      864.067
08/01/2014  03:03:00      -94.188      -12.394        2.419       41.950       27.971       19.992     1759.771      782.397      399.699        0.599        0.147       95.000       20.975        0.049      344.732       21.759      864.056
08/01/2014  03:04:00     -115.404      -48.688        1.795       45.016       40.611       25.358     2026.483     1649.294      643.032        1.000        0.216      125.254       23.324        0.035      344.793       21.865      864.048
08/01/2014  03:05:00     -103.804      -26.621        5.122       51.879       30.682       24.880     2691.476      941.415      619.012        0.788        0.213      107.163       28.443        0.070      344.834       21.934      864.031
08/01/2014  03:06:00     -130.288      -45.615       -1.608       35.939       39.914       20.883     1291.579     1593.163      436.083        1.119        0.166      138.042       20.805        0.023      344.829       21.926      864.028
08/01/2014  03:07:00     -120.686      -21.189       -1.663       48.548       27.299       23.140     2356.865      745.216      535.445        0.933        0.182      122.531       26.105        0.045      344.805       21.885      864.022
08/01/2014  03:08:00     -113.459      -35.989        5.863       39.177       34.807       21.695     1534.867     1211.551      470.663        0.871        0.161      119.030       18.388        0.024      344.740       21.773      864.009
08/01/2014  03:09:00     -151.319      -38.672       -6.260       54.037       33.091       23.878     2920.019     1095.027      570.151        1.451        0.229      156.182       22.693        0.021      344.766       21.817      864.006
08/01/2014  03:10:00     -119.191      -10.889       -8.177       35.097       34.782       21.483     1231.821     1209.756      461.510        0.865        0.145      119.687       22.246        0.035      344.615       21.561      863.996
08/01/2014  03:11:00     -145.129        1.077      -13.926       21.702       20.360       13.497      470.956      414.513      182.175        1.116        0.053      145.133        9.495        0.004      344.573       21.488      863.992
08/01/2014  03:12:00     -134.115      -20.277      -13.671       28.235       19.908       13.360      797.214      396.328      178.493        0.998        0.069      135.639       12.859        0.009      344.541       21.432      863.991
08/01/2014  03:13:00     -155.327      -34.389       -4.754       32.526       24.857       20.615     1057.973      617.846      424.981        1.372        0.105      159.088       19.363        0.015      344.442       21.263      863.985
08/01/2014  03:14:00     -124.911      -32.941       -2.909       33.008       29.539       20.144     1089.538      872.529      405.794        0.953        0.118      129.182       18.034        0.019      344.428       21.239      863.978
08/01/2014  03:15:00     -113.485      -23.556      -11.140       45.467       31.366       23.996     2067.286      983.796      575.793        0.859        0.181      115.904       27.441        0.056      344.364       21.131      863.970
08/01/2014  03:16:00     -122.670      -24.152       -5.999       44.988       35.954       26.360     2023.949     1292.670      694.825        0.984        0.201      125.025       25.053        0.040      344.353       21.110      863.969
08/01/2014  03:17:00     -139.001       -7.654       -6.781       28.032       43.445       26.157      785.807     1887.456      684.209        1.139        0.168      139.212       18.161        0.017      344.320       21.054      863.974
08/01/2014  03:18:00      -92.747      -17.281       -7.485       30.401       33.982       24.438      924.236     1154.805      597.204        0.582        0.134       94.343       16.841        0.032      344.291       21.006      863.967
08/01/2014  03:19:00     -104.609       -4.588       -4.794       42.406       46.579       28.623     1798.278     2169.562      819.288        0.789        0.239      104.709       27.619        0.070      344.262       20.956      863.966
08/01/2014  03:20:00     -125.016       31.730      -13.967       54.469       70.234       28.793     2966.909     4932.850      829.010        1.278        0.436      128.980       26.727        0.043      344.342       21.092      863.961
08/01/2014  03:21:00     -190.672       -1.335      -19.878       44.809       46.523       33.772     2007.875     2164.427     1140.570        2.103        0.266      190.677       31.623        0.028      344.394       21.180      863.964
08/01/2014  03:22:00     -119.771      -33.176       -8.261       41.954       34.913       22.402     1760.122     1218.887      501.847        0.950        0.174      124.280       17.352        0.019      344.342       21.093      863.979
08/01/2014  03:23:00     -142.849      -51.409      -14.258       53.296       51.629       23.656     2840.494     2665.509      559.627        1.466        0.303      151.818       19.682        0.017      344.326       21.065      863.992
08/01/2014  03:24:00      -75.875      -55.981       -2.531       51.593       41.363       26.053     2661.841     1710.917      678.753        0.697        0.253       94.292       25.923        0.076      344.352       21.112      864.006
08/01/2014  03:25:00     -105.403      -71.054       -0.216       44.167       38.538       29.979     1950.703     1485.140      898.723        1.025        0.217      127.116       18.197        0.020      344.444       21.266      864.025
08/01/2014  03:26:00     -117.973      -67.953       -3.296       35.631       30.963       22.023     1269.584      958.697      484.998        1.063        0.136      136.144       15.961        0.014      344.495       21.356      864.019
08/01/2014  03:27:00     -128.359      -72.223        3.359       60.297       52.484       26.808     3635.669     2754.566      718.654        1.440        0.355      147.283       26.746        0.033      344.453       21.283      864.017
08/01/2014  03:28:00     -165.580     -119.619       -7.883       48.579       36.040       28.751     2359.927     1298.898      826.617        2.314        0.224      204.268       22.440        0.012      344.481       21.328      864.021
08/01/2014  03:29:00     -159.593      -84.183        4.867       45.362       34.833       25.357     2057.746     1213.318      642.953        1.825        0.196      180.434       25.972        0.021      344.474       21.318      864.030
08/01/2014  03:30:00      -93.101      -55.850        0.862       59.545       32.358       23.367     3545.611     1047.022      546.004        0.846        0.257      108.568       24.306        0.050      344.459       21.294      864.030
08/01/2014  03:31:00      -72.713      -36.596       -0.442       41.280       33.714       20.076     1704.036     1136.617      403.030        0.493        0.162       81.403       21.302        0.068      344.446       21.269      864.023
08/01/2014  03:32:00      -88.101      -24.994       -8.976       45.600       32.731       22.321     2079.348     1071.320      498.205        0.606        0.182       91.578       17.142        0.035      344.419       21.224      864.027
08/01/2014  03:33:00      -89.289      -19.565       -0.104       41.803       33.727       21.629     1747.496     1137.517      467.817        0.585        0.168       91.408       20.033        0.048      344.284       20.994      864.037
08/01/2014  03:34:00     -116.581      -26.309       -2.645       38.100       33.644       18.885     1451.595     1131.931      356.647        0.861        0.147      119.512       18.548        0.024      344.373       21.146      864.021
08/01/2014  03:35:00     -115.113      -66.529       -4.195       45.955       27.916       18.519     2111.858      779.322      342.956        1.046        0.162      132.956       14.069        0.011      344.445       21.269      864.010
08/01/2014  03:36:00     -100.357      -62.221        1.799       39.986       41.709       23.716     1598.846     1739.676      562.459        0.892        0.195      118.080       20.676        0.031      344.413       21.214      864.014
08/01/2014  03:37:00     -113.649      -94.951        5.772       50.292       48.490       25.961     2529.276     2351.233      673.970        1.376        0.278      148.094       25.111        0.029      344.430       21.243      864.001
08/01/2014  03:38:00     -130.665      -61.357       -1.188       36.265       24.048       23.321     1315.141      578.320      543.869        1.164        0.122      144.354       21.034        0.021      344.415       21.217      863.999
08/01/2014  03:39:00      -61.670      -47.145        8.028       44.501       36.645       24.387     1980.380     1342.886      594.719        0.500        0.196       77.626       23.277        0.090      344.453       21.283      863.997
08/01/2014  03:40:00      -84.811      -61.004       -5.597       47.762       47.687       22.238     2281.237     2274.028      494.534        0.800        0.252      104.472       22.212        0.045      344.479       21.325      864.011
08/01/2014  03:41:00      -83.584      -62.839        7.191       41.206       26.489       18.894     1697.971      701.683      356.965        0.687        0.138      104.570       18.283        0.031      344.484       21.335      864.016
08/01/2014  03:42:00      -89.473      -79.511       -0.665       54.613       30.618       21.043     2982.621      937.442      442.820        0.934        0.218      119.697       22.890        0.037      344.570       21.485      864.022
08/01/2014  03:43:00      -77.070      -80.330        4.616       38.833       32.187       21.360     1507.989     1036.026      456.232        0.771        0.150      111.323       17.967        0.026      344.536       21.425      864.032
08/01/2014  03:44:00      -99.394     -102.803       -1.765       44.773       34.824       24.035     2004.637     1212.715      577.668        1.212        0.190      142.995       22.721        0.025      344.568       21.478      864.038
08/01/2014  03:45:00      -89.893      -96.959        0.936       43.961       60.534       25.113     1932.579     3664.360      630.681        1.185        0.311      132.219       26.129        0.039      344.546       21.442      864.037
08/01/2014  03:46:00     -103.279      -98.312       -4.046       49.612       58.442       27.819     2461.399     3415.481      773.899        1.350        0.333      142.590       26.361        0.034      344.487       21.340      864.044
08/01/2014  03:47:00      -58.899      -38.145        7.973       37.518       27.335       23.839     1407.617      747.228      568.311        0.385        0.136       70.173       17.182        0.060      344.491       21.347      864.049
08/01/2014  03:48:00      -81.884      -75.885       -2.919       30.078       32.084       21.402      904.684     1029.378      458.033        0.743        0.120      111.640       14.918        0.018      344.510       21.379      864.057
08/01/2014  03:49:00      -56.939      -73.349        1.517       30.609       25.103       16.427      936.940      630.183      269.847        0.523        0.092       92.856       10.003        0.012      344.497       21.356      864.062
08/01/2014  03:50:00      -72.348      -84.313        4.742       41.950       43.233       22.109     1759.818     1869.129      488.796        0.824        0.206      111.099       18.100        0.027      344.395       21.184      864.066
08/01/2014  03:51:00     -120.968     -107.651      -11.860       49.189       37.414       26.524     2419.586     1399.828      703.549        1.544        0.226      161.932       27.421        0.029      344.336       21.081      864.064
08/01/2014  03:52:00      -90.007      -81.502        5.355       50.913       35.834       27.669     2592.091     1284.097      765.566        0.971        0.232      121.424       28.388        0.055      344.320       21.053      864.063
08/01/2014  03:53:00     -108.188      -61.711        6.967       45.581       28.622       20.693     2077.640      819.226      428.187        0.944        0.166      124.551       20.718        0.028      344.322       21.058      864.053
08/01/2014  03:54:00     -106.577      -94.508       -3.109       40.615       31.744       23.479     1649.538     1007.659      551.277        1.175        0.160      142.445       20.419        0.021      344.280       20.986      864.045
08/01/2014  03:55:00     -100.999      -67.979        4.425       46.719       34.746       26.602     2182.689     1207.301      707.653        0.947        0.205      121.745       25.802        0.045      344.282       20.990      864.039
08/01/2014  03:56:00     -100.121      -49.900       -1.271       44.646       26.937       22.456     1993.261      725.588      504.251        0.787        0.161      111.867       26.911        0.058      344.282       20.990      864.041
08/01/2014  03:57:00     -114.852      -12.211       -2.328       29.723       25.297       17.702      883.480      639.943      313.376        0.759        0.092      115.500       11.223        0.009      344.191       20.833      864.045
08/01/2014  03:58:00     -124.345       -2.700       -0.975       40.777       31.993       27.267     1662.784     1023.563      743.473        0.945        0.171      124.374       26.599        0.046      344.071       20.630      864.037
08/01/2014  03:59:00     -116.745      -16.810       -0.217       49.600       37.874       23.846     2460.180     1434.412      568.646        0.919        0.223      117.949       24.950        0.045      344.022       20.546      864.033
08/01/2014  04:00:00     -120.472      -13.950       -9.661       33.563       31.990       18.284     1126.497     1023.385      334.304        0.864        0.124      121.277       18.872        0.024      344.047       20.588      864.038
08/01/2014  04:01:00     -129.390      -18.638      -10.679       24.647       18.828       14.223      607.451      354.509      202.297        0.918        0.058      130.726       13.935        0.011      344.111       20.697      864.054
08/01/2014  04:02:00     -107.459      -42.875      -12.318       25.339       24.510       19.739      642.057      600.732      389.648        0.758        0.082      115.696       14.873        0.017      344.106       20.690      864.059
08/01/2014  04:03:00      -82.000      -32.200       -5.222       25.206       27.814       12.330      635.342      773.633      152.026        0.467        0.078       88.095        7.950        0.008      344.138       20.743      864.063
08/01/2014  04:04:00      -75.481      -46.038       -2.685       25.775       30.975       15.249      664.337      959.429      232.543        0.484        0.093       88.413       13.950        0.025      344.112       20.700      864.063
08/01/2014  04:05:00      -97.939      -39.039       -5.392       18.896       17.392       11.487      357.053      302.482      131.958        0.597        0.040      105.433        8.491        0.006      344.122       20.716      864.073
08/01/2014  04:06:00      -95.984      -34.350       -6.317       20.438       16.317        9.223      417.717      266.229       85.060        0.560        0.038      101.945        6.519        0.004      344.061       20.612      864.089
08/01/2014  04:07:00      -94.329      -29.855       -2.058       11.252       10.544        8.929      126.615      111.185       79.727        0.506        0.016       98.941        6.502        0.004      344.018       20.541      864.099
08/01/2014  04:08:00      -57.420      -29.261        1.452       22.854       15.275       10.583      522.300      233.325      112.010        0.251        0.043       64.446        9.311        0.021      344.018       20.540      864.112
08/01/2014  04:09:00      -76.118      -31.533       -4.809       25.969       23.182       12.389      674.396      537.419      153.496        0.409        0.068       82.391        8.548        0.011      344.127       20.723      864.121
08/01/2014  04:10:00      -78.585      -22.170       -2.927       21.778       20.905       15.910      474.262      437.001      253.127        0.392        0.058       81.653       14.144        0.030      344.128       20.728      864.120
08/01/2014  04:11:00      -73.189      -18.736       -3.949       23.478       19.031       12.574      551.195      362.177      158.110        0.340        0.054       75.549        9.947        0.017      344.077       20.642      864.111
08/01/2014  04:12:00      -84.984      -15.539       -8.073       28.864       14.340       13.389      833.152      205.627      179.267        0.437        0.061       86.393       14.683        0.029      344.015       20.534      864.101
08/01/2014  04:13:00      -87.770       -8.685       -7.724       21.823       25.993       14.976      476.249      675.622      224.282        0.461        0.069       88.199       11.006        0.016      343.970       20.458      864.097
08/01/2014  04:14:00     -140.125       25.422       -9.742       34.350       21.105       15.176     1179.923      445.441      230.298        1.112        0.093      142.413       13.718        0.009      344.050       20.594      864.082
08/01/2014  04:15:00     -118.569       22.091      -15.075       47.289       36.773       20.107     2236.291     1352.288      404.296        0.938        0.200      120.610       13.503        0.013      344.023       20.548      864.070
08/01/2014  04:16:00     -115.897       33.083      -10.388       41.384       32.294       29.141     1712.600     1042.891      849.225        0.912        0.180      120.526       19.601        0.026      343.974       20.464      864.062
08/01/2014  04:17:00     -130.810       31.113      -10.193       43.062       35.656       27.692     1854.328     1271.354      766.843        1.104        0.195      134.459       23.222        0.030      343.962       20.443      864.058
08/01/2014  04:18:00     -102.122        2.376      -11.423       40.134       25.543       21.573     1610.735      652.466      465.383        0.665        0.136      102.149       19.660        0.037      343.925       20.381      864.054
08/01/2014  04:19:00      -74.551       11.238       -9.515       34.554       24.167       13.442     1193.990      584.067      180.681        0.387        0.098       75.393       13.806        0.034      343.896       20.332      864.055
08/01/2014  04:20:00      -62.977       -8.571      -10.900       21.042       17.092       12.785      442.771      292.135      163.467        0.253        0.045       63.558        6.847        0.012      343.903       20.343      864.049
08/01/2014  04:21:00      -22.157      -28.912       -9.635       22.891       19.249       16.387      524.010      370.520      268.549        0.129        0.058       36.426        9.528        0.068      343.963       20.445      864.051
08/01/2014  04:22:00        2.357      -24.268       -7.291       17.472       15.671       10.438      305.259      245.570      108.960        0.065        0.033       24.382        8.155        0.112      344.009       20.525      864.048
08/01/2014  04:23:00      -36.363      -21.315        0.588       21.077       15.013       13.534      444.231      225.396      183.167        0.131        0.043       42.150        5.258        0.016      343.951       20.423      864.053
08/01/2014  04:24:00      -38.750      -12.075       -6.594       17.858       13.870       10.454      318.918      192.390      109.291        0.116        0.031       40.588        6.514        0.026      343.975       20.465      864.059
08/01/2014  04:25:00       -7.853      -23.783       -3.392       11.991       15.748        9.630      143.784      247.998       92.742        0.056        0.024       25.046        8.468        0.114      344.007       20.522      864.072
08/01/2014  04:26:00      -16.229      -34.804       -7.310       18.503       20.991       14.507      342.351      440.640      210.451        0.126        0.050       38.402       12.105        0.099      344.016       20.538      864.078
08/01/2014  04:27:00      -14.205      -23.255       -2.476       13.502       13.349       10.832      182.310      178.198      117.325        0.061        0.024       27.250        3.227        0.014      344.093       20.665      864.087
08/01/2014  04:28:00       -8.711      -20.130       -2.520       11.927       11.504       12.825      142.252      132.335      164.484        0.046        0.022       21.934        7.728        0.124      344.035       20.570      864.095
08/01/2014  04:29:00      -20.250      -30.008        0.179       20.546       17.016       13.117      422.152      289.551      172.064        0.110        0.044       36.202        5.424        0.022      344.040       20.580      864.101
08/01/2014  04:30:00       -3.188      -29.596       10.685       29.487       22.448       19.195      869.503      503.927      368.449        0.137        0.087       29.767       17.604        0.350      344.046       20.587      864.109
08/01/2014  04:31:00      -26.075      -21.070        6.414       33.781       25.331       19.693     1141.173      641.637      387.795        0.167        0.109       33.524       11.986        0.128      343.905       20.346      864.116
08/01/2014  04:32:00      -10.169      -24.593        4.212       16.205       11.894       10.411      262.607      141.470      108.382        0.062        0.026       26.613        9.008        0.115      343.981       20.475      864.116
08/01/2014  04:33:00      -11.338      -32.845       -0.592       15.446       12.801        9.935      238.575      163.869       98.699        0.085        0.025       34.747        4.930        0.020      344.145       20.758      864.111
08/01/2014  04:34:00       -1.848      -22.497       -1.042       10.916       11.927       12.436      119.151      142.245      154.649        0.046        0.021       22.573        7.929        0.123      344.145       20.755      864.102
08/01/2014  04:35:00      -14.943      -17.048        1.144        6.919        6.749        6.004       47.869       45.545       36.042        0.032        0.006       22.670        3.374        0.022      344.205       20.856      864.095
08/01/2014  04:36:00      -18.119      -20.821        2.402       10.902       12.989        8.497      118.843      168.718       72.197        0.056        0.018       27.601        3.386        0.015      344.247       20.931      864.083
08/01/2014  04:37:00      -38.514      -14.622       -3.393       12.815       12.845        7.549      164.234      164.988       56.993        0.105        0.019       41.196        7.790        0.036      344.114       20.702      864.083
08/01/2014  04:38:00      -78.267      -25.935       -6.720       18.794       17.893        9.404      353.217      320.167       88.427        0.380        0.038       82.452        9.788        0.014      343.960       20.440      864.071
08/01/2014  04:39:00      -72.352      -42.051        4.690       28.101       17.602       15.941      789.659      309.830      254.107        0.419        0.068       83.685       14.628        0.031      343.882       20.308      864.065
08/01/2014  04:40:00     -125.203      -48.326       -3.726       22.097       17.994       11.650      488.291      323.793      135.722        0.949        0.047      134.206        9.094        0.005      343.933       20.393      864.054
08/01/2014  04:41:00     -120.698      -26.102       -2.094       28.627       27.136       20.407      819.481      736.357      416.442        0.861        0.099      123.488       17.831        0.021      343.716       20.023      864.042
08/01/2014  04:42:00      -78.150      -19.907        2.749       45.993       31.704       24.224     2115.327     1005.155      586.817        0.511        0.185       80.645       22.449        0.077      343.679       19.959      864.035
08/01/2014  04:43:00      -81.221       -8.777        4.163       54.313       37.324       24.471     2949.929     1393.061      598.829        0.582        0.247       81.693       28.493        0.122      343.765       20.107      864.031
08/01/2014  04:44:00      -67.512      -25.621        5.637       46.815       34.599       21.328     2191.656     1197.058      454.870        0.454        0.192       72.210       20.822        0.083      343.832       20.222      864.036
08/01/2014  04:45:00      -79.550      -11.717        6.173       36.686       31.127       19.922     1345.898      968.899      396.873        0.461        0.136       80.408       18.527        0.053      343.765       20.107      864.035
08/01/2014  04:46:00      -71.667        5.820        0.980       42.940       26.297       19.854     1843.851      691.543      394.177        0.405        0.146       71.903       23.110        0.103      343.652       19.914      864.026
08/01/2014  04:47:00      -52.097      -16.224        4.448       34.942       24.862       15.610     1220.914      618.114      243.661        0.254        0.104       54.565       17.074        0.098      343.667       19.940      864.012
08/01/2014  04:48:00      -71.251       -5.018       -2.468       24.152       19.624       15.198      583.327      385.088      230.977        0.315        0.060       71.428       12.200        0.029      343.670       19.945      863.991
08/01/2014  04:49:00      -82.500       -7.181       -3.570       26.203       21.563       14.035      686.616      464.960      196.988        0.411        0.067       82.812       12.788        0.024      343.685       19.970      863.965
08/01/2014  04:50:00      -73.195      -18.239       -2.254       32.363       21.563       13.991     1047.385      464.974      195.739        0.370        0.085       75.434       11.001        0.021      343.638       19.891      863.948
08/01/2014  04:51:00      -80.294       14.679       -4.896       45.607       27.307       15.545     2079.962      745.655      241.649        0.488        0.153       81.624       18.640        0.052      343.520       19.689      863.929
08/01/2014  04:52:00      -71.458       17.639       -5.722       41.817       24.476       14.465     1748.627      599.089      209.223        0.400        0.128       73.603       11.320        0.024      343.490       19.641      863.918
08/01/2014  04:53:00      -77.298       16.902        0.228       28.754       32.648       21.906      826.788     1065.904      479.866        0.432        0.119       79.124       14.854        0.035      343.524       19.696      863.918
08/01/2014  04:54:00      -76.811      -39.771       -2.370       55.920       36.906       26.945     3127.067     1362.034      726.012        0.635        0.261       86.497       34.509        0.159      343.496       19.646      863.914
08/01/2014  04:55:00      -12.623      -30.239       -4.072       33.671       19.235       19.191     1133.718      369.998      368.302        0.148        0.094       32.768        7.704        0.055      343.483       19.627      863.915
08/01/2014  04:56:00      -61.601      -17.798        2.083       25.299       16.368       16.211      640.058      267.914      262.789        0.264        0.059       64.120       13.773        0.046      343.374       19.442      863.923
08/01/2014  04:57:00      -42.512      -27.969      -10.525       26.438       12.487       14.603      698.966      155.913      213.248        0.188        0.053       50.888        6.275        0.015      343.393       19.474      863.929
08/01/2014  04:58:00      -58.708       -4.258       -4.658       17.894        8.073        9.443      320.190       65.171       89.177        0.198        0.024       58.862       11.343        0.037      343.377       19.447      863.935
08/01/2014  04:59:00      -34.304      -24.763        0.564       16.808       18.435        8.930      282.508      339.841       79.749        0.125        0.035       42.308        7.915        0.035      343.516       19.683      863.945
08/01/2014  05:00:00      -30.971      -25.593       -4.458       21.381        8.088        7.549      457.137       65.421       56.994        0.111        0.029       40.178        8.347        0.043      343.733       20.050      863.954
08/01/2014  05:01:00      -38.980      -27.675        2.985       29.518       17.694       14.739      871.291      313.086      217.251        0.185        0.070       47.805        7.313        0.023      343.700       19.996      863.960
08/01/2014  05:02:00      -57.978      -81.172       -1.269       26.857       31.550       17.943      721.285      995.371      321.951        0.599        0.102       99.752       17.747        0.032      343.808       20.181      863.970
08/01/2014  05:03:00      -82.924      -90.822       -0.136       38.195       35.926       20.263     1458.865     1290.668      410.605        0.914        0.158      122.984       19.819        0.026      343.775       20.126      863.975
08/01/2014  05:04:00      -82.879      -73.084       -3.002       46.699       45.494       27.918     2180.822     2069.711      779.428        0.862        0.251      110.500       23.648        0.046      343.706       20.006      863.984
08/01/2014  05:05:00      -91.036      -94.392        8.198       47.654       44.104       27.232     2270.936     1945.164      741.580        1.111        0.248      131.139       23.300        0.032      343.700       19.996      864.005
08/01/2014  05:06:00     -108.551      -93.471       -5.461       33.600       41.385       19.987     1128.931     1712.740      399.461        1.189        0.162      143.249       17.052        0.014      343.685       19.972      864.020
08/01/2014  05:07:00      -57.874      -83.435        1.941       38.916       32.643       20.742     1514.467     1065.559      430.237        0.666        0.151      101.542       13.410        0.017      343.671       19.947      864.024
08/01/2014  05:08:00      -70.139      -72.934        0.198       51.622       44.351       24.140     2664.846     1967.046      582.726        0.773        0.261      101.187       23.922        0.056      343.730       20.048      864.023
08/01/2014  05:09:00      -69.479      -89.727       -5.756       48.178       49.612       31.067     2321.157     2461.351      965.172        0.933        0.287      113.482       28.187        0.062      343.756       20.091      864.032
08/01/2014  05:10:00     -111.235      -76.749       -3.654       47.872       48.397       27.577     2291.684     2342.279      760.484        1.183        0.270      135.143       28.217        0.044      343.748       20.078      864.033
08/01/2014  05:11:00     -118.321      -78.730       -1.368       55.503       39.909       27.134     3080.588     1592.738      736.253        1.280        0.270      142.121       28.796        0.041      343.726       20.040      864.022
08/01/2014  05:12:00     -141.119      -85.897      -12.615       45.892       49.096       28.952     2106.086     2410.396      838.210        1.640        0.268      165.206       24.991        0.023      343.736       20.056      864.005
08/01/2014  05:13:00      -95.917      -63.392       -4.198       38.886       20.762       18.709     1512.130      431.064      350.012        0.776        0.115      114.972       17.100        0.022      343.739       20.059      863.993
08/01/2014  05:14:00      -65.266      -31.252       13.517       60.374       43.186       28.509     3645.031     1865.010      812.766        0.587        0.316       72.362       24.531        0.115      343.692       19.982      863.983
08/01/2014  05:15:00     -136.401      -55.281        2.097       49.687       46.220       29.875     2468.828     2136.256      892.505        1.358        0.275      147.177       26.057        0.031      343.633       19.881      863.974
08/01/2014  05:16:00     -151.065      -44.544       -8.572       51.165       44.755       26.397     2617.870     2003.005      696.792        1.510        0.266      157.496       22.614        0.021      343.640       19.893      863.957
08/01/2014  05:17:00     -110.807      -75.831       -5.161       31.139       48.546       24.325      969.659     2356.742      591.685        1.099        0.196      134.270       20.494        0.023      343.575       19.783      863.955
08/01/2014  05:18:00     -101.061      -28.485       -8.585       38.931       30.002       20.166     1515.637      900.104      406.652        0.696        0.141      104.999       11.927        0.013      343.492       19.642      863.961
08/01/2014  05:19:00      -72.777      -33.170        0.365       48.622       23.757       17.099     2364.139      564.419      292.364        0.481        0.161       79.980       17.906        0.050      343.500       19.655      863.982
08/01/2014  05:20:00      -83.676      -43.285       -3.098       22.853       21.736       15.383      522.278      472.438      236.636        0.506        0.062       94.208       11.412        0.015      343.473       19.612      864.002
08/01/2014  05:21:00      -35.420      -18.886       -2.332       17.570       10.889       12.106      308.722      118.563      146.566        0.110        0.029       40.140       10.866        0.073      343.480       19.622      864.009
08/01/2014  05:22:00      -19.049        0.293        6.200       20.538       11.590        9.799      421.821      134.330       96.024        0.053        0.033       19.051        6.422        0.114      343.435       19.542      864.034
08/01/2014  05:23:00      -59.044        6.833       -4.308       22.394       13.867       11.962      501.499      192.286      143.079        0.219        0.042       59.438        8.001        0.018      343.381       19.452      864.059
08/01/2014  05:24:00      -85.701       -4.398       -8.740       25.115       15.456       12.866      630.786      238.883      165.538        0.424        0.052       85.813       12.527        0.021      343.346       19.392      864.065
08/01/2014  05:25:00      -88.039      -20.290       -5.700       25.773       20.205       16.431      664.234      408.253      269.986        0.477        0.067       90.346       16.115        0.032      343.241       19.214      864.061
08/01/2014  05:26:00     -106.004      -17.931       -4.434       32.259       24.775       14.589     1040.624      613.791      212.830        0.672        0.093      107.509       15.406        0.021      343.168       19.090      864.059
08/01/2014  05:27:00      -97.871       -3.815       -4.589       34.316       27.362       19.595     1177.615      748.702      383.946        0.596        0.116       97.946       14.325        0.021      343.165       19.084      864.068
08/01/2014  05:28:00      -93.545       -0.800       -0.183       34.736       35.463       19.643     1206.567     1257.592      385.855        0.580        0.143       93.549       19.358        0.043      343.106       18.984      864.076
08/01/2014  05:29:00      -69.946      -35.103        0.236       30.335       21.728       16.405      920.206      472.099      269.128        0.389        0.083       78.260       14.007        0.032      343.172       19.096      864.075
08/01/2014  05:30:00      -56.493      -16.675       -1.400       30.958       27.439       16.234      958.376      752.871      263.549        0.272        0.099       58.902       17.989        0.093      343.191       19.128      864.071
08/01/2014  05:31:00      -63.432        0.797        1.931       37.546       24.061       19.145     1409.683      578.909      366.540        0.319        0.118       63.437       20.541        0.105      343.167       19.087      864.058
08/01/2014  05:32:00      -96.469        4.132       -1.853       30.467       28.202       21.029      928.218      795.368      442.224        0.575        0.108       96.558       19.384        0.040      343.141       19.043      864.054
08/01/2014  05:33:00     -105.640        6.478      -15.812       27.883       31.217       16.693      777.488      974.511      278.647        0.674        0.102      105.839       13.477        0.016      343.193       19.133      864.048
08/01/2014  05:34:00      -60.004       -1.758       -3.461       32.822       31.499       20.168     1077.300      992.202      406.761        0.305        0.124       60.030       18.938        0.100      343.145       19.051      864.048
08/01/2014  05:35:00      -51.427      -14.783        1.897       32.375       20.835       23.543     1048.164      434.089      554.290        0.245        0.102       53.510       22.919        0.183      343.143       19.048      864.050
08/01/2014  05:36:00      -37.567      -21.242        9.233       31.446       24.082       17.078      988.836      579.931      291.673        0.190        0.093       43.156       15.078        0.122      343.118       19.004      864.057
08/01/2014  05:37:00      -24.511      -22.419        4.994       32.517       18.950       12.995     1057.348      359.108      168.860        0.136        0.079       33.218       13.026        0.154      343.129       19.023      864.067
08/01/2014  05:38:00      -37.114      -23.061        1.596       22.050       23.716       10.406      486.193      562.450      108.285        0.153        0.058       43.695        7.251        0.028      343.201       19.146      864.072
08/01/2014  05:39:00      -42.144       -5.881        1.972       11.353       11.771        8.974      128.884      138.550       80.531        0.108        0.017       42.553        6.966        0.027      343.313       19.335      864.071
08/01/2014  05:40:00      -32.379      -24.777        8.114       24.477       17.362       12.602      599.119      301.428      158.817        0.139        0.053       40.771       12.542        0.095      343.292       19.301      864.065
08/01/2014  05:41:00      -50.272      -31.530        1.619       26.884       19.823       13.846      722.731      392.966      191.722        0.242        0.065       59.342       13.445        0.051      343.154       19.066      864.058
08/01/2014  05:42:00      -78.397      -49.246       -5.036       31.618       25.772       16.891      999.673      664.207      285.305        0.527        0.097       92.581        9.129        0.010      343.148       19.055      864.048
08/01/2014  05:43:00      -95.768      -72.991        3.023       45.540       29.105       22.125     2073.891      847.085      489.503        0.896        0.171      120.412       20.060        0.028      343.117       19.003      864.037
08/01/2014  05:44:00     -120.747      -19.345        0.208       35.617       31.539       21.874     1268.603      994.684      478.462        0.885        0.137      122.287       20.341        0.028      342.916       18.661      864.040
08/01/2014  05:45:00     -125.635       -8.094       -7.237       32.771       29.983       21.938     1073.940      898.966      481.291        0.918        0.123      125.895       14.692        0.014      342.801       18.464      864.030
08/01/2014  05:46:00      -52.262       -0.895        3.699       38.045       32.271       24.496     1447.421     1041.399      600.033        0.292        0.154       52.270       21.771        0.173      342.789       18.446      864.011
08/01/2014  05:47:00      -99.783      -10.187       -0.734       46.388       31.280       21.734     2151.835      978.445      472.362        0.683        0.180      100.302       15.507        0.024      342.973       18.758      864.002
08/01/2014  05:48:00     -125.635      -21.720       -7.270       40.183       41.958       22.456     1614.707     1760.438      504.283        1.009        0.194      127.498       15.930        0.016      342.952       18.721      864.004
08/01/2014  05:49:00     -121.059      -41.154        0.322       28.230       29.529       17.527      796.950      871.952      307.197        0.916        0.099      127.863       13.472        0.011      342.909       18.649      864.011
08/01/2014  05:50:00     -121.777      -23.600       -7.869       24.849       14.560        9.806      617.457      211.994       96.162        0.819        0.046      124.043        5.070        0.002      342.883       18.604      864.016
08/01/2014  05:51:00      -57.287      -18.028        1.680       30.429       21.720       15.701      925.940      471.774      246.531        0.263        0.082       60.057       18.593        0.096      342.819       18.495      864.032
08/01/2014  05:52:00      -82.246      -43.366        2.055       21.859       15.724       12.452      477.820      247.239      155.045        0.476        0.044       92.979       12.543        0.018      342.887       18.612      864.037
08/01/2014  05:53:00      -62.230      -32.509        2.954       28.621       19.415       14.498      819.134      376.942      210.184        0.317        0.070       70.210       14.237        0.041      342.940       18.702      864.036
08/01/2014  05:54:00      -83.566      -45.329        1.185       37.913       22.873       13.238     1437.394      523.156      175.254        0.559        0.107       95.068       17.194        0.033      342.963       18.743      864.039
08/01/2014  05:55:00     -118.825      -67.100        0.310       28.479       21.096       17.213      811.058      445.049      296.272        1.009        0.078      136.461       15.910        0.014      342.989       18.785      864.056
08/01/2014  05:56:00     -130.369      -51.584       -8.467       27.253       25.673       14.774      742.737      659.103      218.270        1.067        0.081      140.204       10.881        0.006      343.038       18.868      864.062
08/01/2014  05:57:00     -120.730      -17.454       -7.277       27.236       21.313       16.894      741.818      454.255      285.399        0.821        0.074      121.985       15.657        0.016      342.951       18.721      864.053
08/01/2014  05:58:00     -136.472      -49.025       -2.359       32.280       30.412       16.802     1042.008      924.875      282.301        1.164        0.112      145.011       14.188        0.010      342.945       18.710      864.062
08/01/2014  05:59:00     -141.729      -64.229        1.129       40.861       27.842       22.344     1669.641      775.186      499.235        1.358        0.147      155.603       18.004        0.013      342.956       18.727      864.075
08/01/2014  06:00:00     -133.909      -41.699       -1.085       61.977       34.684       25.588     3841.189     1202.960      654.759        1.268        0.285      140.251       32.457        0.054      342.948       18.715      864.097
08/01/2014  06:01:00     -144.307      -46.612       -0.005       45.257       49.100       25.218     2048.235     2410.785      635.924        1.405        0.255      151.648       25.414        0.028      342.971       18.753      864.119
08/01/2014  06:02:00      -96.889      -42.197        5.534       46.610       37.605       21.466     2172.507     1414.111      460.804        0.762        0.202      105.679       17.872        0.029      342.949       18.718      864.138
08/01/2014  06:03:00      -94.531      -71.352        6.632       62.669       43.818       24.122     3927.342     1920.025      581.852        1.025        0.321      118.436       28.587        0.058      343.110       18.991      864.153
08/01/2014  06:04:00      -80.964      -78.568       -5.437       35.958       39.626       20.682     1292.988     1570.210      427.763        0.802        0.165      112.819       18.251        0.026      343.152       19.062      864.159
08/01/2014  06:05:00      -99.047      -49.240       -5.845       40.845       24.884       23.349     1668.302      619.237      545.157        0.755        0.142      110.611       23.207        0.044      343.162       19.079      864.162
08/01/2014  06:06:00      -89.959      -50.123       -3.336       25.592       27.668       17.770      654.955      765.501      315.763        0.618        0.087      102.980       13.004        0.016      343.226       19.188      864.160
08/01/2014  06:07:00     -105.616      -36.549       -8.953       19.035       20.861       13.595      362.335      435.177      184.824        0.678        0.049      111.761       11.090        0.010      343.223       19.184      864.150
08/01/2014  06:08:00      -46.534      -12.595        2.874       29.278       19.367       15.597      857.213      375.082      243.267        0.190        0.074       48.209       17.332        0.129      343.164       19.083      864.131
08/01/2014  06:09:00      -87.925        2.013       -7.434       27.503       25.810       16.601      756.392      666.152      275.578        0.474        0.085       87.948       11.791        0.018      343.103       18.979      864.113
08/01/2014  06:10:00     -100.873       18.765       -5.173       34.363       28.226       17.479     1180.826      796.705      305.508        0.642        0.114      102.603       16.847        0.027      343.049       18.885      864.095
08/01/2014  06:11:00     -138.872       25.238       -9.245       26.444       26.302       15.048      699.292      691.818      226.446        1.081        0.081      141.146        8.738        0.004      343.050       18.890      864.081
08/01/2014  06:12:00     -150.537      -22.672      -14.190       29.379       27.811       17.064      863.139      773.454      291.166        1.265        0.096      152.235        9.794        0.004      343.141       19.043      864.053
08/01/2014  06:13:00     -154.486      -24.405      -12.564       27.560       48.558       23.672      759.569     2357.864      560.368        1.415        0.184      156.402       23.803        0.023      343.029       18.853      864.023
08/01/2014  06:14:00     -181.400       21.765      -10.744       37.068       35.372       19.286     1374.050     1251.168      371.965        1.825        0.150      182.701       15.981        0.008      342.907       18.643      864.012
08/01/2014  06:15:00     -174.708       46.955      -12.530       38.466       22.951       18.343     1479.612      526.768      336.461        1.761        0.117      180.908       16.254        0.008      343.084       18.945      863.999
08/01/2014  06:16:00     -125.351       58.316      -11.323       25.202       30.987       18.635      635.135      960.200      347.275        1.059        0.097      138.252        9.282        0.005      343.026       18.849      863.991
08/01/2014  06:17:00     -121.168       58.775      -18.433       31.138       30.611       18.616      969.548      937.045      346.545        1.036        0.113      134.671       15.662        0.014      343.174       19.100      863.975
08/01/2014  06:18:00     -114.299       97.872      -28.861       25.655       50.302       23.645      658.187     2530.334      559.072        1.361        0.187      150.476       19.116        0.016      343.279       19.278      863.967
08/01/2014  06:19:00     -107.585       50.829      -26.856       29.850       31.141       27.164      890.996      969.791      737.894        0.874        0.130      118.988       23.546        0.039      343.425       19.527      863.965
08/01/2014  06:20:00      -86.063       23.990       -7.444       18.090       24.152       17.794      327.265      583.319      316.615        0.463        0.061       89.344       13.069        0.021      343.272       19.267      863.960
08/01/2014  06:21:00     -110.159       53.695      -18.930       28.352       41.834       20.800      803.814     1750.113      432.651        0.918        0.149      122.548       19.528        0.025      343.520       19.689      863.968
08/01/2014  06:22:00      -86.968       -9.608       -1.198       30.285       34.085       19.501      917.176     1161.784      380.296        0.506        0.123       87.497        8.118        0.009      343.408       19.498      863.976
08/01/2014  06:23:00      -82.667      -39.145       -5.027       32.085       23.807       13.443     1029.452      566.759      180.705        0.508        0.089       91.466       10.707        0.014      343.278       19.277      863.990
08/01/2014  06:24:00     -141.836      -45.618       -6.803       25.899       22.371       15.228      670.746      500.479      231.903        1.182        0.070      148.992       11.869        0.006      343.108       18.986      864.008
08/01/2014  06:25:00     -105.291      -23.983      -11.190       21.245       18.226       12.470      451.346      332.187      155.508        0.636        0.047      107.988        9.814        0.008      343.045       18.880      864.031
08/01/2014  06:26:00     -106.653      -12.652       -9.008       17.252       15.312       10.691      297.644      234.461      114.293        0.613        0.032      107.400        9.370        0.008      343.098       18.970      864.052
08/01/2014  06:27:00      -96.891      -11.901       -8.845       19.115       15.662       11.744      365.373      245.302      137.931        0.518        0.037       97.620        5.279        0.003      343.207       19.156      864.065
08/01/2014  06:28:00      -73.581      -14.867       -7.125       18.617       14.630       11.060      346.594      214.043      122.327        0.318        0.034       75.068        9.024        0.014      343.220       19.180      864.069
08/01/2014  06:29:00      -59.441      -36.261       -2.714       10.668       12.861        9.186      113.814      165.400       84.391        0.261        0.018       69.628        6.494        0.009      343.270       19.263      864.072
08/01/2014  06:30:00      -54.515      -24.224       -2.193        9.976       14.045        5.072       99.529      197.270       25.723        0.194        0.016       59.655        2.639        0.002      343.348       19.395      864.070
08/01/2014  06:31:00      -35.586      -16.997       -0.253        7.040        8.158        5.691       49.557       66.546       32.388        0.085        0.007       39.437        3.440        0.008      343.415       19.508      864.070
08/01/2014  06:32:00        7.760       16.649       14.707       19.904       13.633        9.513      396.177      185.859       90.488        0.061        0.034       18.368        8.301        0.204      343.454       19.576      864.073
08/01/2014  06:33:00       22.978       16.398       -1.771        6.509        8.827        8.144       42.373       77.914       66.331        0.049        0.009       28.229        6.195        0.048      343.584       19.798      864.083
08/01/2014  06:34:00       11.020      -14.067       -2.901        8.611        8.027        7.114       74.143       64.426       50.605        0.026        0.009       17.869        3.802        0.045      343.774       20.123      864.086
08/01/2014  06:35:00       -4.258       -5.569        4.690       11.357       13.508        8.496      128.976      182.470       72.190        0.023        0.019        7.010        7.538        1.156      343.855       20.261      864.090
08/01/2014  06:36:00       -7.470       -7.699       -7.051        9.666       12.401        8.247       93.428      153.790       68.014        0.024        0.016       10.727        7.445        0.482      343.839       20.234      864.101
08/01/2014  06:37:00      -29.057      -28.534       -8.625       16.136       11.545        7.619      260.371      133.284       58.047        0.109        0.023       40.724        2.516        0.004      343.598       19.823      864.118
08/01/2014  06:38:00      -64.589      -43.860       -1.881       15.335       10.305        9.465      235.168      106.202       89.592        0.326        0.022       78.073        7.592        0.009      343.524       19.697      864.116
08/01/2014  06:39:00      -44.655      -29.142        4.870       27.574       20.364       17.183      760.342      414.677      295.256        0.217        0.074       53.323       15.634        0.086      343.369       19.432      864.116
08/01/2014  06:40:00      -36.885      -51.751        2.731       28.789       23.274       16.865      828.781      541.657      284.436        0.285        0.083       63.551       13.206        0.043      343.413       19.508      864.121
08/01/2014  06:41:00      -65.259      -62.671       -2.028       24.531       31.123       19.051      601.763      968.652      362.944        0.506        0.097       90.479       11.056        0.015      343.529       19.705      864.116
08/01/2014  06:42:00      -33.766      -44.142        8.348       40.495       21.333       19.076     1639.844      455.085      363.894        0.281        0.123       55.575       22.346        0.162      343.513       19.677      864.101
08/01/2014  06:43:00      -68.131      -47.658       -0.861       35.528       32.358       21.019     1262.207     1047.039      441.778        0.483        0.138       83.145       16.182        0.038      343.451       19.571      864.097
08/01/2014  06:44:00      -49.724      -44.103        2.157       26.685       28.275       18.355      712.105      799.486      336.906        0.313        0.092       66.465       16.541        0.062      343.394       19.475      864.092
08/01/2014  06:45:00      -85.096      -55.331      -11.278       13.933       21.552       13.512      194.120      464.476      182.580        0.564        0.042      101.503        5.882        0.003      343.436       19.548      864.080
08/01/2014  06:46:00      -73.836      -53.751       -6.814       23.739       13.283        8.789      563.543      176.444       77.254        0.460        0.041       91.329        5.354        0.003      343.503       19.662      864.073
08/01/2014  06:47:00      -72.482      -34.174       -5.458       10.824        9.359        9.798      117.156       87.582       95.997        0.338        0.015       80.134        4.851        0.004      343.518       19.686      864.081
08/01/2014  06:48:00      -35.095      -33.883        9.213       37.466       23.292       18.920     1403.703      542.506      357.982        0.238        0.115       48.782       20.095        0.170      343.535       19.715      864.081
08/01/2014  06:49:00      -70.239      -58.083       -0.205       41.960       30.107       20.041     1760.658      906.461      401.628        0.569        0.153       91.144       23.978        0.069      343.602       19.829      864.091
08/01/2014  06:50:00      -50.039      -41.436       -1.256       26.310       20.065       17.578      692.237      402.591      309.002        0.281        0.070       64.968       12.646        0.038      343.612       19.846      864.108
08/01/2014  06:51:00      -33.007      -39.433        8.858       31.583       27.100       16.410      997.474      734.406      269.275        0.236        0.100       51.424       17.543        0.116      343.697       19.991      864.109
08/01/2014  06:52:00      -29.199      -40.438       -3.683       24.372       21.854       10.234      594.015      477.605      104.737        0.184        0.059       49.879        8.205        0.027      343.676       19.954      864.124
08/01/2014  06:53:00       -8.870       -6.742        0.748        6.905        8.887        5.385       47.680       78.977       29.001        0.014        0.008       11.141        3.620        0.106      343.788       20.147      864.134
08/01/2014  06:54:00       -4.727       -4.180        0.262        6.243        3.782        4.031       38.980       14.300       16.251        0.005        0.003        6.310        2.088        0.109      343.876       20.298      864.133
08/01/2014  06:55:00      -38.256      -15.288       -3.060       14.679        7.030        5.142      215.472       49.419       26.442        0.100        0.015       41.197        5.085        0.015      343.749       20.080      864.143
08/01/2014  06:56:00      -48.219      -16.576       -3.516       12.589       12.543        6.608      158.487      157.339       43.662        0.149        0.018       50.988        3.411        0.004      343.691       19.981      864.138
08/01/2014  06:57:00      -58.913      -10.912       -1.759       16.015       13.784        7.594      256.470      189.986       57.672        0.205        0.025       59.915        7.163        0.014      343.652       19.916      864.142
08/01/2014  06:58:00      -44.293       -6.505        3.200       21.859       14.207       10.125      477.807      201.832      102.513        0.140        0.039       44.769        9.789        0.048      343.561       19.760      864.151
08/01/2014  06:59:00      -38.129       -4.010        1.963       18.869       13.347       10.054      356.033      178.141      101.084        0.105        0.032       38.339       10.976        0.082      343.577       19.787      864.156
08/01/2014  07:00:00      -49.129       -9.513       -1.148       15.828       14.925       10.255      250.530      222.762      105.156        0.154        0.029       50.041        8.227        0.027      343.482       19.624      864.173
08/01/2014  07:01:00      -37.355       -4.439       -1.209       15.138       11.318       10.538      229.146      128.093      111.046        0.094        0.023       37.618        9.086        0.058      343.565       19.765      864.183
08/01/2014  07:02:00      -29.711       -9.417       -0.040       10.558       10.188        6.990      111.467      103.798       48.866        0.062        0.013       31.168        4.951        0.025      343.763       20.103      864.201
08/01/2014  07:03:00       -7.165       17.395        6.937        8.455       14.091        9.559       71.492      198.544       91.376        0.038        0.018       18.813        3.913        0.043      343.878       20.300      864.215
08/01/2014  07:04:00       -3.554       15.633       -2.234        7.784       11.912        9.627       60.588      141.890       92.677        0.028        0.015       16.032        8.622        0.289      343.979       20.473      864.217
08/01/2014  07:05:00       12.683       44.013       -1.842        8.833       17.751       10.323       78.020      315.115      106.569        0.130        0.025       45.804       11.584        0.064      343.941       20.408      864.216
08/01/2014  07:06:00       13.746       47.444       -4.668        9.187       10.201        8.003       84.402      104.064       64.040        0.136        0.013       49.395        6.320        0.016      343.932       20.392      864.216
08/01/2014  07:07:00       16.775       32.346        5.327       16.214       13.712       11.703      262.908      188.032      136.958        0.097        0.029       36.437        6.595        0.033      344.015       20.534      864.206
08/01/2014  07:08:00       20.797       33.532        1.762       14.596       17.193       10.620      213.035      295.584      112.788        0.109        0.031       39.458        8.540        0.047      343.964       20.447      864.199
08/01/2014  07:09:00       30.767       36.385        5.322       16.229       11.619       13.782      263.377      135.005      189.930        0.144        0.029       47.649        8.034        0.028      343.969       20.457      864.194
08/01/2014  07:10:00       15.083       33.336        8.318       22.806       16.415       13.557      520.101      269.437      183.795        0.119        0.049       36.589       10.872        0.088      344.042       20.580      864.191
08/01/2014  07:11:00       19.707       13.880        6.900       13.010       17.041       15.100      169.258      290.397      228.010        0.066        0.034       24.104        8.512        0.125      344.134       20.737      864.202
08/01/2014  07:12:00       20.698       12.476        7.255       17.810       16.152       16.661      317.188      260.896      277.604        0.075        0.043       24.167        7.114        0.087      344.196       20.845      864.204
08/01/2014  07:13:00       42.609       13.573        7.236       20.223       13.200       14.175      408.982      174.244      200.928        0.142        0.039       44.718        9.003        0.041      344.044       20.584      864.221
08/01/2014  07:14:00       26.931       13.530        8.068       19.653       12.130       12.276      386.247      147.137      150.711        0.083        0.034       30.139        7.291        0.059      344.207       20.861      864.221
08/01/2014  07:15:00       32.816       22.598       -0.325       17.511       14.875       13.918      306.630      221.262      193.717        0.115        0.036       39.844        8.244        0.043      344.109       20.695      864.231
08/01/2014  07:16:00       28.812       26.970        2.415       15.817       12.583       12.760      250.166      158.323      162.825        0.107        0.029       39.466        9.034        0.052      344.118       20.711      864.222
08/01/2014  07:17:00       36.404       33.009       -0.496       15.089       15.774       12.467      227.669      248.822      155.438        0.152        0.032       49.141        9.541        0.038      344.065       20.622      864.229
08/01/2014  07:18:00       41.023       29.884        2.298       23.173       16.153       16.496      536.974      260.905      272.123        0.183        0.054       50.754        8.259        0.026      344.149       20.763      864.223
08/01/2014  07:19:00       28.387        4.314       13.267       22.198       12.086       13.698      492.743      146.068      187.641        0.091        0.041       28.713       11.176        0.151      344.368       21.138      864.213
08/01/2014  07:20:00       33.487       27.962       18.893       23.973       15.442       18.237      574.723      238.453      332.604        0.170        0.057       43.626       15.467        0.126      344.350       21.106      864.204
08/01/2014  07:21:00       40.401       31.051        4.239       18.816       15.127       17.776      354.024      228.825      315.976        0.176        0.045       50.955       13.197        0.067      344.117       20.709      864.203
08/01/2014  07:22:00       13.029       41.455        0.508       18.078       23.080       17.717      326.816      532.673      313.897        0.153        0.059       43.454       18.521        0.182      344.254       20.943      864.193
08/01/2014  07:23:00       10.773       31.965        1.174       10.691       26.177       14.819      114.299      685.238      219.599        0.108        0.051       33.732       16.989        0.254      344.310       21.039      864.186
08/01/2014  07:24:00        2.133       36.285        0.031       16.101       23.761       14.116      259.243      564.562      199.258        0.117        0.051       36.348       12.916        0.126      344.247       20.931      864.175
08/01/2014  07:25:00      -10.431       64.344       -2.364       13.132       18.755       14.778      172.444      351.761      218.391        0.250        0.037       65.184       11.393        0.031      344.208       20.863      864.156
08/01/2014  07:26:00       -8.211       60.657       -2.007        8.931       14.321       14.447       79.759      205.086      208.713        0.212        0.025       61.210        6.699        0.012      344.168       20.795      864.151
08/01/2014  07:27:00       -7.329       38.098       13.173       13.582       19.126       18.593      184.484      365.800      345.708        0.129        0.045       38.797        9.429        0.059      344.568       21.480      864.147
08/01/2014  07:28:00       -7.192        5.761       15.343        7.089       11.237       10.333       50.260      126.271      106.765        0.030        0.014        9.215        2.776        0.091      344.639       21.601      864.156
08/01/2014  07:29:00       -2.980       -1.495       19.517        7.344        4.893        6.278       53.932       23.943       39.418        0.025        0.006        3.333        3.654        1.202      345.105       22.398      864.155
08/01/2014  07:30:00       -8.748       -4.349       10.456        8.075        7.908        9.630       65.201       62.539       92.734        0.021        0.011        9.769        7.027        0.517      344.711       21.723      864.171
08/01/2014  07:31:00      -16.971        2.191        1.346        7.650        5.840        5.408       58.522       34.100       29.248        0.021        0.006       17.112        3.917        0.052      344.401       21.195      864.174
08/01/2014  07:32:00       -5.893       25.744       10.765       11.014       20.406       14.750      121.307      416.408      217.556        0.078        0.038       26.410       11.008        0.174      344.785       21.849      864.195
08/01/2014  07:33:00       19.061       22.889        6.055       15.384       11.941       14.872      236.660      142.592      221.163        0.076        0.030       29.786        9.961        0.112      344.447       21.273      864.196
08/01/2014  07:34:00       27.903        8.589        4.313       15.122       12.273       13.716      228.666      150.632      188.137        0.072        0.028       29.195        6.111        0.044      344.542       21.434      864.202
08/01/2014  07:35:00       25.993       26.264        9.333       17.493       13.667        9.784      306.019      186.800       95.727        0.102        0.029       36.952        5.039        0.019      344.579       21.499      864.193
08/01/2014  07:36:00       42.066       49.139       16.639       16.022       13.939       16.632      256.720      194.308      276.613        0.259        0.036       64.685        9.615        0.022      344.528       21.411      864.192
08/01/2014  07:37:00       32.576       33.433       17.350       22.623       14.611        9.763      511.817      213.476       95.323        0.165        0.041       46.679        5.291        0.013      344.596       21.527      864.183
08/01/2014  07:38:00        9.315        9.257       20.777       19.043       17.089        8.699      362.625      292.044       75.674        0.067        0.037       13.133        3.380        0.066      344.879       22.011      864.191
08/01/2014  07:39:00       -3.420       12.355       27.807       16.092       20.281       17.142      258.949      411.324      293.849        0.095        0.048       12.820       11.058        0.744      345.134       22.447      864.192
08/01/2014  07:40:00       -6.049       14.977       47.745       14.378       22.339       12.712      206.734      499.028      161.584        0.170        0.043       16.152       14.019        0.753      345.432       22.960      864.192
08/01/2014  07:41:00      -21.371       -4.116       28.696       20.626       22.634       17.130      425.451      512.277      293.449        0.126        0.062       21.764       17.031        0.612      344.938       22.112      864.183
08/01/2014  07:42:00      -34.095      -41.162      -15.214       20.483       23.645       17.922      419.539      559.106      321.201        0.219        0.065       53.449       15.597        0.085      344.446       21.269      864.195
08/01/2014  07:43:00      -30.673      -21.104        8.424       26.210       23.003       11.036      686.971      529.160      121.789        0.140        0.067       37.231       10.991        0.087      344.726       21.749      864.205
08/01/2014  07:44:00      -41.378      -35.623        6.350       33.989       30.909       21.951     1155.219      955.378      481.844        0.281        0.130       54.600       21.886        0.161      344.579       21.499      864.207
08/01/2014  07:45:00      -36.453      -42.351        4.905       29.049       34.240       25.236      843.846     1172.389      636.864        0.290        0.133       55.879       19.294        0.119      344.523       21.401      864.214
08/01/2014  07:46:00      -68.822      -70.526       -4.293       32.297       30.777       15.724     1043.121      947.230      247.229        0.598        0.112       98.541       12.610        0.016      344.442       21.264      864.216
08/01/2014  07:47:00      -31.771      -17.945        9.552       42.052       43.801       26.314     1768.387     1918.556      692.449        0.290        0.219       36.489       27.525        0.569      344.742       21.777      864.211
08/01/2014  07:48:00      -22.039      -64.488       -1.386       28.296       29.646       21.579      800.682      878.861      465.651        0.340        0.107       68.150       17.108        0.063      344.487       21.341      864.217
08/01/2014  07:49:00      -44.976      -63.006       -9.693       14.659       27.262       11.645      214.878      743.222      135.599        0.359        0.055       77.412       10.299        0.018      344.463       21.298      864.213
08/01/2014  07:50:00      -16.656      -10.614       12.498       27.764       20.663       18.006      770.818      426.975      324.208        0.103        0.076       19.751       20.717        1.100      345.018       22.249      864.211
08/01/2014  07:51:00        4.838       -3.831       26.316       12.838       10.068       10.156      164.823      101.357      103.135        0.055        0.018        6.171        7.451        1.458      345.339       22.799      864.212
08/01/2014  07:52:00      -16.529       -9.898        2.056       15.050       24.601       18.951      226.488      605.195      359.124        0.078        0.060       19.266       16.156        0.703      344.837       21.939      864.206
08/01/2014  07:53:00      -13.826       17.960       21.171       25.682       21.236       23.410      659.558      450.971      548.048        0.131        0.083       22.666       14.570        0.413      345.235       22.620      864.199
08/01/2014  07:54:00      -23.274       -3.095       11.350       19.114       22.476       15.915      365.331      505.154      253.272        0.090        0.056       23.478       12.967        0.305      345.056       22.315      864.203
08/01/2014  07:55:00      -84.361      -41.120        0.699       27.726       19.761       15.189      768.742      390.491      230.702        0.510        0.069       93.849        5.834        0.004      344.587       21.512      864.196
08/01/2014  07:56:00      -54.849      -22.331       -2.467       26.059       19.101       13.229      679.079      364.839      175.001        0.237        0.061       59.221        8.442        0.020      344.651       21.621      864.193
08/01/2014  07:57:00      -49.230      -30.290        3.793       30.941       18.048       17.416      957.335      325.717      303.305        0.247        0.079       57.802       18.296        0.100      344.743       21.778      864.186
08/01/2014  07:58:00      -19.286      -13.535       14.823       38.036       22.820       19.449     1446.767      520.771      378.252        0.156        0.117       23.561       21.238        0.813      344.986       22.196      864.178
08/01/2014  07:59:00      -42.517      -57.507        1.312       22.541       32.161       15.828      508.111     1034.309      250.522        0.345        0.090       71.517       16.578        0.054      344.670       21.652      864.187
08/01/2014  08:00:00      -46.414      -22.531        6.082       40.052       25.908       22.952     1604.200      671.250      526.777        0.275        0.140       51.594       26.159        0.257      344.764       21.816      864.182
08/01/2014  08:01:00      -38.148      -18.729        9.213       28.207       17.968       20.626      795.643      322.847      425.429        0.172        0.077       42.497       18.948        0.199      344.943       22.121      864.186
08/01/2014  08:02:00      -20.755       -9.674        5.413       22.060       14.200       15.972      486.639      201.627      255.089        0.075        0.047       22.899       11.673        0.260      345.047       22.299      864.190
08/01/2014  08:03:00      -20.860       -8.942        0.973       22.433       20.232       14.809      503.225      409.340      219.317        0.082        0.057       22.696       11.696        0.266      345.175       22.518      864.192
08/01/2014  08:04:00      -38.894       -5.159        7.247       30.573       12.807       18.226      934.692      164.022      332.203        0.151        0.072       39.235       19.613        0.250      345.333       22.790      864.196
08/01/2014  08:05:00      -66.564      -22.205       -5.475       31.894       13.880       13.339     1017.216      192.644      177.925        0.317        0.069       70.170       18.039        0.066      344.872       21.998      864.192
08/01/2014  08:06:00      -53.326       -8.050       -5.834       13.675        9.766        6.552      187.013       95.367       42.935        0.163        0.016       53.930        4.489        0.007      344.840       21.945      864.189
08/01/2014  08:07:00      -37.525      -17.527        3.798       19.163       15.863       10.679      367.229      251.635      114.043        0.123        0.037       41.416       10.806        0.068      345.121       22.426      864.188
08/01/2014  08:08:00      -37.391      -43.756        2.858       20.802       20.017       11.762      432.740      400.673      138.338        0.215        0.049       57.556       13.151        0.052      344.974       22.173      864.179
08/01/2014  08:09:00      -32.220       -7.877       11.145       26.031       21.325       15.044      677.594      454.763      226.324        0.129        0.068       33.169       16.214        0.239      345.538       23.142      864.179
08/01/2014  08:10:00      -54.399      -26.564        0.994       14.713       15.859       12.590      216.480      251.505      158.503        0.215        0.031       60.538       11.779        0.038      345.007       22.231      864.174
08/01/2014  08:11:00      -31.013      -23.937        0.012       12.772       16.463       11.196      163.114      271.041      125.359        0.105        0.028       39.176        8.721        0.050      345.189       22.542      864.180
08/01/2014  08:12:00      -15.526      -26.872       -0.602       13.868       14.658        9.588      192.310      214.843       91.922        0.073        0.025       31.035        8.846        0.081      345.181       22.528      864.198
08/01/2014  08:13:00      -25.414      -44.194        3.321       24.346       26.232       15.739      592.734      688.133      247.710        0.207        0.076       50.981       15.658        0.094      345.145       22.466      864.211
08/01/2014  08:14:00      -38.923       -7.417        0.903       24.675       12.638       13.292      608.866      159.720      176.665        0.126        0.047       39.623       13.622        0.118      345.337       22.797      864.228
08/01/2014  08:15:00      -31.844       -1.029        5.919       16.507       17.106       11.831      272.466      292.627      139.984        0.088        0.035       31.860       11.148        0.122      345.450       22.990      864.249
08/01/2014  08:16:00      -22.841      -15.508        8.903       24.077       20.275       22.713      579.724      411.088      515.864        0.117        0.075       27.608       12.838        0.216      345.533       23.131      864.251
08/01/2014  08:17:00        1.613        8.450       29.796       22.658       35.659       26.825      513.378     1271.557      719.569        0.173        0.125        8.602       21.117        6.026      346.066       24.047      864.266
08/01/2014  08:18:00       -1.554       -1.086       39.299       20.167       45.973       33.156      406.721     2113.562     1099.324        0.258        0.181        1.896       32.969      302.358      345.921       23.799      864.275
08/01/2014  08:19:00      -16.269      -18.441       12.215       28.869       24.804       25.246      833.397      615.244      637.352        0.142        0.104       24.592       20.611        0.702      345.745       23.497      864.271
08/01/2014  08:20:00      -24.561       -4.956       30.343       19.210       30.055       22.582      369.022      903.279      509.937        0.167        0.089       25.056       16.230        0.420      346.094       24.096      864.273
08/01/2014  08:21:00      -32.615      -30.487        1.165       19.201       37.640       16.033      368.676     1416.752      257.042        0.202        0.102       44.645       11.518        0.067      345.358       22.831      864.282
08/01/2014  08:22:00      -46.447      -41.728        5.289       37.310       24.611       17.368     1392.018      605.707      301.641        0.311        0.115       62.438       17.983        0.083      345.366       22.844      864.292
08/01/2014  08:23:00      -51.998      -30.079        5.314       18.078       20.677       11.869      326.824      427.544      140.884        0.227        0.045       60.071        6.324        0.011      345.278       22.694      864.309
08/01/2014  08:24:00      -38.311       10.216        0.679        8.415       11.975       10.374       70.815      143.393      107.615        0.095        0.016       39.650        7.444        0.035      345.259       22.660      864.315
08/01/2014  08:25:00      -22.554       10.105        6.663       16.643       16.896       14.949      276.996      285.464      223.487        0.072        0.039       24.714       13.354        0.292      345.756       23.515      864.329
08/01/2014  08:26:00      -19.303      -11.229       19.251       28.091       23.266       12.059      789.087      541.310      145.424        0.117        0.074       22.332       10.689        0.229      345.955       23.856      864.339
08/01/2014  08:27:00      -10.268       -9.453        1.357       13.618       12.481       12.547      185.451      155.784      157.424        0.035        0.025       13.957        9.833        0.496      345.694       23.408      864.349
08/01/2014  08:28:00      -15.006        4.627       23.479       13.578       16.798       16.892      184.358      282.161      285.328        0.077        0.038       15.703       10.991        0.490      346.386       24.597      864.365
08/01/2014  08:29:00       -1.755       15.977       34.492       16.899       19.560       11.950      285.576      382.609      142.811        0.113        0.041       16.073       10.263        0.408      346.549       24.878      864.364
08/01/2014  08:30:00       -0.345       32.606       38.266       13.324       31.774       16.405      177.526     1009.572      269.124        0.199        0.073       32.608       10.838        0.110      346.487       24.772      864.370
08/01/2014  08:31:00       -3.422       17.491       45.469       17.736       21.910       20.170      314.569      480.053      406.810        0.179        0.060       17.822       17.651        0.981      346.530       24.843      864.371
08/01/2014  08:32:00        1.552       34.136       64.574       25.879       30.105       17.079      669.730      906.295      291.676        0.360        0.093       34.171       12.017        0.124      346.228       24.323      864.365
08/01/2014  08:33:00        3.767       11.854       41.101       13.992       13.194        9.585      195.770      174.085       91.875        0.115        0.023       12.439        8.893        0.511      346.318       24.479      864.362
08/01/2014  08:34:00        4.207       30.124       15.221       22.500       26.298       23.212      506.257      691.595      538.798        0.145        0.087       30.416       20.166        0.440      346.420       24.655      864.348
08/01/2014  08:35:00       31.641       19.150       20.166       22.517       22.012       24.196      507.024      484.533      585.432        0.168        0.079       36.985       15.037        0.165      346.149       24.188      864.341
08/01/2014  08:36:00        1.718       32.670       16.349       24.880       29.496       19.669      619.032      869.996      386.871        0.161        0.094       32.715       15.873        0.235      346.593       24.954      864.332
08/01/2014  08:37:00      -15.141       11.294       11.468       18.788       15.810       21.499      352.983      249.942      462.213        0.078        0.053       18.889       10.057        0.283      346.395       24.612      864.318
08/01/2014  08:38:00      -50.624       25.638        9.857       15.433       16.680       17.459      238.172      278.216      304.818        0.207        0.041       56.746       12.406        0.048      345.825       23.631      864.316
08/01/2014  08:39:00      -39.495       14.574        7.203        8.925        9.770       12.930       79.647       95.454      167.180        0.108        0.017       42.098        5.107        0.015      345.855       23.685      864.317
08/01/2014  08:40:00      -49.946       13.675        0.090       14.907        9.116        8.114      222.220       83.098       65.844        0.153        0.019       51.784        3.522        0.005      345.648       23.327      864.321
08/01/2014  08:41:00      -16.968        5.955       12.949       17.514       10.806       15.318      306.730      116.779      234.632        0.057        0.033       17.982       13.815        0.590      346.048       24.014      864.325
08/01/2014  08:42:00       11.107       10.835       15.552       17.678       17.227       17.160      312.497      296.769      294.470        0.069        0.045       15.516       11.039        0.506      346.546       24.872      864.319
08/01/2014  08:43:00       55.535       54.746        7.428       39.360       24.201       27.864     1549.207      585.681      776.393        0.452        0.146       77.982       21.896        0.079      346.318       24.479      864.322
08/01/2014  08:44:00       72.230       50.579       19.628       46.656       31.306       28.685     2176.816      980.051      822.807        0.607        0.199       88.179       30.586        0.120      346.196       24.271      864.333
08/01/2014  08:45:00       79.804       55.286       16.094       31.068       25.355       27.314      965.231      642.887      746.053        0.602        0.118       97.084        7.537        0.006      346.123       24.145      864.337
08/01/2014  08:46:00       60.255       74.329        3.039       42.087       37.441       27.553     1771.306     1401.812      759.157        0.655        0.197       95.684       24.238        0.064      346.088       24.083      864.339
08/01/2014  08:47:00       83.087       57.257       19.099       56.842       36.502       31.183     3231.043     1332.396      972.408        0.804        0.277      100.905       17.476        0.030      346.153       24.196      864.332
08/01/2014  08:48:00       79.031       57.830       -3.413       33.878       21.867       25.819     1147.719      478.177      666.603        0.595        0.115       97.930       15.332        0.025      345.999       23.930      864.333
08/01/2014  08:49:00       29.353       39.120        9.339       33.034       26.894       26.276     1091.229      723.308      690.437        0.249        0.125       48.908       24.142        0.244      346.513       24.817      864.324
08/01/2014  08:50:00       22.897       26.237       22.683       26.521       23.609       26.153      703.381      557.378      683.982        0.184        0.097       34.823       17.337        0.248      346.651       25.052      864.320
08/01/2014  08:51:00      -14.933       62.715       12.130       17.099       38.004       24.412      292.368     1444.310      595.968        0.332        0.117       64.468       23.385        0.132      346.732       25.193      864.321
08/01/2014  08:52:00        1.636       27.110       20.781       32.781       30.049       24.807     1074.595      902.946      615.406        0.188        0.130       27.159       19.310        0.505      346.853       25.399      864.317
08/01/2014  08:53:00       77.530       41.463       22.925       31.076       22.458       22.253      965.747      504.374      495.188        0.511        0.098       87.921       12.643        0.021      346.286       24.423      864.320
08/01/2014  08:54:00       53.647       53.676       -8.605       19.286       25.982       22.088      371.964      675.053      487.863        0.368        0.077       75.889       13.344        0.031      345.917       23.790      864.326
08/01/2014  08:55:00       52.829       55.559       10.903       33.264       32.493       28.327     1106.467     1055.770      802.444        0.448        0.148       76.666       19.647        0.066      346.270       24.397      864.323
08/01/2014  08:56:00       52.822       22.237       25.563       46.617       38.729       22.372     2173.099     1499.948      500.506        0.405        0.209       57.312        7.497        0.017      346.630       25.016      864.316
08/01/2014  08:57:00       33.928        9.908       25.609       35.745       27.552       33.188     1277.674      759.110     1101.429        0.252        0.157       35.345       16.968        0.230      346.875       25.438      864.318
08/01/2014  08:58:00       39.581       42.110        7.959       32.875       37.311       23.353     1080.744     1392.088      545.384        0.321        0.151       57.792       17.311        0.090      346.454       24.712      864.311
08/01/2014  08:59:00        5.459       37.564       -5.595       24.063       31.380       24.760      579.047      984.727      613.067        0.182        0.109       37.958       14.153        0.139      346.432       24.675      864.302
08/01/2014  09:00:00        3.147       29.606       16.378       33.197       25.831       28.637     1102.031      667.247      820.055        0.187        0.129       29.773       16.849        0.320      346.697       25.132      864.304
08/01/2014  09:01:00       44.697       75.164       11.406       48.979       26.441       26.616     2398.961      699.121      708.389        0.579        0.190       87.450       12.196        0.019      346.516       24.820      864.301
08/01/2014  09:02:00       56.728       35.714       28.505       47.439       40.319       31.312     2250.470     1625.583      980.453        0.508        0.243       67.034       24.821        0.137      346.310       24.467      864.305
08/01/2014  09:03:00       46.460       60.794       55.976       38.362       23.676       21.715     1471.634      560.535      471.554        0.575        0.125       76.514       14.970        0.038      346.360       24.552      864.295
08/01/2014  09:04:00       41.448       21.239       20.610       32.221       20.964       20.607     1038.176      439.505      424.661        0.225        0.095       46.573       13.152        0.080      346.576       24.922      864.301
08/01/2014  09:05:00        9.023       30.193       43.856       43.463       24.834       35.048     1889.049      616.748     1228.392        0.332        0.187       31.512       28.544        0.820      346.745       25.213      864.283
08/01/2014  09:06:00       68.515       66.774       50.014       22.358       20.720       29.310      499.875      429.305      859.051        0.672        0.089       95.672        9.341        0.010      346.130       24.154      864.287
08/01/2014  09:07:00       69.381       54.467       32.824       39.072       36.378       31.067     1526.590     1323.330      965.137        0.634        0.191       88.207       26.783        0.092      346.338       24.513      864.279
08/01/2014  09:08:00       26.017       22.458       56.592       37.952       27.638       25.352     1440.348      763.878      642.719        0.361        0.142       34.369       14.127        0.169      346.659       25.066      864.284
08/01/2014  09:09:00        7.443       15.035       38.921       19.878       27.382       20.040      395.154      749.775      401.582        0.167        0.077       16.776       13.811        0.678      347.066       25.767      864.277
08/01/2014  09:10:00        8.603       33.141       52.182       24.379       29.290       16.878      594.333      857.881      284.861        0.282        0.087       34.240       15.553        0.206      346.998       25.650      864.285
08/01/2014  09:11:00       48.643       39.310       51.426       30.999       27.504       21.922      960.935      756.472      480.576        0.438        0.110       62.541        8.106        0.017      346.512       24.812      864.278
08/01/2014  09:12:00       13.774      -18.073       26.230       32.417       53.826       34.760     1050.847     2897.224     1208.253        0.318        0.258       22.723       24.264        1.140      346.833       25.366      864.292
08/01/2014  09:13:00       12.517       24.049       47.463       29.397       48.021       27.531      864.191     2305.976      757.974        0.346        0.196       27.112       33.550        1.531      346.854       25.402      864.300
08/01/2014  09:14:00       22.728       31.207       41.137       28.670       23.616       21.458      821.995      557.734      460.452        0.251        0.092       38.606       12.203        0.100      346.804       25.315      864.305
08/01/2014  09:15:00       34.928       -6.434        5.498       22.463       29.894       21.769      504.580      893.675      473.904        0.158        0.094       35.516       17.789        0.251      346.565       24.904      864.304
08/01/2014  09:16:00        0.285       -2.743       34.039       22.722       44.248       23.538      516.267     1957.892      554.049        0.210        0.151        2.758       21.941       63.293      347.044       25.729      864.293
08/01/2014  09:17:00        6.857      -13.975       32.369       21.190       26.690       18.108      449.030      712.330      327.909        0.139        0.074       15.566        7.836        0.253      347.269       26.116      864.287
08/01/2014  09:18:00        8.828        1.549       33.856       17.367       35.282       24.965      301.622     1244.796      623.233        0.170        0.108        8.963       24.446        7.438      347.297       26.165      864.269
08/01/2014  09:19:00       40.421       56.160       44.417       50.690       46.588       42.844     2569.428     2170.481     1835.576        0.667        0.329       69.194       36.076        0.272      346.802       25.313      864.252
08/01/2014  09:20:00       23.064      -25.578        4.782       22.376       34.187       26.699      500.676     1168.727      712.853        0.180        0.119       34.442       20.670        0.360      346.824       25.350      864.245
08/01/2014  09:21:00      -18.140       39.594       15.143       23.978       18.697       27.942      574.942      349.582      780.743        0.192        0.085       43.552       10.377        0.057      347.014       25.678      864.228
08/01/2014  09:22:00        5.625      -14.377       19.778       32.201       41.666       33.144     1036.877     1736.049     1098.524        0.225        0.194       15.439       29.836        3.735      347.374       26.296      864.229
08/01/2014  09:23:00      -34.954       -1.848       24.750       22.786       28.560       21.572      519.215      815.670      465.372        0.182        0.090       35.003       18.653        0.284      347.255       26.094      864.228
08/01/2014  09:24:00       11.884       14.886       43.163       34.422       28.274       27.450     1184.897      799.400      753.502        0.248        0.137       19.048       23.531        1.526      347.589       26.669      864.225
08/01/2014  09:25:00        9.515        4.445       20.057       28.324       27.167       26.089      802.240      738.046      680.612        0.137        0.111       10.502       20.118        3.670      347.329       26.220      864.224
08/01/2014  09:26:00       82.701       62.128       46.952       81.341       49.218       43.287     6616.315     2422.415     1873.741        1.191        0.546      103.438       33.151        0.103      346.922       25.518      864.223
08/01/2014  09:27:00      105.068       59.677       14.934       49.354       37.245       31.471     2435.816     1387.205      990.440        0.982        0.241      120.834       15.224        0.016      346.769       25.255      864.209
08/01/2014  09:28:00      123.799       59.855       -1.812       50.858       53.896       31.511     2586.528     2904.766      992.918        1.270        0.324      137.510       20.739        0.023      346.682       25.106      864.212
08/01/2014  09:29:00      122.544       85.915       17.483       40.474       32.250       25.953     1638.181     1040.055      673.539        1.303        0.168      149.661       18.700        0.016      346.667       25.079      864.200
08/01/2014  09:30:00       72.264       62.208       13.521       23.105       25.706       26.077      533.841      660.793      680.033        0.557        0.094       95.352       11.905        0.016      346.734       25.193      864.187
08/01/2014  09:31:00       33.241       46.664        5.972       42.280       35.794       29.627     1787.560     1281.201      877.750        0.363        0.197       57.293       28.861        0.254      347.110       25.842      864.177
08/01/2014  09:32:00       33.056        5.154       19.142       27.459       21.542       23.945      753.998      464.079      573.359        0.164        0.090       33.456        9.697        0.084      347.448       26.426      864.147
08/01/2014  09:33:00      102.464       69.440       46.733       53.475       50.685       42.621     2859.551     2568.938     1816.536        1.237        0.362      123.777       36.240        0.086      346.914       25.502      864.139
08/01/2014  09:34:00       11.834       28.735       38.728       18.030       23.952       27.443      325.074      573.709      753.105        0.206        0.083       31.076       13.978        0.202      347.417       26.372      864.123
08/01/2014  09:35:00       58.009       59.049       40.359       69.382       47.015       42.080     4813.866     2210.403     1770.726        0.864        0.440       82.776       43.026        0.270      347.383       26.313      864.119
08/01/2014  09:36:00       93.517       47.015       31.272       62.161       53.052       40.706     3864.005     2814.468     1657.010        1.013        0.417      104.671       20.948        0.040      347.279       26.133      864.109
08/01/2014  09:37:00      118.729       87.076        9.942       37.996       37.437       35.711     1443.728     1401.508     1275.278        1.295        0.206      147.237       14.106        0.009      346.960       25.583      864.114
08/01/2014  09:38:00       61.954       52.930       -2.092       36.870       38.858       30.786     1359.416     1509.934      947.797        0.523        0.191       81.485       21.750        0.071      347.150       25.912      864.111
08/01/2014  09:39:00       51.830       53.247       11.135       34.976       42.535       34.862     1223.308     1809.192     1215.346        0.495        0.212       74.307       27.202        0.134      347.466       26.456      864.117
08/01/2014  09:40:00       23.410       57.036       73.081       35.430       42.686       31.269     1255.263     1822.132      977.727        0.660        0.203       61.653       23.540        0.146      347.698       26.855      864.120
08/01/2014  09:41:00       91.018       80.393       34.779       37.655       28.780       32.622     1417.913      828.310     1064.167        0.963        0.166      121.439       23.096        0.036      347.155       25.920      864.122
08/01/2014  09:42:00       63.393       57.792       15.293       53.642       35.822       26.801     2877.484     1283.245      718.300        0.623        0.244       85.782       17.208        0.040      347.508       26.527      864.125
08/01/2014  09:43:00       98.471       88.982       11.260       47.658       31.201       36.017     2271.238      973.480     1297.253        1.114        0.227      132.719       15.886        0.014      347.167       25.942      864.136
08/01/2014  09:44:00       42.097       64.721        5.722       30.908       34.532       31.768      955.284     1192.435     1009.194        0.457        0.158       77.207       14.464        0.035      347.270       26.119      864.145
08/01/2014  09:45:00       11.664      141.805      -21.403       30.502       85.697       28.150      930.351     7344.008      792.397        1.488        0.453      142.284       39.794        0.078      347.300       26.167      864.136
08/01/2014  09:46:00       56.063       86.994       -1.873       33.654       45.891       33.327     1132.584     2106.012     1110.656        0.753        0.217      103.494       28.741        0.077      347.384       26.315      864.129
08/01/2014  09:47:00       19.229       22.986       20.660       28.252       24.749       27.196      798.195      612.513      739.642        0.174        0.108       29.968       15.463        0.266      347.443       26.417      864.129
08/01/2014  09:48:00       27.559       16.229       -9.605       23.051       17.920       13.918      531.343      321.136      193.718        0.108        0.052       31.983       11.040        0.119      347.110       25.843      864.115
08/01/2014  09:49:00       18.148       10.105       15.335       21.155       32.718       17.329      447.526     1070.467      300.298        0.124        0.091       20.772        6.462        0.097      347.427       26.389      864.107
08/01/2014  09:50:00       42.698       35.790       41.612       50.258       43.982       27.235     2525.863     1934.390      741.735        0.502        0.260       55.715       14.233        0.065      347.841       27.104      864.104
08/01/2014  09:51:00      128.408       91.781       66.562       76.024       54.326       56.335     5779.684     2951.308     3173.616        2.062        0.595      157.837       36.377        0.053      347.388       26.320      864.089
08/01/2014  09:52:00      138.157       75.454       36.390       48.056       37.193       32.322     2309.384     1383.341     1044.742        1.542        0.237      157.419       21.896        0.019      347.225       26.039      864.090
08/01/2014  09:53:00      108.043       36.669        1.218       52.254       33.211       34.425     2730.529     1102.987     1185.091        0.902        0.251      114.096       19.853        0.030      347.213       26.018      864.088
08/01/2014  09:54:00       83.128       54.239       -1.565       33.268       40.216       25.608     1106.754     1617.329      655.750        0.662        0.169       99.258       18.962        0.036      347.248       26.080      864.079
08/01/2014  09:55:00       59.076       35.347        5.092       29.340       33.725       25.908      860.846     1137.403      671.244        0.372        0.133       68.843       10.364        0.023      347.537       26.579      864.076
08/01/2014  09:56:00       45.088       54.758        4.627       32.024       37.291       31.778     1025.515     1390.609     1009.869        0.424        0.171       70.932       25.882        0.133      347.676       26.818      864.066
08/01/2014  09:57:00        9.883       67.006        2.129       23.659       32.922       28.598      559.748     1083.866      817.873        0.353        0.123       67.731       20.596        0.092      347.676       26.817      864.069
08/01/2014  09:58:00       -5.107        4.290       19.443       19.715       29.671       18.713      388.700      880.362      350.177        0.102        0.081        6.669       17.936        7.232      347.911       27.223      864.060
08/01/2014  09:59:00      -23.308      -25.353      -11.947       28.753       22.126       20.895      826.716      489.559      436.595        0.154        0.088       34.439       15.690        0.208      347.370       26.289      864.052
08/01/2014  10:00:00        9.431       -5.911       17.885       28.449       40.664       20.466      809.358     1653.571      418.854        0.166        0.144       11.130       19.788        3.161      347.683       26.830      864.038
08/01/2014  10:01:00       10.407       72.223        9.903       30.798       43.732       36.830      948.532     1912.520     1356.483        0.482        0.211       72.969       38.605        0.280      347.856       27.128      864.038
08/01/2014  10:02:00       86.341       36.667       17.412       41.020       31.351       30.455     1682.667      982.879      927.480        0.635        0.180       93.804       17.466        0.035      347.724       26.900      864.033
08/01/2014  10:03:00       71.897       68.729       28.761       38.358       26.536       34.183     1471.328      704.162     1168.452        0.703        0.167       99.463       14.081        0.020      347.464       26.453      864.030
08/01/2014  10:04:00       45.209       42.270       25.344       34.571       32.245       22.625     1195.168     1039.764      511.881        0.361        0.137       61.891       15.134        0.060      347.871       27.153      864.023
08/01/2014  10:05:00      100.083       77.309       18.900       44.800       45.240       32.859     2006.996     2046.686     1079.685        1.074        0.257      126.465       12.553        0.010      347.710       26.876      864.041
08/01/2014  10:06:00        7.537       16.991       11.559       33.946       32.221       29.952     1152.319     1038.222      897.138        0.178        0.154       18.588       23.605        1.613      347.912       27.225      864.047
08/01/2014  10:07:00       -2.072       26.505       22.429       27.486       35.665       21.433      755.468     1272.019      459.366        0.185        0.124       26.586       21.327        0.643      348.240       27.792      864.054
08/01/2014  10:08:00       72.883       46.410       10.662       27.576       24.680       30.209      760.427      609.126      912.603        0.493        0.114       86.405       16.125        0.035      347.660       26.790      864.057
08/01/2014  10:09:00       48.391       53.682       31.866       58.212       38.104       34.036     3388.602     1451.937     1158.441        0.612        0.300       72.273       13.585        0.035      348.046       27.457      864.055
08/01/2014  10:10:00       51.094       15.043       63.804       52.640       77.116       44.835     2770.978     5946.920     2010.152        0.882        0.536       53.262       46.381        0.758      348.005       27.385      864.043
08/01/2014  10:11:00       28.178       24.699       24.685       43.974       47.184       26.842     1933.743     2226.352      720.481        0.345        0.244       37.470       17.540        0.219      347.975       27.334      864.046
08/01/2014  10:12:00       42.263       59.002        4.622       42.572       37.118       31.962     1812.387     1377.738     1021.600        0.475        0.211       72.577       22.686        0.098      347.967       27.320      864.035
08/01/2014  10:13:00       80.612       73.567       15.906       29.648       24.927       27.637      879.022      621.361      763.797        0.721        0.113      109.135       16.555        0.023      347.903       27.209      864.020
08/01/2014  10:14:00       39.766       49.274       21.260       46.695       46.572       26.930     2180.465     2168.937      725.229        0.477        0.254       63.319       24.184        0.146      348.235       27.784      864.014
08/01/2014  10:15:00       10.657       16.121        2.483       33.119       30.274       31.042     1096.860      916.488      963.585        0.168        0.149       19.325       19.887        1.059      348.067       27.492      864.008
08/01/2014  10:16:00       41.695       28.155       18.416       35.744       20.708       21.456     1277.653      428.835      460.379        0.252        0.108       50.311       13.959        0.077      348.207       27.735      864.011
08/01/2014  10:17:00       47.718       38.387        9.630       48.544       38.722       29.658     2356.480     1499.366      879.603        0.429        0.237       61.242       25.266        0.170      348.384       28.041      863.994
08/01/2014  10:18:00       95.575       73.532       15.469       53.890       48.759       35.480     2904.132     2377.482     1258.818        1.066        0.327      120.589       30.621        0.064      348.184       27.694      863.998
08/01/2014  10:19:00       51.908       42.103       14.490       45.480       27.000       29.245     2068.409      728.981      855.270        0.416        0.183       66.836       17.879        0.072      348.256       27.820      863.993
08/01/2014  10:20:00       44.860       51.969       13.826       44.428       35.937       37.561     1973.806     1291.486     1410.807        0.479        0.234       68.653       26.532        0.149      348.333       27.954      863.984
08/01/2014  10:21:00      122.036       90.493        3.566       29.542       31.815       34.984      872.738     1012.193     1223.904        1.310        0.155      151.927       11.217        0.005      347.672       26.811      863.984
08/01/2014  10:22:00       47.590       90.418        1.757       49.498       44.909       37.538     2450.055     2016.786     1409.078        0.816        0.294      102.178       28.113        0.076      348.041       27.449      863.971
08/01/2014  10:23:00       20.477       86.397       -2.676       36.775       47.736       42.186     1352.427     2278.752     1779.637        0.665        0.271       88.791       29.178        0.108      348.263       27.833      863.977
08/01/2014  10:24:00       -7.526       66.213       -2.279       31.675       47.141       30.628     1003.316     2222.266      938.088        0.430        0.208       66.639       26.221        0.155      348.351       27.983      863.968
08/01/2014  10:25:00      -19.460       77.321        5.785       18.435       58.765       29.258      339.846     3453.272      856.056        0.552        0.232       79.732       34.456        0.187      348.521       28.279      863.963
08/01/2014  10:26:00      -23.904       22.459       18.479       33.388       29.679       26.442     1114.753      880.855      699.195        0.206        0.135       32.800       10.166        0.096      348.706       28.599      863.956
08/01/2014  10:27:00       18.035       35.237       11.809       35.979       34.022       34.249     1294.478     1157.509     1172.993        0.266        0.181       39.585       28.477        0.518      348.807       28.775      863.957
08/01/2014  10:28:00       18.863       55.765       73.914       38.196       44.783       29.220     1458.897     2005.539      853.779        0.662        0.216       58.869       19.779        0.113      348.977       29.069      863.953
08/01/2014  10:29:00       37.486       42.899       90.120       43.233       66.150       38.765     1869.053     4375.827     1502.733        0.956        0.387       56.970       36.877        0.419      348.523       28.281      863.943
08/01/2014  10:30:00       45.751       67.256       87.758       52.114       55.148       39.696     2715.871     3041.248     1575.788        1.082        0.367       81.342       30.476        0.140      348.773       28.715      863.928
08/01/2014  10:31:00       80.649       81.716       73.190       66.674       54.052       46.609     4445.435     2921.575     2172.417        1.404        0.477      114.812       43.370        0.143      348.552       28.331      863.936
08/01/2014  10:32:00      126.961       75.881       25.992       74.552       55.950       55.624     5558.006     3130.376     3093.988        1.717        0.589      147.909       36.269        0.060      347.977       27.335      863.931
08/01/2014  10:33:00       88.469       98.287       53.186       60.480       45.169       40.826     3657.880     2040.281     1666.772        1.384        0.368      132.239       35.471        0.072      348.185       27.697      863.921
08/01/2014  10:34:00      101.199       72.684       39.964       54.511       41.784       49.085     2971.398     1745.883     2409.348        1.212        0.356      124.596       30.844        0.061      348.107       27.561      863.917
08/01/2014  10:35:00       24.571      -29.884       25.853       30.484       34.879       26.196      929.257     1216.550      686.214        0.250        0.142       38.689       23.268        0.362      348.582       28.385      863.911
08/01/2014  10:36:00       80.314       48.422       49.566       74.359       71.604       49.205     5529.223     5127.103     2421.092        1.216        0.654       93.782       45.133        0.232      348.366       28.010      863.901
08/01/2014  10:37:00       87.243       78.591       57.358       26.058       36.168       37.023      679.026     1308.093     1370.726        1.022        0.168      117.422       24.307        0.043      347.976       27.335      863.894
08/01/2014  10:38:00       13.740       19.637        2.429       24.661       18.153       19.413      608.149      329.549      376.861        0.095        0.066       23.967       14.085        0.345      348.142       27.622      863.895
08/01/2014  10:39:00       77.595       34.411       17.203       71.685       51.438       35.515     5138.676     2645.850     1261.343        0.827        0.452       84.883       30.887        0.132      348.599       28.412      863.876
08/01/2014  10:40:00       88.882       73.010       16.523       48.297       34.785       31.498     2332.595     1209.970      992.139        0.902        0.227      115.024       15.209        0.017      348.224       27.763      863.870
08/01/2014  10:41:00       17.438       15.816       14.714       30.120       21.810       25.117      907.216      475.662      630.850        0.139        0.101       23.542       13.353        0.322      348.584       28.388      863.860
08/01/2014  10:42:00       32.321       52.943       20.462       48.472       49.357       36.756     2349.526     2436.111     1350.982        0.520        0.307       62.029       27.328        0.194      348.836       28.823      863.846
08/01/2014  10:43:00       10.156       -1.917       23.730       18.201       21.231       13.555      331.288      450.757      183.743        0.082        0.048       10.336        5.205        0.254      349.788       30.473      863.837
08/01/2014  10:44:00      -17.158       54.540       17.317       44.094       60.046       28.020     1944.260     3605.534      785.106        0.495        0.317       57.175       25.256        0.195      349.358       29.729      863.832
08/01/2014  10:45:00      -38.887       25.170       31.353       33.180       27.999       34.059     1100.914      783.953     1159.982        0.309        0.152       46.322       23.653        0.261      348.906       28.946      863.820
08/01/2014  10:46:00      -53.104       21.135        9.181       39.771       22.553       26.906     1581.733      508.620      723.944        0.308        0.141       57.156       20.800        0.132      348.711       28.608      863.799
08/01/2014  10:47:00        0.615       -3.269        2.655       16.647       21.128       21.549      277.127      446.384      464.381        0.060        0.059        3.326        7.271        4.780      349.039       29.175      863.803
08/01/2014  10:48:00       33.827      -29.628       47.906       68.307      102.185       59.135     4665.895    10441.734     3496.934        1.146        0.930       44.968       64.172        2.037      349.280       29.592      863.777
08/01/2014  10:49:00       93.001      -93.035       15.619       55.433       82.289       48.896     3072.833     6771.428     2390.770        1.489        0.612      131.547       43.523        0.109      348.584       28.386      863.773
08/01/2014  10:50:00       49.165      -90.538       18.664       43.351      100.291       36.660     1879.316    10058.378     1343.990        1.212        0.664      103.026       41.911        0.165      348.382       28.036      863.778
08/01/2014  10:51:00       -3.942       28.570       21.502       33.999       31.161       21.767     1155.941      971.010      473.819        0.195        0.130       28.841       15.398        0.285      349.239       29.521      863.767
08/01/2014  10:52:00       -2.061       -5.916       15.799       17.774       28.528       13.812      315.908      813.847      190.781        0.080        0.066        6.265        3.544        0.320      349.230       29.506      863.759
08/01/2014  10:53:00      -35.532      -10.556        4.706       54.754       34.635       22.799     2997.981     1199.582      519.809        0.306        0.236       37.066       14.189        0.147      348.734       28.648      863.744
08/01/2014  10:54:00      -53.271      -31.934        4.769       43.834       40.275       24.542     1921.379     1622.065      602.328        0.401        0.207       62.109       16.530        0.071      348.641       28.486      863.741
08/01/2014  10:55:00      -17.903      -36.030        4.993       48.758       39.254       27.854     2377.331     1540.907      775.831        0.317        0.235       40.233       20.949        0.271      348.903       28.940      863.741
08/01/2014  10:56:00       18.948      -59.930       20.783       36.149       37.252       29.267     1306.738     1387.704      856.545        0.397        0.178       62.854       20.548        0.107      348.987       29.085      863.745
08/01/2014  10:57:00       42.169       71.204      104.345       68.849       78.039       50.554     4740.125     6090.090     2555.697        1.556        0.669       82.754       53.929        0.425      348.780       28.725      863.753
08/01/2014  10:58:00      135.723       65.458       47.276       75.930       72.931       47.720     5765.326     5318.875     2277.223        1.915        0.668      150.683       35.242        0.055      348.645       28.491      863.746
08/01/2014  10:59:00      151.260      119.382        5.773       72.152       42.274       37.190     5205.923     1787.106     1383.076        2.277        0.419      192.695       22.002        0.013      348.543       28.313      863.748
08/01/2014  11:00:00      124.476      117.037       60.959       65.307       52.829       54.035     4264.980     2790.951     2919.780        2.144        0.499      170.857       32.071        0.035      348.827       28.805      863.756
08/01/2014  11:01:00      120.855       91.447       42.144       56.061       49.971       53.781     3142.879     2497.060     2892.366        1.664        0.427      151.554       34.516        0.052      348.477       28.201      863.759
08/01/2014  11:02:00       47.458       28.130        8.770       45.707       28.814       27.922     2089.118      830.223      779.626        0.341        0.185       55.169       10.197        0.034      348.548       28.324      863.765
08/01/2014  11:03:00      -24.336       -4.418      -12.342       23.028       24.036       25.196      530.305      577.740      634.858        0.125        0.087       24.734        8.340        0.114      348.752       28.678      863.746
08/01/2014  11:04:00       -1.605        3.553       21.585       22.325       19.421       33.645      498.405      377.189     1131.956        0.124        0.100        3.899       13.556       12.086      349.592       30.136      863.742
08/01/2014  11:05:00      145.925       86.490       30.408       84.516       66.817       51.857     7143.019     4464.489     2689.119        2.200        0.715      169.631       43.597        0.066      348.941       29.002      863.733
08/01/2014  11:06:00       94.165       72.954       -1.532       86.659       80.168       36.162     7509.749     6426.910     1307.697        1.471        0.762      119.119       25.713        0.047      348.661       28.519      863.737
08/01/2014  11:07:00       47.502      105.360        9.929       62.523       64.847       42.119     3909.150     4205.160     1773.993        1.167        0.494      115.573       30.273        0.069      349.115       29.307      863.724
08/01/2014  11:08:00       86.720       69.450       16.740       57.318       36.974       50.583     3285.405     1367.043     2558.610        0.992        0.361      111.102       15.623        0.020      348.993       29.095      863.721
08/01/2014  11:09:00      -13.238       22.771       12.953       21.344       25.407       23.186      455.579      645.535      537.569        0.125        0.082       26.340       15.433        0.343      349.379       29.764      863.711
08/01/2014  11:10:00      -18.341       65.008        8.321       24.740       52.079       32.122      612.057     2712.235     1031.821        0.449        0.218       67.545       27.732        0.169      349.222       29.493      863.693
08/01/2014  11:11:00       82.885       65.845       14.971       55.034       34.806       32.008     3028.687     1211.475     1024.528        0.835        0.263      105.856       23.817        0.051      349.171       29.405      863.684
08/01/2014  11:12:00       72.162       69.968       20.424       49.131       50.003       37.307     2413.875     2500.309     1391.828        0.841        0.315      100.513       33.444        0.111      349.113       29.302      863.665
08/01/2014  11:13:00      -10.236       45.271       18.148       30.181       42.751       30.085      910.893     1827.671      905.078        0.306        0.182       46.414       22.800        0.241      349.866       30.610      863.656
08/01/2014  11:14:00        0.258       82.381       11.136       28.176       67.592       36.480      793.909     4568.624     1330.769        0.680        0.335       82.382       38.001        0.213      349.768       30.441      863.647
08/01/2014  11:15:00       50.127       49.412       25.459       46.400       53.952       45.122     2152.960     2910.860     2036.036        0.635        0.355       70.387       27.384        0.151      349.705       30.330      863.633
08/01/2014  11:16:00      120.616       85.628       66.435       77.199       62.590       43.281     5959.716     3917.494     1873.259        1.902        0.588      147.921       36.016        0.059      349.230       29.505      863.630
08/01/2014  11:17:00      -10.314       37.370       72.294       52.450       74.811       43.138     2751.029     5596.631     1860.858        0.847        0.510       38.767       37.988        0.960      349.791       30.478      863.620
08/01/2014  11:18:00      155.311      119.437       38.952       67.420       42.277       52.552     4545.511     1787.346     2761.735        2.450        0.455      195.926       26.246        0.018      348.814       28.782      863.626
08/01/2014  11:19:00       22.508       52.365        8.438       37.745       38.825       31.746     1424.685     1507.391     1007.825        0.363        0.197       56.997       24.012        0.177      349.338       29.693      863.611
08/01/2014  11:20:00       22.257       19.255       32.849       28.392       29.875       25.537      806.126      892.513      652.138        0.215        0.118       29.430       18.535        0.397      349.811       30.514      863.603
08/01/2014  11:21:00      104.549       93.996       75.534       85.606       57.714       40.122     7328.334     3330.941     1609.753        1.887        0.613      140.590       24.014        0.029      349.226       29.498      863.599
08/01/2014  11:22:00       87.560      -89.017       13.268       62.600       77.500       58.430     3918.787     6006.286     3414.022        1.455        0.667      124.863       54.460        0.190      349.303       29.630      863.593
08/01/2014  11:23:00      108.813      -36.292       38.835       74.896       93.529       61.549     5609.434     8747.628     3788.260        1.640        0.907      114.706       66.271        0.334      349.373       29.753      863.583
08/01/2014  11:24:00       51.805       76.551       62.382       49.135       37.463       38.812     2414.234     1403.487     1506.408        0.888        0.266       92.433       13.885        0.023      349.039       29.174      863.582
08/01/2014  11:25:00       23.685       54.931       22.005       36.866       47.330       32.987     1359.086     2240.087     1088.114        0.437        0.234       59.820       24.005        0.161      349.215       29.479      863.576
08/01/2014  11:26:00       38.256       13.726       41.318       21.665       21.882       27.015      469.354      478.818      729.817        0.252        0.084       40.643        6.361        0.024      349.543       30.049      863.545
08/01/2014  11:27:00       66.861       49.253       15.054       85.923       49.760       50.366     7382.777     2476.103     2536.696        0.976        0.620       83.043       50.137        0.365      349.529       30.024      863.538
08/01/2014  11:28:00       46.087       -5.405        1.632       68.030       89.684       41.864     4628.059     8043.160     1752.633        0.829        0.721       46.403       22.404        0.233      349.433       29.858      863.517
08/01/2014  11:29:00       30.500     -148.269       -1.340       55.424       75.522       56.550     3071.801     5703.578     3197.920        1.744        0.599      151.373       48.150        0.101      349.339       29.693      863.511
08/01/2014  11:30:00       21.591       35.665       69.249       57.087       61.569       46.641     3258.944     3790.744     2175.420        0.788        0.461       41.691       42.964        1.062      349.788       30.474      863.526
08/01/2014  11:31:00      129.697       70.850       80.104       58.331       53.537       47.127     3402.519     2866.232     2220.969        1.837        0.424      147.787       35.913        0.059      349.039       29.175      863.523
08/01/2014  11:32:00      141.504       52.220       30.084       74.620       76.336       39.484     5568.204     5827.252     1559.012        1.830        0.648      150.832       39.788        0.070      348.811       28.778      863.503
08/01/2014  11:33:00      113.011       77.219       56.901       48.868       32.199       42.212     2388.088     1036.763     1781.875        1.359        0.260      136.873       25.841        0.036      348.936       28.998      863.493
08/01/2014  11:34:00      -14.906      -19.471       -6.574       30.170       29.604       22.976      910.226      876.392      527.915        0.148        0.116       24.522       10.693        0.190      349.085       29.255      863.487
08/01/2014  11:35:00      -52.817       20.345       -9.502       25.517       32.218       17.559      651.130     1037.993      308.307        0.265        0.100       56.600       13.184        0.054      348.914       28.956      863.477
08/01/2014  11:36:00        3.470        8.132       23.671       33.557       64.307       30.423     1126.104     4135.430      925.551        0.341        0.309        8.842       27.281        9.520      350.111       31.036      863.460
08/01/2014  11:37:00       11.012      -51.243        9.866       26.170       54.305       26.129      684.866     2949.005      682.730        0.358        0.216       52.413       29.241        0.311      349.487       29.954      863.449
08/01/2014  11:38:00     -109.433      -35.461        0.835       70.690       52.840       34.801     4997.021     2792.047     1211.122        1.112        0.450      115.035       43.399        0.142      349.405       29.810      863.441
08/01/2014  11:39:00     -113.290      -68.268      -10.591       60.365       73.580       21.982     3643.957     5413.972      483.217        1.357        0.477      132.270       26.441        0.040      349.013       29.127      863.433
08/01/2014  11:40:00      -97.549      -70.264       -5.103       43.791       41.712       29.681     1917.693     1739.903      880.953        0.951        0.227      120.220       17.958        0.022      349.166       29.395      863.422
08/01/2014  11:41:00      -94.549       -8.561       -9.935       27.196       46.125       23.407      739.646     2127.474      547.865        0.626        0.171       94.935       10.796        0.013      348.935       28.993      863.425
08/01/2014  11:42:00      -57.780      -25.942      -17.798       26.733       22.160       16.791      714.675      491.044      281.936        0.291        0.074       63.337       12.113        0.037      348.992       29.092      863.410
08/01/2014  11:43:00      -63.447       12.138       -3.736       37.943       18.920       21.761     1439.674      357.975      473.522        0.323        0.114       64.598       20.701        0.103      349.288       29.606      863.404
08/01/2014  11:44:00      -53.819      -12.123        4.830       54.864       31.134       33.175     3010.075      969.347     1100.563        0.407        0.254       55.168       19.052        0.119      349.786       30.471      863.390
08/01/2014  11:45:00       -0.032       15.470       28.498       29.107       24.227       21.300      847.204      586.948      453.686        0.147        0.094       15.470       10.344        0.447      350.656       31.984      863.383
08/01/2014  11:46:00       -7.629       -0.772       31.904       17.897       26.828       17.404      320.304      719.742      302.884        0.121        0.067        7.668       17.343        5.115      350.635       31.946      863.376
08/01/2014  11:47:00       20.781       15.742       24.233       28.800       25.843       22.835      829.419      667.846      521.443        0.164        0.101       26.071       20.515        0.619      350.729       32.111      863.377
08/01/2014  11:48:00       25.871        5.673       24.247       35.461       36.322       29.692     1257.515     1319.310      881.619        0.237        0.173       26.486       23.017        0.755      350.170       31.138      863.370
08/01/2014  11:49:00       97.239       89.436       17.318       59.859       43.064       39.969     3583.077     1854.537     1597.534        1.239        0.352      132.115       28.047        0.045      349.723       30.361      863.364
08/01/2014  11:50:00       22.834       87.673        7.174       34.738       67.012       39.446     1206.740     4490.632     1556.006        0.775        0.363       90.598       41.428        0.209      349.752       30.411      863.368
08/01/2014  11:51:00       72.247       55.363        8.434       83.595       46.252       40.533     6988.148     2139.218     1642.939        0.956        0.539       91.020       19.850        0.048      349.635       30.207      863.352
08/01/2014  11:52:00       90.806       86.361       -2.210       92.864       61.361       42.872     8623.796     3765.198     1838.003        1.497        0.711      125.315       36.277        0.084      349.484       29.945      863.352
08/01/2014  11:53:00      -59.429      179.025      -32.705       68.211       79.781       34.704     4652.733     6365.049     1204.389        2.443        0.611      188.631       28.688        0.023      349.427       29.845      863.340
08/01/2014  11:54:00     -135.735      114.922       -5.044       85.669       74.624       50.364     7339.118     5568.724     2536.581        2.355        0.772      177.851       54.506        0.094      349.480       29.935      863.320
08/01/2014  11:55:00     -175.169       49.984      -18.512       63.197       64.270       38.364     3993.869     4130.684     1471.779        2.156        0.480      182.161       28.433        0.024      348.944       29.007      863.313
08/01/2014  11:56:00     -121.544      -28.049       11.119       89.166       57.278       34.605     7950.610     3280.734     1197.501        1.405        0.621      124.739       27.529        0.049      349.423       29.838      863.291
08/01/2014  11:57:00      -35.118       39.439       14.724       47.134       33.583       57.013     2221.573     1127.800     3250.472        0.480        0.330       52.808       41.144        0.607      349.661       30.255      863.299
08/01/2014  11:58:00       18.469       65.398       63.827       44.727       40.118       37.377     2000.522     1609.446     1397.006        0.685        0.250       67.956       30.106        0.196      349.996       30.835      863.297
08/01/2014  11:59:00       73.232       32.916       19.168       83.824       64.095       42.585     7026.513     4108.204     1813.456        0.988        0.647       80.289       37.720        0.221      350.103       31.021      863.298
08/01/2014  12:00:00       31.923      -56.637       36.025       79.701       63.429       58.728     6352.215     4023.275     3449.036        0.967        0.691       65.014       32.084        0.244      350.175       31.145      863.283
08/01/2014  12:01:00      150.934     -111.460        4.888       65.477       80.157       45.530     4287.257     6425.189     2072.976        2.400        0.639      187.629       49.981        0.071      349.564       30.083      863.283
08/01/2014  12:02:00       69.572      -52.337       33.579       60.725       73.524       51.396     3687.566     5405.724     2641.544        1.022        0.587       87.059       45.955        0.279      349.984       30.814      863.286
08/01/2014  12:03:00       26.134        1.654       62.230       55.993       58.849       38.699     3135.188     3463.234     1497.628        0.633        0.405       26.186       35.364        1.824      350.165       31.128      863.284
08/01/2014  12:04:00       79.550      -73.199       16.197       75.301       60.963       40.506     5670.304     3716.445     1640.710        1.149        0.551      108.103       50.943        0.222      349.560       30.077      863.285
08/01/2014  12:05:00       75.656       41.742       54.150       68.765       37.768       32.217     4728.619     1426.424     1037.957        0.879        0.360       86.407       27.235        0.099      350.080       30.982      863.284
08/01/2014  12:06:00      146.181       65.734       20.875      133.037       97.240       58.285    17698.839     9455.681     3397.087        2.833        1.528      160.281       23.384        0.021      349.732       30.375      863.263
08/01/2014  12:07:00      129.588      127.282        0.771       96.053       65.248       58.370     9226.162     4257.311     3407.058        2.494        0.845      181.642       35.453        0.038      349.801       30.493      863.267
08/01/2014  12:08:00      -12.116      214.307      -20.532       50.222       95.860       42.173     2522.210     9189.091     1778.584        2.999        0.674      214.649       41.930        0.038      349.335       29.685      863.275
08/01/2014  12:09:00       -2.200      136.098      -10.428       36.958       67.971       28.644     1365.874     4620.045      820.489        1.272        0.340      136.116       28.832        0.045      349.620       30.183      863.276
08/01/2014  12:10:00      -27.787       67.192       -0.211       33.840       47.049       33.424     1145.143     2213.642     1117.190        0.488        0.224       72.711       29.524        0.165      349.910       30.687      863.251
08/01/2014  12:11:00      -25.412      239.417      -28.550       50.753       73.439       39.239     2575.835     5393.244     1539.663        3.414        0.475      240.762       39.602        0.027      349.509       29.987      863.242
08/01/2014  12:12:00      -26.977       93.029        5.542       23.530       83.406       33.734      553.668     6956.529     1137.975        0.903        0.432       96.862       44.287        0.209      350.000       30.840      863.228
08/01/2014  12:13:00      -41.550       53.394        0.565       47.071       73.461       39.185     2215.694     5396.449     1535.447        0.686        0.457       67.656       23.799        0.124      349.941       30.739      863.195
08/01/2014  12:14:00      -27.231      166.669      -17.069       95.873       80.475       46.736     9191.673     6476.298     2184.298        2.333        0.893      168.879       46.847        0.077      349.870       30.614      863.180
08/01/2014  12:15:00     -101.898      112.389      -25.425       61.527       65.346       39.527     3785.532     4270.152     1562.381        1.664        0.481      151.706       31.327        0.043      349.678       30.281      863.169
08/01/2014  12:16:00      -24.005      141.675       -0.445       41.704       86.443       39.625     1739.218     7472.474     1570.163        1.571        0.539      143.694       43.149        0.090      350.034       30.900      863.159
08/01/2014  12:17:00      -58.382      294.848      -29.763       31.187       62.489       31.264      972.616     3904.880      977.442        4.854        0.293      300.573       31.223        0.011      349.401       29.798      863.162
08/01/2014  12:18:00      -51.624      199.207      -15.787       41.149       79.000       35.177     1693.271     6241.039     1237.430        2.588        0.459      205.787       34.121        0.027      349.684       30.292      863.165
08/01/2014  12:19:00      -31.606       77.145       10.913       45.955       69.440       43.073     2111.826     4821.853     1855.303        0.793        0.439       83.369       46.746        0.314      350.174       31.146      863.163
08/01/2014  12:20:00        4.342      137.053       20.552       41.638       71.184       54.427     1733.761     5067.199     2962.273        1.449        0.488      137.122       49.881        0.132      350.068       30.961      863.142
08/01/2014  12:21:00      -95.682      -16.289       23.513       92.484       62.944       49.404     8553.267     3961.912     2440.756        1.246        0.748       97.058       58.153        0.359      349.935       30.730      863.124
08/01/2014  12:22:00      -29.816        0.675       21.256       35.505       35.945       30.472     1260.634     1292.067      928.555        0.241        0.174       29.824       23.188        0.604      350.738       32.128      863.105
08/01/2014  12:23:00      -48.734       30.215        0.509       43.072       36.514       24.533     1855.157     1333.291      601.858        0.354        0.190       57.341       16.897        0.087      349.939       30.736      863.101
08/01/2014  12:24:00       -7.321       67.107       16.544       58.500       58.137       37.874     3422.243     3379.853     1434.453        0.653        0.412       67.506       26.105        0.150      350.388       31.517      863.089
08/01/2014  12:25:00       32.357       42.729       12.015       45.511       30.957       31.319     2071.268      958.353      980.890        0.351        0.201       53.598       20.774        0.150      350.673       32.013      863.077
08/01/2014  12:26:00       60.562      179.864      -13.993       91.127      116.087       55.364     8304.120    13476.241     3065.167        3.053        1.242      189.787       59.741        0.099      349.954       30.759      863.058
08/01/2014  12:27:00      147.239      134.839       20.491      141.888       81.791       73.030    20132.282     6689.822     5333.344        3.621        1.608      199.652       49.394        0.061      350.013       30.862      863.040
08/01/2014  12:28:00      209.471      170.699       21.083       89.041       74.575       65.365     7928.288     5561.380     4272.640        4.561        0.888      270.216       41.205        0.023      349.594       30.133      863.051
08/01/2014  12:29:00       28.456      134.781       -0.402       56.121       78.497       49.238     3149.589     6161.764     2424.375        1.535        0.587      137.752       48.023        0.122      349.841       30.566      863.042
08/01/2014  12:30:00       60.947      130.621       -8.802       48.996       74.110       45.772     2400.630     5492.309     2095.067        1.542        0.499      144.140       43.810        0.092      349.757       30.420      863.046
08/01/2014  12:31:00       24.841      234.970      -44.038       64.938       89.426       45.833     4216.951     7997.029     2100.689        3.604        0.716      236.279       44.698        0.036      349.659       30.247      863.038
08/01/2014  12:32:00       51.529       54.216        5.223       51.526       39.149       28.418     2654.972     1532.634      807.600        0.531        0.250       74.797       22.254        0.089      349.889       30.648      863.033
08/01/2014  12:33:00        0.926      114.216       -8.824       39.084       61.855       43.747     1527.550     3826.098     1913.805        1.019        0.363      114.220       35.012        0.094      349.931       30.723      863.014
08/01/2014  12:34:00      -10.086       91.191      -21.381       46.814       72.122       30.545     2191.524     5201.650      933.009        0.860        0.416       91.747       21.243        0.054      349.811       30.513      863.002
08/01/2014  12:35:00       56.630       44.863       -0.394       43.538       31.799       32.978     1895.576     1011.183     1087.558        0.461        0.200       72.247       26.100        0.131      350.038       30.909      863.001
08/01/2014  12:36:00        0.574       37.569        1.375       49.829       31.805       32.843     2482.945     1011.586     1078.649        0.299        0.229       37.574       30.461        0.657      349.860       30.599      862.979
08/01/2014  12:37:00       23.649       23.545       23.850       65.483       36.586       37.587     4287.987     1338.570     1412.800        0.436        0.352       33.371       18.850        0.319      350.551       31.799      862.978
08/01/2014  12:38:00      186.050      142.416       22.456       94.195       84.765       70.270     8872.788     7185.188     4937.805        3.819        1.050      234.302       52.020        0.049      349.955       30.761      862.993
08/01/2014  12:39:00      189.267      118.300       31.130       64.816       62.723       51.129     4201.154     3934.197     2614.198        3.077        0.537      223.197       24.960        0.013      349.884       30.636      862.996
08/01/2014  12:40:00      133.589       72.758       74.437       68.302       72.947       51.297     4665.213     5321.276     2631.378        2.065        0.631      152.117       40.893        0.072      349.739       30.386      862.977
08/01/2014  12:41:00      192.253      133.994       26.989       68.579       58.135       58.897     4703.074     3379.643     3468.905        3.360        0.578      234.341       33.852        0.021      349.827       30.537      862.964
08/01/2014  12:42:00      173.193      134.257       86.175      141.906       79.473       86.722    20137.225     6316.015     7520.679        4.470        1.699      219.136       84.541        0.149      350.035       30.899      862.933
08/01/2014  12:43:00      284.446      170.436       23.898       78.792       68.515       66.418     6208.256     4694.306     4411.372        6.292        0.766      331.599       46.896        0.020      349.969       30.783      862.919
08/01/2014  12:44:00      156.672      105.563       21.151       93.045       72.292       75.049     8657.292     5226.099     5632.323        2.782        0.976      188.917       41.491        0.048      350.075       30.968      862.913
08/01/2014  12:45:00      100.315      112.651       17.294       89.340       72.277       60.588     7981.577     5223.987     3670.850        1.996        0.844      150.842       43.268        0.082      350.290       31.344      862.893
08/01/2014  12:46:00      172.651      183.901        4.113      109.033       70.958       60.089    11888.271     5035.102     3610.728        4.209        1.027      252.245       49.643        0.039      350.033       30.894      862.870
08/01/2014  12:47:00      108.370      183.941       -3.708      103.826      101.834       78.995    10779.763    10370.143     6240.138        3.649        1.370      213.491       64.108        0.090      349.987       30.817      862.865
08/01/2014  12:48:00       70.270      131.257       -9.023       74.861       78.822       56.686     5604.223     6212.964     3213.262        1.864        0.752      148.884       40.542        0.074      350.157       31.111      862.844
08/01/2014  12:49:00       29.344      163.804      -18.202       48.303       66.810       36.587     2333.227     4463.533     1338.636        1.808        0.407      166.412       33.233        0.040      350.135       31.074      862.817
08/01/2014  12:50:00       51.607       58.641       24.453       71.791       61.844       45.809     5153.900     3824.707     2098.470        0.889        0.554       78.115       38.779        0.246      350.349       31.449      862.791
08/01/2014  12:51:00       76.400      166.691       -8.143       81.671      112.191       66.818     6670.079    12586.808     4464.678        2.870        1.186      183.365       61.513        0.113      350.288       31.340      862.776
08/01/2014  12:52:00       42.757      262.222      -19.226       80.671      133.542       74.173     6507.812    17833.561     5501.620        5.039        1.492      265.685       80.070        0.091      349.979       30.801      862.760
08/01/2014  12:53:00      111.013      142.370       23.700      112.615      133.449       58.807    12682.189    17808.502     3458.263        3.355        1.697      180.536       53.457        0.088      350.310       31.379      862.741
08/01/2014  12:54:00      100.671      116.014       -0.552      108.573       91.756       79.283    11788.034     8419.158     6285.729        2.504        1.325      153.603       64.425        0.176      350.331       31.416      862.732
08/01/2014  12:55:00      217.491      113.341       43.644       80.292       64.964       58.944     6446.742     4220.341     3474.423        3.809        0.707      245.252       42.039        0.029      350.113       31.034      862.709
08/01/2014  12:56:00       60.744      142.701      129.567       77.409       80.324       72.462     5992.102     6452.016     5250.685        2.926        0.885      155.092       62.683        0.163      349.969       30.786      862.684
08/01/2014  12:57:00       20.525      111.881      145.898       64.734      101.766       67.332     4190.437    10356.278     4533.642        2.665        0.954      113.749       72.462        0.406      350.036       30.903      862.662
08/01/2014  12:58:00       73.039      260.681       -2.886       85.523      177.779       79.228     7314.111    31605.440     6277.083        5.924        2.260      270.720      100.228        0.137      350.011       30.858      862.666
08/01/2014  12:59:00      122.412       88.094        7.100       77.448       56.901       42.039     5998.186     3237.679     1767.267        1.690        0.550      150.815       28.546        0.036      349.980       30.805      862.678
08/01/2014  13:00:00       88.794      100.162        3.179       96.125       82.476       54.560     9240.097     6802.275     2976.841        1.847        0.951      133.854       48.615        0.132      350.448       31.620      862.654
08/01/2014  13:01:00      121.560      126.899       11.343       92.303       87.946       58.550     8519.884     7734.450     3428.091        2.534        0.984      175.727       47.645        0.074      350.423       31.575      862.653
08/01/2014  13:02:00      200.560      138.438       -4.679       87.969       66.635       52.141     7738.497     4440.180     2718.652        3.715        0.745      243.699       24.510        0.010      350.123       31.053      862.646
08/01/2014  13:03:00       64.210       48.566       17.008       47.848       25.382       32.964     2289.437      644.230     1086.636        0.539        0.201       80.508       20.814        0.067      350.238       31.256      862.634
08/01/2014  13:04:00      147.432      111.800       11.862       97.686       65.228       48.191     9542.579     4254.685     2322.394        2.524        0.806      185.028       27.922        0.023      350.403       31.541      862.598
08/01/2014  13:05:00      131.077       94.796       34.547      129.852       84.938       74.225    16861.616     7214.472     5509.363        2.847        1.479      161.764       53.986        0.111      350.730       32.109      862.571
08/01/2014  13:06:00      263.629      168.966       13.246      125.501       88.555       71.639    15750.491     7841.959     5132.143        6.347        1.436      313.129       58.224        0.035      350.447       31.613      862.566
08/01/2014  13:07:00      194.518      136.877       10.923      110.051       73.908       53.903    12111.311     5462.436     2905.564        3.858        1.024      237.849       35.735        0.023      350.277       31.320      862.574
08/01/2014  13:08:00      169.713      178.917       -5.713      118.738       83.604       76.699    14098.694     6989.562     5882.755        4.390        1.349      246.604       60.275        0.060      350.252       31.276      862.581
08/01/2014  13:09:00       98.430       67.890       17.437      109.140       55.597       47.909    11911.480     3091.007     2295.247        1.595        0.865      119.572       29.177        0.060      350.357       31.461      862.598
08/01/2014  13:10:00      -67.728       86.480      -12.410       40.252       60.807       35.780     1620.248     3697.488     1280.225        0.941        0.330      109.845       32.982        0.090      350.302       31.365      862.585
08/01/2014  13:11:00      -95.753       61.944      -25.192       33.673       49.395       21.275     1133.903     2439.867      452.605        0.883        0.201      114.042       20.463        0.032      349.984       30.813      862.562
08/01/2014  13:12:00      -52.238       23.194       10.242       63.213       64.290       37.483     3995.920     4133.268     1405.012        0.645        0.477       57.155       38.048        0.443      350.412       31.557      862.530
08/01/2014  13:13:00      -21.509      195.065      -11.606       52.403       64.627       39.857     2746.105     4176.695     1588.589        2.358        0.426      196.247       32.154        0.027      350.304       31.368      862.514
08/01/2014  13:14:00       58.031      205.754       -8.095       70.588      105.200       76.875     4982.707    11067.062     5909.832        3.386        1.098      213.781       62.745        0.086      350.364       31.470      862.495
08/01/2014  13:15:00      -50.212      153.082      -30.113       73.136       74.595       35.037     5348.903     5564.372     1227.603        1.950        0.607      161.106       25.753        0.026      350.016       30.870      862.494
08/01/2014  13:16:00     -102.115       61.532       -7.731       48.087       40.067       25.904     2312.407     1605.386      671.006        0.943        0.229      119.221       19.051        0.026      350.141       31.087      862.459
08/01/2014  13:17:00      -25.384       30.207       18.992       55.306       31.844       32.398     3058.736     1014.022     1049.618        0.352        0.256       39.457       33.938        0.740      350.417       31.567      862.446
08/01/2014  13:18:00       21.593       23.830       15.756       20.937       26.353       20.973      438.355      694.485      439.866        0.143        0.079       32.158       14.717        0.209      350.527       31.757      862.447
08/01/2014  13:19:00       75.368       43.176       22.789       46.736       36.548       34.219     2184.289     1335.775     1170.916        0.638        0.235       86.860       28.929        0.111      350.411       31.555      862.426
08/01/2014  13:20:00       49.430       61.798        3.401       36.616       44.090       32.343     1340.699     1943.921     1046.060        0.530        0.217       79.135       24.516        0.096      350.562       31.818      862.403
08/01/2014  13:21:00       39.560        1.375       46.164       46.804       61.392       38.952     2190.628     3768.962     1517.260        0.559        0.374       39.584       41.725        1.111      350.666       32.000      862.408
08/01/2014  13:22:00      185.156       97.261       37.599      133.089       97.432       84.161    17712.683     9492.930     7083.030        3.972        1.714      209.147       70.737        0.114      350.461       31.639      862.410
08/01/2014  13:23:00      116.912      114.819      109.282       87.990       95.481       66.962     7742.281     9116.606     4483.847        3.006        1.067      163.865       65.083        0.158      350.310       31.378      862.424
08/01/2014  13:24:00       81.042       46.451       77.905       85.254       56.307       53.000     7268.275     3170.471     2809.002        1.402        0.662       93.410       32.505        0.121      350.463       31.644      862.417
08/01/2014  13:25:00      103.079       50.486       80.158       73.283      108.256       80.658     5370.362    11719.301     6505.665        2.159        1.180      114.779       82.571        0.518      350.139       31.081      862.412
08/01/2014  13:26:00      124.680       23.720       29.770       81.121       75.684       52.956     6580.540     5728.008     2804.310        1.605        0.756      126.916       25.070        0.039      350.073       30.967      862.402
08/01/2014  13:27:00      175.770       96.332       30.327       68.635       53.120       54.469     4710.711     2821.689     2966.866        2.579        0.525      200.437       40.854        0.042      350.105       31.022      862.410
08/01/2014  13:28:00      125.595       25.781       40.245       98.072       97.464       54.846     9618.040     9499.206     3008.065        2.009        1.106      128.214       53.747        0.176      350.209       31.202      862.409
08/01/2014  13:29:00      139.675       57.903       86.543       84.758       64.265       58.593     7183.933     4130.042     3433.189        2.255        0.737      151.201       46.562        0.095      350.115       31.039      862.405
08/01/2014  13:30:00      110.032       55.041       49.991       81.823       91.231       59.131     6695.055     8323.173     3496.505        1.807        0.926      123.031       53.946        0.192      349.904       30.674      862.407
08/01/2014  13:31:00      179.410      117.547       24.656       84.240       65.205       60.367     7096.315     4251.728     3644.162        3.080        0.750      214.488       31.614        0.022      350.200       31.186      862.409
08/01/2014  13:32:00      134.692       97.573       47.298       52.720       52.384       45.659     2779.450     2744.089     2084.720        1.875        0.380      166.321       33.688        0.041      350.358       31.461      862.416
08/01/2014  13:33:00      114.566       69.302       20.033       83.210       62.356       45.924     6923.847     3888.323     2109.039        1.562        0.646      133.896       32.213        0.058      350.318       31.392      862.413
08/01/2014  13:34:00      158.319       91.631       56.811       84.123       69.680       57.646     7076.702     4855.308     3323.105        2.597        0.763      182.924       51.348        0.079      350.375       31.491      862.406
08/01/2014  13:35:00      108.125      101.205       76.685       95.336       69.350       52.686     9088.863     4809.416     2775.770        2.224        0.834      148.100       49.552        0.112      350.137       31.077      862.409
08/01/2014  13:36:00      138.103       75.200       39.011       92.706       65.180       55.666     8594.321     4248.461     3098.705        2.109        0.797      157.250       45.782        0.085      350.265       31.301      862.405
08/01/2014  13:37:00      117.007       48.943       13.898       63.404       65.643       39.081     4020.102     4309.065     1527.353        1.307        0.493      126.831       36.886        0.085      350.325       31.404      862.394
08/01/2014  13:38:00       96.766       59.779       26.067       51.160       24.240       31.275     2617.306      587.587      978.138        0.890        0.209      113.741       25.275        0.049      350.400       31.536      862.389
08/01/2014  13:39:00       24.468       41.531        4.278       36.910       34.131       21.122     1362.331     1164.895      446.135        0.266        0.149       48.203       21.965        0.208      350.229       31.240      862.387
08/01/2014  13:40:00       10.894      152.656      -21.153       38.307       56.340       23.500     1467.430     3174.247      552.259        1.453        0.260      153.044       25.779        0.028      350.278       31.324      862.376
08/01/2014  13:41:00      -48.141      157.625      -20.443       50.022       68.846       25.871     2502.176     4739.774      669.321        1.774        0.396      164.812       25.175        0.023      350.282       31.330      862.368
08/01/2014  13:42:00      -95.667      142.722      -16.771       62.578       51.221       39.095     3916.047     2623.635     1528.386        1.893        0.403      171.819       30.680        0.032      350.257       31.288      862.369
08/01/2014  13:43:00      -68.044      117.567       -2.820       52.582       56.520       40.634     2764.880     3194.544     1651.162        1.303        0.381      135.838       39.036        0.083      350.375       31.493      862.348
08/01/2014  13:44:00     -141.875      110.953      -10.136       98.145       80.240       51.693     9632.355     6438.438     2672.184        2.564        0.937      180.109       44.620        0.061      350.268       31.304      862.336
08/01/2014  13:45:00     -136.551       42.353       -8.205       66.885       64.944       39.261     4473.601     4217.720     1541.400        1.537        0.512      142.968       40.964        0.082      350.283       31.330      862.326
08/01/2014  13:46:00     -204.696      -58.635      -23.406       55.942       65.385       34.919     3129.562     4275.251     1219.340        2.725        0.431      212.929       22.314        0.011      350.349       31.445      862.316
08/01/2014  13:47:00     -189.511      -87.361      -13.274      118.927       66.624       40.211    14143.574     4438.759     1616.900        3.196        1.010      208.678       31.174        0.022      350.316       31.388      862.313
08/01/2014  13:48:00     -186.187      -30.275        4.592      110.051       64.224       49.639    12111.310     4124.662     2464.073        2.715        0.935      188.632       56.998        0.091      350.433       31.593      862.333
08/01/2014  13:49:00     -273.044      -65.342       -4.760       92.113       80.918       40.252     8484.778     6547.788     1620.189        4.775        0.833      280.753       39.207        0.020      350.240       31.256      862.337
08/01/2014  13:50:00     -265.793      -73.705        0.472       87.346       61.707       36.943     7629.378     3807.781     1364.781        4.444        0.640      275.823       40.014        0.021      350.136       31.071      862.331
08/01/2014  13:51:00     -208.456      -36.169       -3.095       87.503       63.062       38.868     7656.716     3976.847     1510.723        2.896        0.657      211.571       37.071        0.031      350.155       31.108      862.333
08/01/2014  13:52:00     -159.301      -49.472       -4.689       96.961       72.173       37.821     9401.437     5208.926     1430.404        2.194        0.802      166.806       40.599        0.059      350.242       31.260      862.311
08/01/2014  13:53:00     -227.918      -48.359       -9.170       78.185       53.050       41.172     6112.970     2814.253     1695.098        3.249        0.531      232.992       43.343        0.035      350.195       31.177      862.299
08/01/2014  13:54:00     -210.838      -44.605      -13.860       81.751       71.570       39.287     6683.275     5122.271     1543.457        2.999        0.667      215.505       37.894        0.031      350.285       31.333      862.294
08/01/2014  13:55:00     -305.950       -7.234      -24.996       98.051       74.410       49.347     9613.981     5536.854     2435.152        5.593        0.879      306.036       51.471        0.028      350.237       31.249      862.268
08/01/2014  13:56:00     -257.398      -90.276       -9.309       80.033       58.251       44.044     6405.230     3393.195     1939.852        4.311        0.587      272.770       35.467        0.017      350.247       31.267      862.248
08/01/2014  13:57:00      -87.282      -19.069        1.630       79.096       71.835       35.137     6256.117     5160.244     1234.575        1.032        0.633       89.341       27.471        0.095      350.441       31.606      862.239
08/01/2014  13:58:00     -295.417       -3.998      -24.015       87.052      115.172       48.190     7578.134    13264.560     2322.282        5.551        1.158      295.444       38.407        0.017      350.393       31.521      862.229
08/01/2014  13:59:00     -296.944     -107.257       -4.168      105.933       69.708       50.762    11221.784     4859.272     2576.785        5.917        0.933      315.721       57.601        0.033      350.390       31.515      862.224
08/01/2014  14:00:00     -231.287      -57.376        1.814      124.056       74.002       49.238    15389.962     5476.232     2424.336        4.004        1.165      238.298       56.477        0.056      350.470       31.656      862.228
08/01/2014  14:01:00     -227.305       11.212       -7.444       58.434       72.404       30.043     3414.539     5242.328      902.563        3.070        0.478      227.582       25.794        0.013      350.274       31.315      862.221
08/01/2014  14:02:00     -143.801      -63.469       -4.491       67.060       63.574       37.361     4497.022     4041.662     1395.859        1.733        0.497      157.185       26.406        0.028      350.486       31.684      862.198
08/01/2014  14:03:00     -106.227      -11.033       -5.611       72.640       59.085       32.824     5276.603     3490.999     1077.400        1.064        0.492      106.798       27.513        0.066      350.470       31.657      862.190
08/01/2014  14:04:00     -153.459      117.179      -14.128       99.825       64.767       42.395     9964.937     4194.753     1797.347        2.672        0.798      193.082       55.468        0.083      350.506       31.718      862.171
08/01/2014  14:05:00     -144.155       97.783      -12.289       84.938       96.252       52.438     7214.447     9264.388     2749.755        2.486        0.961      174.190       48.453        0.077      350.451       31.622      862.153
08/01/2014  14:06:00     -161.890      216.563      -15.631       98.727       86.026       59.083     9746.947     7400.523     3490.797        4.699        1.032      270.385       55.443        0.042      350.535       31.768      862.151
08/01/2014  14:07:00     -141.244       78.902      -19.420       80.546       96.272       44.899     6487.579     9268.278     2015.945        2.216        0.889      161.788       38.466        0.057      350.669       32.003      862.143
08/01/2014  14:08:00     -130.495      207.864      -25.270       76.440       69.448       49.484     5843.146     4823.078     2448.645        3.699        0.656      245.431       48.777        0.039      350.486       31.683      862.147
08/01/2014  14:09:00     -117.562      183.316      -18.649       59.290       58.261       43.314     3515.310     3394.302     1876.063        2.828        0.439      217.774       38.951        0.032      350.483       31.679      862.141
08/01/2014  14:10:00     -107.865      155.763      -14.829       52.861       57.361       36.291     2794.273     3290.297     1317.026        2.176        0.370      189.465       39.491        0.043      350.459       31.637      862.144
08/01/2014  14:11:00     -157.173      178.450      -42.442       48.442       69.689       34.791     2346.641     4856.597     1210.448        3.338        0.421      237.797       27.601        0.013      350.417       31.561      862.129
08/01/2014  14:12:00     -122.361      152.088      -32.227       44.563       48.912       26.117     1985.843     2392.417      682.076        2.210        0.253      195.200       20.555        0.011      350.398       31.530      862.132
08/01/2014  14:13:00      -67.597      109.100       -1.663       37.882       50.561       30.352     1435.030     2556.420      921.260        1.069        0.246      128.344       24.770        0.037      350.672       32.010      862.118
08/01/2014  14:14:00      -37.917      131.209      -16.153       42.842       49.366       35.979     1835.431     2436.953     1294.512        1.224        0.278      136.577       15.607        0.013      350.599       31.882      862.093
08/01/2014  14:15:00      -35.261      114.855       12.868       59.747       66.172       42.860     3569.651     4378.783     1836.990        1.219        0.489      120.146       44.794        0.139      350.820       32.267      862.068
08/01/2014  14:16:00      -51.185      180.079      -20.812       42.683       40.801       24.542     1821.810     1664.751      602.299        1.978        0.204      187.212       19.460        0.011      350.475       31.666      862.048
08/01/2014  14:17:00       31.020      117.099       -9.213       41.485       60.870       35.955     1720.968     3705.169     1292.753        1.074        0.336      121.138       40.591        0.112      350.873       32.360      862.021
08/01/2014  14:18:00      192.339       76.309        7.362       68.860       60.624       52.297     4741.648     3675.297     2734.932        2.701        0.558      206.923       37.602        0.033      350.669       32.000      862.008
08/01/2014  14:19:00       59.579       33.082       -0.991       59.036       50.064       19.436     3485.301     2506.424      377.758        0.551        0.318       68.148        5.539        0.007      350.693       32.047      862.007
08/01/2014  14:20:00      -75.967      -87.548       -3.288       83.720       83.685       39.734     7009.023     7003.227     1578.773        1.452        0.780      115.912       37.621        0.105      350.839       32.299      862.009
08/01/2014  14:21:00      -77.867      -85.534       -4.642       80.003       63.291       26.767     6400.448     4005.691      716.486        1.226        0.556      115.669       22.202        0.037      350.615       31.910      862.014
08/01/2014  14:22:00      -58.010      -39.339       -0.623       86.320       54.185       28.951     7451.176     2936.012      838.139        0.807        0.561       70.091       29.405        0.176      350.896       32.398      862.014
08/01/2014  14:23:00     -139.661     -182.851       13.840      164.970      119.422       58.774    27215.136    14261.666     3454.430        4.902        2.247      230.086       78.886        0.118      350.684       32.026      862.020
08/01/2014  14:24:00     -200.923     -111.957        8.779      108.219       86.157       45.800    11711.258     7422.959     2097.626        3.710        1.062      230.010       48.094        0.044      350.516       31.735      862.009
08/01/2014  14:25:00      -65.017      -76.046       12.953       98.840       76.174       42.676     9769.439     5802.463     1821.246        1.378        0.870      100.051       53.769        0.289      350.707       32.070      862.041
08/01/2014  14:26:00     -141.300     -178.552      -17.623       69.389       70.010       42.088     4814.796     4901.365     1771.397        3.182        0.574      227.698       30.828        0.018      350.463       31.644      862.067
08/01/2014  14:27:00      -59.998     -128.459      -15.816       62.376       57.945       29.047     3890.707     3357.605      843.729        1.422        0.405      141.780       21.446        0.023      350.352       31.453      862.073
08/01/2014  14:28:00      -63.405      -33.067       -5.277       46.953       45.161       27.128     2204.570     2039.529      735.949        0.506        0.249       71.510       27.076        0.143      350.465       31.649      862.041
08/01/2014  14:29:00       64.767       23.106       21.258       36.163       26.407       26.232     1307.759      697.352      688.130        0.394        0.135       68.765       23.666        0.118      350.374       31.492      862.015
08/01/2014  14:30:00        9.213       19.497       36.231       21.698       40.077       23.392      470.819     1606.185      547.190        0.220        0.131       21.564       20.506        0.904      350.533       31.768      862.000
08/01/2014  14:31:00       35.026       21.142       42.586       46.561       52.625       38.578     2167.920     2769.361     1488.253        0.496        0.321       40.912       37.861        0.856      350.364       31.474      861.978
08/01/2014  14:32:00       18.990       -7.612       20.643       43.295       24.732       23.256     1874.486      611.683      540.854        0.194        0.151       20.459       28.825        1.985      350.484       31.683      861.961
08/01/2014  14:33:00       20.830       19.385       28.951       38.192       20.655       18.998     1458.627      426.625      360.926        0.195        0.112       28.455       14.136        0.247      350.418       31.567      861.955
08/01/2014  14:34:00       23.636       20.788       29.180       25.919       29.118       29.833      671.774      847.831      890.018        0.213        0.120       31.477       21.492        0.466      350.345       31.440      861.942
08/01/2014  14:35:00       15.748      -16.822       24.256       28.735       54.230       27.528      825.695     2940.851      757.802        0.282        0.226       23.043       31.673        1.889      350.908       32.420      861.922
08/01/2014  14:36:00       23.900      -44.828       18.547       29.404       35.876       21.554      864.587     1287.106      464.569        0.277        0.131       50.801       20.671        0.166      350.440       31.607      861.909
08/01/2014  14:37:00        2.250        2.077        6.420       30.456       26.614       19.499      927.589      708.286      380.206        0.103        0.101        3.062       10.722       12.261      350.820       32.266      861.904
08/01/2014  14:38:00      110.308       71.000       12.307       60.877       41.030       35.933     3706.069     1683.451     1291.182        1.202        0.334      131.183       22.698        0.030      350.717       32.088      861.900
08/01/2014  14:39:00      141.810       79.885        7.891       69.145       50.745       44.493     4781.015     2575.036     1979.645        1.794        0.467      162.762       21.412        0.017      350.686       32.033      861.889
08/01/2014  14:40:00       32.113       99.672       -1.846       38.072       60.097       40.465     1449.453     3611.642     1637.385        0.883        0.335      104.718       37.503        0.128      350.841       32.305      861.881
08/01/2014  14:41:00       10.957      103.228       -8.035       27.297       47.138       26.783      745.122     2221.980      717.352        0.726        0.184      103.808       30.678        0.087      350.857       32.332      861.889
08/01/2014  14:42:00       34.538       61.922       16.710       51.287       38.779       30.129     2630.367     1503.806      907.757        0.517        0.252       70.903       15.205        0.046      351.093       32.742      861.896
08/01/2014  14:43:00      145.055       99.186       18.233       58.248       31.090       40.814     3392.831      966.575     1665.800        1.862        0.301      175.724       26.943        0.024      350.829       32.283      861.888
08/01/2014  14:44:00       41.604       19.899        1.587       60.686       91.645       33.366     3682.808     8398.776     1113.294        0.766        0.660       46.118       23.382        0.257      351.091       32.739      861.865
08/01/2014  14:45:00      -18.107      -39.417       14.217       28.640       57.575       23.658      820.250     3314.872      559.720        0.339        0.235       43.377       24.082        0.308      351.177       32.891      861.853
08/01/2014  14:46:00       28.929      -52.341       17.368       35.504       36.931       27.138     1260.510     1363.903      736.494        0.362        0.168       59.804       17.523        0.086      350.943       32.482      861.851
08/01/2014  14:47:00       46.372      -28.866       22.936       43.361       47.482       37.305     1880.183     2254.579     1391.651        0.452        0.276       54.623       38.039        0.485      351.091       32.740      861.824
08/01/2014  14:48:00       15.862      -19.752       21.435       66.049       32.213       25.998     4362.462     1037.693      675.901        0.359        0.304       25.332       20.619        0.662      351.333       33.162      861.795
08/01/2014  14:49:00       20.726      -38.703       13.862       50.137       64.536       37.502     2513.727     4164.856     1406.390        0.510        0.404       43.903       44.026        1.006      351.369       33.224      861.774
08/01/2014  14:50:00      -24.168      -60.408       -1.391       41.110       58.358       37.904     1690.049     3405.600     1436.683        0.538        0.327       65.063       25.304        0.151      351.304       33.112      861.750
08/01/2014  14:51:00       87.737     -139.182        2.456       96.921      116.397       66.200     9393.745    13548.347     4382.505        2.719        1.366      164.528       86.256        0.275      350.810       32.246      861.744
08/01/2014  14:52:00      -14.048      -46.905       19.662       37.820       60.995       39.794     1430.317     3720.443     1583.566        0.476        0.337       48.964       37.519        0.587      351.244       33.006      861.738
08/01/2014  14:53:00       -8.727       -9.187       24.101       43.260       39.777       28.285     1871.453     1582.182      800.014        0.250        0.213       12.671       16.732        1.744      351.542       33.528      861.720
08/01/2014  14:54:00       66.455      -36.085       19.881       55.505       56.506       35.930     3080.837     3192.943     1290.973        0.684        0.378       75.620       40.196        0.283      351.029       32.630      861.711
08/01/2014  14:55:00      -30.175      -86.199        9.458       50.493       44.913       46.179     2549.582     2017.165     2132.499        0.756        0.335       91.328       28.878        0.100      351.012       32.601      861.705
08/01/2014  14:56:00       11.361      -91.606       10.076       74.939       67.369       34.982     5615.807     4538.522     1223.722        1.000        0.569       92.308       35.327        0.146      351.135       32.816      861.728
08/01/2014  14:57:00        0.170     -156.007       -0.459       76.314       60.216       39.416     5823.797     3625.990     1553.634        1.767        0.550      156.007       27.487        0.031      350.732       32.113      861.746
08/01/2014  14:58:00      -16.745     -158.125        4.229       92.349       74.966       60.599     8528.282     5619.976     3672.222        2.156        0.891      159.009       39.517        0.062      350.664       31.996      861.762
08/01/2014  14:59:00      128.464     -215.890      -50.659      109.801      110.926       73.525    12056.273    12304.568     5405.926        4.772        1.488      251.220       62.250        0.061      350.579       31.843      861.753
08/01/2014  15:00:00       -3.235     -269.537      -16.437      161.387      113.158       64.460    26045.920    12804.717     4155.096        5.796        2.150      269.556       43.472        0.026      350.514       31.731      861.796
08/01/2014  15:01:00       16.654       45.289       48.514       77.364       63.547       56.658     5985.157     4038.214     3210.149        0.896        0.662       48.254       48.800        1.023      350.606       31.895      861.771
08/01/2014  15:02:00       15.247       -0.524        9.367       31.525       28.264       24.529      993.797      798.838      601.656        0.136        0.120       15.256       16.877        1.224      350.482       31.679      861.726
08/01/2014  15:03:00       12.804      -88.012        6.923       47.981       57.194       25.434     2302.179     3271.103      646.895        0.709        0.311       88.939       27.027        0.092      350.414       31.560      861.747
08/01/2014  15:04:00        1.482      -20.497        4.834       42.800       53.327       36.567     1831.809     2843.738     1337.140        0.323        0.301       20.550       18.319        0.795      350.533       31.768      861.724
08/01/2014  15:05:00       27.631      -72.466       30.350       62.255      118.245       54.896     3875.641    13981.827     3013.595        1.390        1.044       77.555       69.603        0.805      350.626       31.928      861.692
08/01/2014  15:06:00       72.861      -90.404      -20.190       65.113       51.204       40.911     4239.654     2621.851     1673.749        1.121        0.427      116.110       24.692        0.045      350.621       31.922      861.694
08/01/2014  15:07:00      -19.727     -151.943      -18.404       61.514       69.839       32.111     3783.930     4877.430     1031.103        1.675        0.485      153.218       17.894        0.014      350.622       31.922      861.684
08/01/2014  15:08:00       -9.595      -46.438        0.974       46.436       78.246       31.400     2156.277     6122.373      985.932        0.576        0.463       47.419       35.246        0.552      350.683       32.029      861.668
08/01/2014  15:09:00       31.105       31.855       25.800       36.090       31.213       26.575     1302.480      974.256      706.222        0.281        0.149       44.522        7.824        0.031      350.309       31.379      861.629
08/01/2014  15:10:00       72.039      -40.390      -11.749       25.775       30.004       18.179      664.328      900.263      330.488        0.443        0.095       82.589        9.534        0.013      349.890       30.649      861.596
08/01/2014  15:11:00       69.234      -54.663       -9.876       42.685       31.369       33.363     1822.021      984.043     1113.094        0.590        0.196       88.212       17.551        0.040      350.000       30.840      861.579
08/01/2014  15:12:00       19.618       14.448       41.567       36.827       46.387       34.943     1356.251     2151.780     1221.017        0.352        0.236       24.364       29.818        1.498      350.345       31.440      861.561
08/01/2014  15:13:00        5.613       28.811       46.745       24.328       33.460       28.217      591.849     1119.576      796.200        0.278        0.125       29.353       11.243        0.147      350.636       31.947      861.542
08/01/2014  15:14:00       51.995      -74.130       11.374       29.386       59.102       36.656      863.544     3493.064     1343.687        0.701        0.285       90.547       36.991        0.167      350.504       31.717      861.542
08/01/2014  15:15:00      142.105     -178.523      -31.943       63.499       53.870       28.822     4032.146     2902.000      830.688        3.042        0.388      228.176       16.981        0.006      350.659       31.983      861.530
08/01/2014  15:16:00       59.803      -42.710       18.300       66.832       83.107       57.933     4466.556     6906.790     3356.185        1.023        0.736       73.488       48.072        0.428      350.880       32.371      861.526
08/01/2014  15:17:00       66.164      -46.369       40.255       76.592      115.606       72.760     5866.305    13364.834     5294.044        1.633        1.226       80.794       79.237        0.962      350.665       31.996      861.521
08/01/2014  15:18:00       30.243      -15.271       62.193       37.921       53.891       41.752     1437.973     2904.252     1743.232        0.555        0.304       33.880       34.281        1.024      350.656       31.982      861.531
08/01/2014  15:19:00       25.082       -9.618       46.815       30.906       43.154       33.065      955.199     1862.249     1093.323        0.341        0.196       26.862       29.195        1.181      350.525       31.754      861.529
08/01/2014  15:20:00       95.249      -90.759       -6.585       85.208       89.550       61.091     7260.389     8019.189     3732.060        1.818        0.951      131.566       67.820        0.266      350.727       32.102      861.514
08/01/2014  15:21:00       49.455      -87.756       -2.213       52.979       63.166       43.190     2806.761     3989.880     1865.370        0.941        0.433      100.732       36.824        0.134      350.790       32.214      861.511
08/01/2014  15:22:00       14.754      -33.824        1.930       32.503       49.807       21.672     1056.443     2480.725      469.681        0.269        0.200       36.901       23.674        0.412      350.898       32.404      861.503
08/01/2014  15:23:00       -8.296        7.915       -3.405       31.645       38.775       19.921     1001.424     1503.475      396.843        0.152        0.145       11.466       19.651        2.937      350.871       32.357      861.504
08/01/2014  15:24:00       17.417      -71.122       10.064       69.783       57.716       36.675     4869.671     3331.092     1345.039        0.750        0.477       73.223       23.493        0.103      350.873       32.359      861.511
08/01/2014  15:25:00       27.350     -108.617        7.514       90.962       59.301       55.723     8274.002     3516.630     3105.074        1.375        0.745      112.008       41.641        0.138      350.946       32.487      861.495
08/01/2014  15:26:00      -47.236      -73.798       -7.101       32.029       30.367       18.767     1025.878      922.182      352.204        0.501        0.115       87.620        9.366        0.011      350.926       32.452      861.516
08/01/2014  15:27:00      -64.639      -20.336        4.177       46.215       44.538       22.007     2135.789     1983.647      484.304        0.461        0.230       67.763       29.448        0.189      351.107       32.768      861.514
08/01/2014  15:28:00      -48.165       -4.886        5.442       46.096       37.134       26.415     2124.796     1378.911      697.771        0.329        0.210       48.412       25.882        0.286      351.124       32.798      861.526
08/01/2014  15:29:00     -113.923      -28.100        0.728       36.072       40.337       23.540     1301.160     1627.088      554.113        0.862        0.174      117.337       21.945        0.035      351.109       32.771      861.530
08/01/2014  15:30:00      -91.335      -12.443       -6.605       44.131       34.257       22.374     1947.531     1173.534      500.576        0.608        0.181       92.179       23.914        0.067      351.223       32.969      861.519
08/01/2014  15:31:00     -166.132       32.472       -1.760      127.274       74.510       54.277    16198.729     5551.741     2945.986        2.667        1.235      169.276       59.057        0.122      351.203       32.934      861.507
08/01/2014  15:32:00     -252.866        3.098      -21.272       95.216       89.076       58.539     9066.048     7934.622     3426.830        4.241        1.021      252.885       55.639        0.048      350.803       32.235      861.493
08/01/2014  15:33:00     -334.895      -70.477       -8.895      133.274       92.292       55.860    17762.066     8517.883     3120.367        7.329        1.470      342.230       49.718        0.021      350.750       32.143      861.460
08/01/2014  15:34:00     -335.949     -130.094       -1.939      236.946      143.715      108.767    56143.480    20654.050    11830.302       10.919        4.431      360.259      133.927        0.138      350.771       32.180      861.355
08/01/2014  15:35:00     -264.203      -71.226       11.856      238.086      102.907       82.252    56684.874    10589.788     6765.318        7.451        3.702      273.635      119.515        0.191      350.868       32.350      861.400
08/01/2014  15:36:00      -42.572      251.754      -38.290      116.867      159.789       67.635    13657.914    25532.409     4574.455        5.520        2.188      255.328       71.748        0.079      350.947       32.485      861.426
08/01/2014  15:37:00      103.686      166.275        6.360      118.006      104.032       65.490    13925.323    10822.597     4288.977        3.373        1.452      195.954       61.476        0.098      350.879       32.368      861.449
08/01/2014  15:38:00      252.009      181.715       32.839      111.962       85.818       65.727    12535.388     7364.646     4320.091        6.091        1.211      310.691       28.487        0.008      350.778       32.192      861.408
08/01/2014  15:39:00      146.445      127.099        2.875      114.616       77.749       63.276    13136.894     6044.978     4003.836        3.039        1.159      193.908       48.514        0.063      350.810       32.249      861.405
08/01/2014  15:40:00       19.339      288.407      -38.574       66.889      119.627       58.847     4474.163    14310.516     3462.986        5.364        1.112      289.055       65.512        0.051      350.811       32.248      861.412
08/01/2014  15:41:00        0.065      223.371      -33.758       73.690       60.730       39.437     5430.249     3688.085     1555.308        3.085        0.534      223.371       20.825        0.009      350.860       32.333      861.412
08/01/2014  15:42:00      -70.320      212.107      -26.462       48.614       53.966       37.790     2363.283     2912.281     1428.083        2.867        0.335      223.460       35.578        0.025      350.657       31.980      861.402
08/01/2014  15:43:00      -31.394      217.248      -21.895       25.705       38.878       23.787      660.739     1511.493      565.812        2.570        0.137      219.504       16.276        0.005      350.594       31.870      861.373
08/01/2014  15:44:00      -56.323       79.156       -5.386       40.644       54.606       27.385     1651.895     2981.838      749.951        0.742        0.269       97.149       22.730        0.055      350.848       32.316      861.365
08/01/2014  15:45:00     -178.144      -21.437       -8.217       63.224       61.998       35.282     3997.225     3843.760     1244.834        2.067        0.454      179.429       37.479        0.044      350.802       32.236      861.355
08/01/2014  15:46:00     -317.431      -98.888      -22.885       66.450       77.751       49.884     4415.653     6045.250     2488.397        6.200        0.647      332.477       40.752        0.015      350.682       32.024      861.359
08/01/2014  15:47:00     -329.871     -111.687      -32.174       98.133       86.437       44.265     9630.163     7471.424     1959.413        7.069        0.953      348.266       29.162        0.007      350.617       31.908      861.361
08/01/2014  15:48:00     -166.525      -17.829       -2.784       64.239       67.392       30.923     4126.648     4541.651      956.252        1.884        0.481      167.477       30.241        0.033      350.671       32.007      861.352
08/01/2014  15:49:00      -80.176       72.563       -4.619       45.632       35.686       25.891     2082.304     1273.471      670.338        0.787        0.201      108.137       19.390        0.032      350.668       32.002      861.355
08/01/2014  15:50:00     -145.970       10.138      -13.891       52.380       50.921       25.005     2743.640     2592.969      625.259        1.378        0.298      146.322       14.094        0.009      350.604       31.891      861.350
08/01/2014  15:51:00     -125.517      -71.766      -19.538       70.905       44.440       34.611     5027.568     1974.954     1197.939        1.474        0.410      144.585       33.654        0.054      350.601       31.885      861.343
08/01/2014  15:52:00      -92.108      -61.408        3.539       87.912       54.005       40.847     7728.491     2916.491     1668.471        1.229        0.616      110.701       44.739        0.163      350.703       32.064      861.323
08/01/2014  15:53:00      -54.010     -114.605       11.279       60.860       59.938       46.419     3703.996     3592.616     2154.726        1.281        0.473      126.694       47.525        0.141      350.666       31.997      861.332
08/01/2014  15:54:00      -20.019     -121.987       -0.974       27.839       29.470       18.731      775.023      868.460      350.854        0.864        0.100      123.619       14.965        0.015      350.643       31.957      861.307
08/01/2014  15:55:00      -93.739      -44.814      -15.136       34.708       34.734       21.874     1204.680     1206.426      478.451        0.696        0.144      103.900       13.087        0.016      350.647       31.965      861.295
08/01/2014  15:56:00     -105.855        3.275      -20.398       66.757       21.485       25.973     4456.537      461.611      674.572        0.861        0.280      105.906       31.796        0.090      350.620       31.918      861.282
08/01/2014  15:57:00      -25.785      -84.018       -1.046       51.745       50.217       33.417     2677.559     2521.741     1116.683        0.702        0.316       87.886       31.328        0.127      350.667       32.002      861.249
08/01/2014  15:58:00       38.784        1.048       15.190       45.363       45.099       31.279     2057.757     2033.932      978.391        0.340        0.254       38.798       21.675        0.312      350.476       31.670      861.240
08/01/2014  15:59:00       63.360       55.549       21.569       35.093       27.299       23.586     1231.513      745.219      556.291        0.505        0.127       84.263        5.187        0.004      350.369       31.482      861.224
08/01/2014  16:00:00       88.966       59.835       11.667       49.543       32.967       30.546     2454.479     1086.840      933.035        0.805        0.224      107.216       18.152        0.029      350.610       31.901      861.213
08/01/2014  16:01:00       60.986       54.663       13.052       40.355       33.239       38.184     1628.542     1104.850     1458.004        0.553        0.210       81.898       25.685        0.098      350.748       32.141      861.214
08/01/2014  16:02:00      127.561       91.287        8.762       47.594       61.541       37.846     2265.198     3787.307     1432.337        1.608        0.374      156.860       29.518        0.035      350.729       32.107      861.208
08/01/2014  16:03:00       11.561       95.102      -12.214       19.829       35.097       14.612      393.199     1231.775      213.523        0.558        0.092       95.802       15.573        0.026      350.732       32.110      861.210
08/01/2014  16:04:00        5.728       90.434       -7.579       20.787       38.723       19.135      432.110     1499.474      366.158        0.528        0.115       90.616       20.187        0.050      350.816       32.259      861.206
08/01/2014  16:05:00       18.595      123.225      -12.747       35.854       51.051       27.538     1285.535     2606.256      758.331        1.017        0.233      124.620       30.912        0.062      350.807       32.245      861.204
08/01/2014  16:06:00       27.551      122.368       -5.272       39.972       74.010       36.080     1597.785     5477.542     1301.793        1.207        0.419      125.431       38.039        0.092      350.781       32.198      861.204
08/01/2014  16:07:00       27.449      100.277       -2.831       41.495       67.317       43.593     1721.832     4531.570     1900.366        0.948        0.408      103.966       41.222        0.157      350.749       32.142      861.215
08/01/2014  16:08:00       58.998       78.514       -7.492       62.295       53.283       33.044     3880.677     2839.028     1091.874        0.875        0.391       98.210       31.874        0.105      350.703       32.064      861.204
08/01/2014  16:09:00       78.972       66.514        6.414       66.850       39.871       41.582     4468.927     1589.696     1729.046        0.924        0.389      103.251       22.427        0.047      350.710       32.075      861.191
08/01/2014  16:10:00       83.189       80.019        9.066       56.829       39.739       45.116     3229.487     1579.160     2035.473        1.012        0.342      115.427       34.417        0.089      350.700       32.058      861.173
08/01/2014  16:11:00      116.228       81.795       18.092       72.981       47.694       42.356     5326.281     2274.724     1794.004        1.496        0.470      142.124       11.297        0.006      350.685       32.032      861.168
08/01/2014  16:12:00      136.788       88.357       20.927       51.383       45.821       31.167     2640.223     2099.539      971.374        1.633        0.286      162.843       18.099        0.012      350.671       32.008      861.162
08/01/2014  16:13:00       91.036       89.786       29.390       45.742       33.954       35.391     2092.373     1152.876     1252.528        1.085        0.225      127.864       10.601        0.007      350.672       32.008      861.151
08/01/2014  16:14:00      113.380       67.864       14.292       43.342       38.802       29.961     1878.535     1505.612      897.638        1.097        0.214      132.138       10.608        0.006      350.391       31.521      861.142
08/01/2014  16:15:00       82.257       90.930       -1.496       51.975       33.666       27.402     2701.435     1133.431      750.887        0.981        0.229      122.615       13.926        0.013      350.652       31.974      861.135
08/01/2014  16:16:00       32.792       32.767       13.416       25.645       23.078       23.107      657.691      532.577      533.938        0.203        0.086       46.357       12.378        0.071      350.722       32.097      861.134
08/01/2014  16:17:00       46.178       28.332       21.487       50.708       24.879       24.996     2571.348      618.956      624.804        0.361        0.191       54.177       17.318        0.102      349.883       30.639      861.109
08/01/2014  16:18:00      -57.384       -0.673       -1.721       27.716       29.312       19.993      768.162      859.195      399.723        0.266        0.101       57.388       13.274        0.053      350.047       30.924      861.094
08/01/2014  16:19:00      -78.294      -12.344       -5.100       29.965       17.143       14.546      897.879      293.885      211.593        0.386        0.070       79.261        7.097        0.008      350.490       31.695      861.087
08/01/2014  16:20:00      -42.084      -11.575        5.649       36.765       33.562       29.913     1351.665     1126.428      894.810        0.265        0.169       43.647       21.925        0.252      350.718       32.090      861.084
08/01/2014  16:21:00     -113.617      -61.491        2.246       51.714       51.854       28.145     2674.303     2688.867      792.122        1.142        0.308      129.190       20.382        0.025      350.802       32.235      861.059
08/01/2014  16:22:00      -98.075      -16.766       10.577       64.073       71.881       40.160     4105.376     5166.826     1612.811        1.045        0.544       99.498       39.847        0.160      350.838       32.298      861.042
08/01/2014  16:23:00      -31.755       14.756       12.230       60.777       45.594       28.413     3693.898     2078.770      807.285        0.398        0.329       35.016       25.857        0.545      350.890       32.390      861.032
08/01/2014  16:24:00      -51.841      -49.638       14.346       94.047       56.832       39.712     8844.879     3229.864     1577.076        0.950        0.683       71.773       53.605        0.558      350.836       32.295      861.020
08/01/2014  16:25:00      -52.324       50.778        3.104       52.153       38.325       36.343     2719.907     1468.813     1320.779        0.542        0.275       72.912       24.760        0.115      350.907       32.419      861.017
08/01/2014  16:26:00      -35.183      119.541      -12.069       41.012       78.115       25.495     1681.973     6101.893      649.973        1.205        0.422      124.611       25.022        0.040      350.796       32.224      861.013
08/01/2014  16:27:00     -157.959      154.282      -30.010       61.340       80.408       36.481     3762.552     6465.482     1330.892        3.060        0.578      220.803       46.513        0.044      350.792       32.216      861.009
08/01/2014  16:28:00     -138.010      111.586      -27.352       37.746       41.474       29.367     1424.764     1720.098      862.441        1.813        0.200      177.477       24.136        0.018      350.698       32.055      861.012
08/01/2014  16:29:00     -150.742       69.404      -27.201       73.424       57.322       27.127     5391.041     3285.765      735.856        1.884        0.471      165.952       34.632        0.044      350.756       32.154      860.989
08/01/2014  16:30:00       -6.751      133.896       -7.636       28.173       45.192       29.135      793.700     2042.347      848.858        1.086        0.184      134.066       23.101        0.030      350.818       32.264      860.985
08/01/2014  16:31:00      -40.167      136.938      -12.765       37.159       35.177       26.021     1380.783     1237.438      677.069        1.191        0.165      142.707       19.201        0.018      350.819       32.268      860.986
08/01/2014  16:32:00      -61.166      168.749      -13.838       45.819       55.569       33.571     2099.413     3087.929     1127.045        1.936        0.316      179.492       30.945        0.030      350.751       32.146      860.994
08/01/2014  16:33:00      -67.843      155.216       -9.586       47.534       67.653       31.141     2259.479     4576.861      969.745        1.829        0.390      169.395       28.600        0.029      350.736       32.121      860.989
08/01/2014  16:34:00      -43.683       18.079        3.334       41.070       58.547       27.358     1686.781     3427.763      748.462        0.405        0.293       47.276       28.469        0.363      350.875       32.363      860.978
08/01/2014  16:35:00      -37.340       77.557       -8.930       41.165       38.049       30.006     1694.592     1447.763      900.355        0.577        0.202       86.077       21.543        0.063      350.885       32.379      860.970
08/01/2014  16:36:00      -24.740       56.122        4.243       47.282       65.835       38.030     2235.572     4334.213     1446.255        0.590        0.401       61.333       30.704        0.251      351.116       32.784      860.955
08/01/2014  16:37:00      -66.109      -28.554       18.580       77.405       60.624       33.884     5991.586     3675.310     1148.153        0.817        0.541       72.012       42.606        0.350      351.129       32.804      860.940
08/01/2014  16:38:00       13.762       -5.305       12.867       31.240       28.327       24.917      975.922      802.445      620.861        0.139        0.120       14.750       16.507        1.252      351.231       32.985      860.934
08/01/2014  16:39:00     -152.051       27.413       -5.732      130.057       43.239       43.868    16914.729     1869.634     1924.417        2.230        1.035      154.502       59.342        0.148      351.163       32.862      860.929
08/01/2014  16:40:00     -279.381      -18.883      -31.533       73.274       45.898       34.178     5369.137     2106.594     1168.105        4.402        0.432      280.019       37.295        0.018      351.089       32.731      860.934
08/01/2014  16:41:00      -85.386      -25.577      -15.024       85.578       33.396       29.090     7323.669     1115.263      846.238        0.873        0.464       89.134       44.332        0.247      350.978       32.542      860.950
08/01/2014  16:42:00      -73.091      -34.003       15.341       64.928       45.495       31.717     4215.676     2069.835     1005.962        0.701        0.365       80.613       39.041        0.235      351.068       32.699      860.932
08/01/2014  16:43:00        3.409       11.494       25.835       43.313       24.890       24.563     1876.050      619.527      603.327        0.195        0.155       11.989       23.824        3.949      351.001       32.583      860.922
08/01/2014  16:44:00       28.290       20.443        9.884       37.461       22.170       14.144     1403.289      491.501      200.058        0.170        0.105       34.903        8.752        0.063      350.772       32.184      860.918
08/01/2014  16:45:00      -89.012       61.615      -24.132       47.625       48.428       24.042     2268.111     2345.297      578.034        0.875        0.260      108.256       29.909        0.076      351.095       32.748      860.916
08/01/2014  16:46:00      -21.323      178.902      -10.379       59.163      115.352       41.140     3500.254    13306.155     1692.491        2.553        0.925      180.169       53.083        0.087      351.077       32.713      860.930
08/01/2014  16:47:00      -83.761      186.688      -25.974       74.354      162.182       41.237     5528.498    26302.911     1700.472        3.803        1.677      204.617       44.399        0.047      351.148       32.839      860.882
08/01/2014  16:48:00     -166.713      148.392      -31.948       65.164       76.367       35.239     4246.411     5831.864     1241.794        3.107        0.566      223.189       22.393        0.010      351.070       32.698      860.868
08/01/2014  16:49:00     -123.254      164.423      -28.189       59.820       49.566       35.988     3578.420     2456.788     1295.101        2.517        0.367      205.491       33.064        0.026      351.325       33.143      860.856
08/01/2014  16:50:00     -101.067      180.156      -31.217       71.728       97.380       53.439     5144.856     9482.924     2855.762        3.056        0.874      206.569       42.507        0.042      351.246       33.007      860.864
08/01/2014  16:51:00     -143.319      221.551      -27.101      106.303      116.356       58.964    11300.267    13538.731     3476.698        4.933        1.416      263.866       72.026        0.075      351.238       32.991      860.831
08/01/2014  16:52:00      -48.538      301.942      -29.889       67.003      167.935       59.538     4489.406    28202.174     3544.793        6.532        1.812      305.818       84.112        0.076      351.361       33.207      860.848
08/01/2014  16:53:00      -47.096      288.809      -24.479       71.867       88.331       54.220     5164.799     7802.435     2939.833        5.106        0.795      292.624       48.119        0.027      351.284       33.072      860.876
08/01/2014  16:54:00      -53.635      236.814      -34.336       50.423       98.699       40.411     2542.442     9741.541     1633.015        3.702        0.696      242.811       52.648        0.047      351.148       32.835      860.883
08/01/2014  16:55:00        1.872      164.337      -22.074       29.778       64.249       30.135      886.756     4127.887      908.131        1.671        0.296      164.348       32.587        0.039      351.108       32.769      860.862
08/01/2014  16:56:00       24.680       92.870       15.873       60.710       84.769       43.844     3685.705     7185.861     1922.333        1.114        0.640       96.093       42.671        0.197      351.311       33.122      860.843
08/01/2014  16:57:00       63.441      156.846      -17.650       89.530       88.512       52.256     8015.638     7834.398     2730.676        2.376        0.929      169.191       55.158        0.106      351.351       33.191      860.834
08/01/2014  16:58:00      161.754      172.819        9.243      100.994       75.726       70.391    10199.741     5734.382     4954.958        3.850        1.044      236.708       40.088        0.029      351.233       32.983      860.829
08/01/2014  16:59:00       97.354      181.162        7.433      104.642      116.968       78.094    10949.978    13681.410     6098.661        3.654        1.537      205.664       65.602        0.102      351.149       32.836      860.820
08/01/2014  17:00:00        9.840      261.243      -17.729      112.026      123.700       70.283    12549.836    15301.611     4939.740        5.072        1.640      261.428       72.208        0.076      351.191       32.911      860.829
08/01/2014  17:01:00       -7.500      163.682       -9.172       68.439      107.421       47.995     4683.882    11539.320     2303.517        2.273        0.926      163.854       56.728        0.120      351.338       33.168      860.846
08/01/2014  17:02:00      -77.656      194.748      -28.247       84.214      100.790       54.219     7092.044    10158.692     2939.747        3.247        1.010      209.660       55.357        0.070      351.197       32.922      860.849
08/01/2014  17:03:00        3.602      135.916       10.941       73.155       83.357       49.406     5351.668     6948.385     2440.972        1.667        0.737      135.963       50.493        0.138      351.377       33.239      860.858
08/01/2014  17:04:00      -16.947      243.213      -29.202       60.646      109.242       49.319     3677.911    11933.894     2432.316        3.916        0.902      243.803       54.102        0.049      351.029       32.628      860.836
08/01/2014  17:05:00       38.113      195.225      -22.992       73.925      114.377       55.013     5464.894    13082.056     3026.421        3.083        1.079      198.910       55.308        0.077      351.099       32.750      860.822
08/01/2014  17:06:00       46.878      288.987      -31.661       88.392      163.521       77.337     7813.179    26739.256     5980.976        6.362        2.027      292.765       82.491        0.079      351.177       32.886      860.803
08/01/2014  17:07:00       53.743      217.951      -26.759       61.832       85.940       53.570     3823.216     7385.737     2869.746        3.259        0.704      224.479       46.028        0.042      351.034       32.637      860.801
08/01/2014  17:08:00       19.332      111.106      -19.175       47.243      102.775       38.714     2231.929    10562.629     1498.757        1.369        0.715      112.775       44.158        0.153      351.228       32.977      860.784
08/01/2014  17:09:00      -80.465      237.994      -25.196       69.872       69.802       30.858     4882.113     4872.278      952.198        3.723        0.535      251.229       25.950        0.011      351.042       32.649      860.802
08/01/2014  17:10:00      -99.509      147.058      -27.378       46.969       57.296       35.565     2206.115     3282.822     1264.878        1.951        0.338      177.561       31.145        0.031      351.248       33.010      860.812
08/01/2014  17:11:00     -180.830        6.343      -14.021       87.563       95.242       36.000     7667.361     9071.129     1295.972        2.548        0.902      180.941       29.947        0.027      351.497       33.445      860.810
08/01/2014  17:12:00     -342.950       58.841      -42.004      104.190       78.415       42.171    10855.596     6148.838     1778.422        7.081        0.939      347.962       47.530        0.019      351.274       33.055      860.824
08/01/2014  17:13:00     -245.192        2.398      -31.189       92.820       94.121       43.106     8615.473     8858.698     1858.151        4.021        0.967      245.204       40.471        0.027      351.409       33.291      860.827
08/01/2014  17:14:00     -146.430       36.437      -21.547       76.662       76.023       41.115     5877.049     5779.552     1690.437        1.829        0.667      150.896       42.763        0.080      351.430       33.330      860.839
08/01/2014  17:15:00     -203.303      -38.121      -29.225      133.332      139.364       43.913    17777.539    19422.187     1928.383        4.138        1.956      206.846       42.808        0.043      351.261       33.033      860.832
08/01/2014  17:16:00     -369.391      -44.714      -36.467      105.968       91.916       49.923    11229.295     8448.463     2492.271        8.097        1.109      372.087       47.131        0.016      351.196       32.918      860.824
08/01/2014  17:17:00     -275.649      -55.596      -38.777       56.838       59.818       33.252     3230.569     3578.235     1105.663        4.424        0.396      281.200       33.541        0.014      351.147       32.831      860.819
08/01/2014  17:18:00      -69.677        9.437        7.214       89.895      133.043       45.948     8081.098    17700.497     2111.242        1.644        1.395       70.313       56.409        0.644      351.225       32.972      860.796
08/01/2014  17:19:00      -75.100      107.848       -7.648       41.197       79.233       31.000     1697.233     6277.789      961.014        1.313        0.447      131.420       14.321        0.012      351.290       33.086      860.784
08/01/2014  17:20:00     -143.568       31.375      -24.441       50.038       76.565       30.475     2503.834     5862.272      928.701        1.574        0.465      146.956       28.041        0.036      351.411       33.295      860.767
08/01/2014  17:21:00     -251.766       32.609      -11.988      123.197       79.602       49.571    15177.411     6336.544     2457.248        4.428        1.199      253.869       53.491        0.044      351.520       33.485      860.737
08/01/2014  17:22:00     -239.491     -179.534        2.510      138.261      140.169       70.251    19116.053    19647.444     4935.230        6.664        2.185      299.313       80.547        0.072      351.418       33.307      860.758
08/01/2014  17:23:00     -246.933     -113.313      -12.789       71.167       57.344       39.772     5064.773     3288.291     1581.835        4.195        0.497      271.690       38.267        0.020      351.033       32.633      860.779
08/01/2014  17:24:00     -317.190      -75.790        0.339      133.341       93.063       55.386    17779.950     8660.680     3067.586        6.792        1.475      326.118       47.243        0.021      351.155       32.847      860.735
08/01/2014  17:25:00      -85.292      -54.268       22.539      121.085       95.660       45.295    14661.620     9150.926     2051.596        1.829        1.293      101.093       63.027        0.389      351.205       32.936      860.730
08/01/2014  17:26:00     -105.155     -148.634       -2.061       81.970       93.944       41.959     6719.012     8825.568     1760.570        2.523        0.865      182.071       37.548        0.043      351.248       33.012      860.716
08/01/2014  17:27:00     -115.313     -118.933       11.348       97.985       88.315       34.295     9601.063     7799.555     1176.129        2.307        0.929      165.657       40.352        0.059      351.268       33.045      860.692
08/01/2014  17:28:00     -127.229      -97.566        2.369       93.764       88.818       52.782     8791.770     7888.716     2785.905        2.259        0.973      160.332       53.581        0.112      351.242       33.000      860.698
08/01/2014  17:29:00     -172.155     -115.288       -3.803       92.707       70.194       46.418     8594.613     4927.249     2154.627        2.931        0.784      207.193       53.116        0.066      351.297       33.095      860.711
08/01/2014  17:30:00     -356.292       -2.656      -16.002      237.002      171.407       62.596    56170.168    29380.381     3918.279       10.832        4.473      356.301       72.699        0.042      351.423       33.316      860.728
08/01/2014  17:31:00     -413.579     -135.551      -25.139      147.524      104.136       62.613    21763.300    10844.341     3920.392       11.328        1.826      435.226       65.866        0.023      351.102       32.753      860.724
08/01/2014  17:32:00     -162.802       95.208       -9.102      119.456       82.243       54.542    14269.625     6763.936     2974.855        2.983        1.200      188.597       65.737        0.121      351.261       33.033      860.698
08/01/2014  17:33:00     -212.520      -20.690       -1.265      195.112      191.579       73.531    38068.575    36702.478     5406.801        6.287        4.009      213.524       57.215        0.072      351.362       33.211      860.689
08/01/2014  17:34:00     -326.486     -116.152      -15.976      234.771      195.701       90.891    55117.204    38298.991     8261.140       11.099        5.084      346.532       97.735        0.080      351.283       33.070      860.709
08/01/2014  17:35:00     -234.390      -87.487       -6.709      108.469      113.365       57.749    11765.593    12851.652     3334.936        4.529        1.398      250.185       39.258        0.025      351.404       33.281      860.756
08/01/2014  17:36:00     -335.170      -89.526      -26.294      144.952      120.550       57.119    21011.072    14532.415     3262.585        7.992        1.940      346.920       59.015        0.029      351.297       33.094      860.750
08/01/2014  17:37:00     -311.088       38.099       -9.281      166.559      114.114       63.530    27742.057    13022.102     4036.056        7.155        2.240      313.412       69.958        0.050      351.365       33.213      860.754
08/01/2014  17:38:00     -459.955     -102.320      -22.153      160.835      120.633       59.059    25867.931    14552.201     3487.966       13.320        2.195      471.199       60.640        0.017      351.114       32.775      860.739
08/01/2014  17:39:00     -442.868     -133.819       -3.766      170.844      142.129       81.252    29187.609    20200.604     6601.920       13.501        2.800      462.644       83.034        0.032      351.221       32.962      860.736
08/01/2014  17:40:00     -259.904     -107.230      -10.016      221.875      127.647       56.338    49228.705    16293.784     3173.940        7.391        3.435      281.156       79.759        0.080      351.109       32.768      860.738
08/01/2014  17:41:00     -233.184      -41.281       -1.065      122.164      107.903       57.053    14924.061    11643.019     3255.003        4.295        1.491      236.809       58.579        0.061      351.328       33.150      860.734
08/01/2014  17:42:00     -320.093       48.133      -18.454      134.590      137.768       66.106    18114.371    18980.155     4369.999        7.328        2.073      323.692       54.711        0.029      351.240       32.994      860.744
08/01/2014  17:43:00     -296.356      -13.685       -7.930      215.301      133.443       79.166    46354.531    17807.093     6267.328        7.924        3.521      296.671      104.092        0.123      351.267       33.041      860.727
08/01/2014  17:44:00     -268.633     -123.503        2.874      132.898      102.444       74.528    17661.950    10494.765     5554.408        6.056        1.686      295.663       80.762        0.075      351.192       32.913      860.719
08/01/2014  17:45:00     -297.304     -136.842       -5.318       94.902       71.082       46.559     9006.437     5052.669     2167.761        6.168        0.811      327.285       45.584        0.019      351.152       32.841      860.722
08/01/2014  17:46:00     -152.394     -131.527      -15.638       70.666       83.713       46.928     4993.730     7007.803     2202.282        2.748        0.710      201.304       32.550        0.026      351.199       32.926      860.694
08/01/2014  17:47:00     -312.880      -88.372       -1.480      181.071      118.567       57.849    32786.611    14058.064     3346.453        7.794        2.510      325.121       64.550        0.039      351.194       32.915      860.707
08/01/2014  17:48:00     -316.484      -91.646       -6.345      272.113      131.695       76.332    74045.566    17343.535     5826.558       10.289        4.861      329.486      102.080        0.096      351.148       32.837      860.746
08/01/2014  17:49:00     -394.549     -155.814      -33.703      212.981      144.120       78.231    45360.782    20770.675     6120.027       12.665        3.613      424.202       93.731        0.049      350.988       32.556      860.735
08/01/2014  17:50:00     -397.239     -120.122      -13.938      198.277      129.412       85.999    39313.632    16747.571     7395.897       11.793        3.173      415.004       93.912        0.051      350.984       32.550      860.736
08/01/2014  17:51:00     -263.489     -105.462        5.489      144.875      101.021       57.483    20988.756    10205.239     3304.271        5.753        1.725      283.812       56.277        0.039      351.065       32.690      860.695
08/01/2014  17:52:00     -369.864     -104.783       -7.818      150.004      118.665       74.231    22501.251    14081.445     5510.235        9.496        2.105      384.421       76.515        0.040      351.040       32.646      860.685
08/01/2014  17:53:00     -257.296      -67.945       -1.250      137.687      106.287       66.711    18957.678    11296.823     4450.390        5.276        1.735      266.116       63.479        0.057      351.184       32.899      860.686
08/01/2014  17:54:00     -167.207        2.779        0.622      148.979      104.276       74.145    22194.692    10873.579     5497.498        3.326        1.928      167.230       71.943        0.185      351.168       32.871      860.695
08/01/2014  17:55:00     -180.324       23.061       -3.890      171.508       96.240       61.254    29415.149     9262.170     3752.014        3.774        2.121      181.793       75.278        0.171      351.242       32.999      860.689
08/01/2014  17:56:00     -276.375     -114.280      -12.732      177.268      151.401       72.175    31424.056    22922.397     5209.298        7.457        2.978      299.070       66.332        0.049      351.185       32.898      860.678
08/01/2014  17:57:00     -423.123     -188.929      -14.969      167.607      170.880       78.418    28092.152    29199.837     6149.380       13.918        3.172      463.387       74.606        0.026      350.992       32.563      860.685
08/01/2014  17:58:00     -223.702     -180.192       12.003      167.525      144.842       84.328    28064.494    20979.289     7111.275        6.939        2.808      287.249       90.445        0.099      350.988       32.557      860.669
08/01/2014  17:59:00     -216.705      -34.419       -5.332      116.122      185.761       76.880    13484.315    34507.118     5910.503        5.103        2.695      219.422       68.781        0.098      351.105       32.760      860.693
08/01/2014  18:00:00     -335.516     -139.611      -25.953      129.841      111.541       69.747    16858.700    12441.473     4864.667        8.344        1.708      363.404       49.821        0.019      350.913       32.426      860.649
08/01/2014  18:01:00     -180.034      -74.686      -13.515      150.103       87.927       62.439    22530.798     7731.145     3898.606        3.616        1.708      194.911       56.632        0.084      351.090       32.733      860.635
08/01/2014  18:02:00     -311.032     -152.050      -29.373      118.016      115.583       63.098    13927.803    13359.347     3981.400        7.599        1.563      346.208       54.989        0.025      350.967       32.519      860.633
08/01/2014  18:03:00     -464.534     -177.756      -33.590      276.914      162.362       80.967    76681.188    26361.541     6555.649       17.904        5.480      497.383      106.053        0.045      350.947       32.483      860.642
08/01/2014  18:04:00     -317.558      -97.907        4.638      193.276      146.564       88.830    37355.735    21481.054     7890.848        8.858        3.336      332.308       95.453        0.083      350.999       32.576      860.648
08/01/2014  18:05:00     -171.068     -109.770       11.831      136.836      143.258       72.256    18724.096    20522.838     5220.894        4.295        2.223      203.257       70.481        0.120      350.974       32.533      860.658
08/01/2014  18:06:00     -306.117      -58.867      -17.630      199.275      115.852       69.821    39710.687    13421.586     4875.042        7.773        2.900      311.726       86.639        0.077      350.877       32.364      860.660
08/01/2014  18:07:00     -300.481        2.847      -13.602      178.227      110.196       70.984    31764.893    12143.051     5038.664        6.970        2.447      300.495       63.127        0.044      350.907       32.418      860.664
08/01/2014  18:08:00     -263.571      -25.096       -4.040      205.922       88.633       77.136    42403.948     7855.808     5949.929        6.315        2.810      264.763       99.058        0.140      350.887       32.382      860.657
08/01/2014  18:09:00     -222.685     -144.872       16.063      265.485      200.888      102.046    70482.235    40356.187    10413.331        9.602        6.063      265.663      113.290        0.182      350.788       32.210      860.628
08/01/2014  18:10:00     -361.237       35.435      -18.611      214.859      150.574       84.041    46164.204    22672.508     7062.842       10.398        3.795      362.971       99.456        0.075      350.819       32.264      860.624
08/01/2014  18:11:00     -345.864     -115.641      -16.802      153.224      101.372       72.346    23477.615    10276.293     5233.920        8.612        1.949      364.684       70.828        0.038      350.872       32.357      860.625
08/01/2014  18:12:00     -343.009     -118.891       -9.179      240.901      174.401       88.933    58033.411    30415.729     7909.152       11.410        4.818      363.029      111.989        0.095      350.910       32.421      860.616
08/01/2014  18:13:00     -372.636     -233.278      -10.535      202.499      154.902       82.492    41005.721    23994.743     6804.894       13.258        3.590      439.632       99.127        0.051      350.871       32.354      860.662
08/01/2014  18:14:00     -231.046     -157.323        3.612      155.406      147.444       71.317    24151.036    21739.787     5086.108        6.455        2.549      279.523       74.297        0.071      350.894       32.393      860.665
08/01/2014  18:15:00     -286.613     -188.878       10.333      171.110      124.648       80.832    29278.606    15537.180     6533.810        8.463        2.567      343.252       82.567        0.058      350.871       32.352      860.676
08/01/2014  18:16:00     -273.060     -169.409      -10.467      125.673      128.539       71.699    15793.657    16522.301     5140.706        7.041        1.873      321.343       66.990        0.043      350.850       32.316      860.646
08/01/2014  18:17:00     -396.166     -167.952      -11.269      183.102      147.569       73.773    33526.226    21776.512     5442.393       12.300        3.037      430.297       76.158        0.031      350.803       32.235      860.631
08/01/2014  18:18:00     -257.450     -142.089       15.666      168.207      131.589       83.914    28293.513    17315.545     7041.600        6.967        2.633      294.057       93.587        0.101      350.849       32.314      860.654
08/01/2014  18:19:00     -304.671     -214.675       -3.309      219.534      140.931       73.700    48195.155    19861.635     5431.668       10.619        3.674      372.706       92.199        0.061      350.778       32.192      860.639
08/01/2014  18:20:00     -164.538     -122.329       14.173      177.212      116.932       76.921    31404.072    13673.074     5916.771        4.661        2.550      205.030       88.706        0.187      350.889       32.385      860.654
08/01/2014  18:21:00     -244.118      -26.196        4.021      179.302       99.384       64.632    32149.198     9877.140     4177.303        5.324        2.310      245.520       81.344        0.110      350.868       32.349      860.658
08/01/2014  18:22:00     -206.544     -103.917       18.213      128.651      100.356       52.369    16551.070    10071.331     2742.471        4.157        1.468      231.212       61.951        0.072      350.893       32.393      860.658
08/01/2014  18:23:00     -390.053     -247.056      -19.573      192.250      147.010       75.297    36959.930    21611.798     5669.700       13.889        3.212      461.712       79.129        0.029      350.763       32.165      860.628
08/01/2014  18:24:00     -353.640     -183.619       -1.465      199.417      146.966       80.089    39767.262    21598.980     6414.253       11.327        3.389      398.468       86.119        0.047      350.763       32.166      860.659
08/01/2014  18:25:00     -313.279     -184.128      -14.408      202.111      163.083       81.746    40848.981    26596.147     6682.405       10.318        3.706      363.382       74.802        0.042      350.737       32.119      860.659
08/01/2014  18:26:00     -280.740     -273.918       -1.164      178.910      141.388       93.722    32008.858    19990.598     8783.725       10.730        3.039      392.232      108.839        0.077      350.658       31.983      860.652
08/01/2014  18:27:00     -445.056     -141.402      -37.467      166.764      140.221       77.781    27810.166    19661.921     6049.897       13.649        2.676      466.979       80.432        0.030      350.676       32.013      860.658
08/01/2014  18:28:00     -211.101      -65.617        7.086      175.627      122.265       66.868    30844.958    14948.690     4471.346        4.958        2.513      221.063       77.087        0.122      350.727       32.103      860.656
08/01/2014  18:29:00     -350.856     -132.283      -17.248      187.693      159.933       86.972    35228.698    25578.687     7564.191       10.462        3.419      374.965      101.710        0.074      350.704       32.062      860.680
08/01/2014  18:30:00     -386.016       -0.489       -1.536      188.597      148.565       98.190    35569.011    22071.519     9641.313       10.813        3.364      386.017       89.154        0.053      350.642       31.954      860.687
08/01/2014  18:31:00     -424.956     -241.247      -25.563      260.351      183.036      104.198    67782.607    33502.053    10857.233       17.577        5.607      488.659      121.628        0.062      350.574       31.834      860.683
08/01/2014  18:32:00     -257.854     -127.035       -8.144      164.057      107.400       61.366    26914.731    11534.780     3765.767        6.245        2.111      287.448       52.893        0.034      350.641       31.952      860.690
08/01/2014  18:33:00     -165.648      -85.220      -10.967      162.671      163.293       81.877    26462.005    26664.682     6703.864        4.731        2.992      186.284       73.704        0.157      350.648       31.965      860.678
08/01/2014  18:34:00     -214.938      -24.977       23.254      236.960      127.330       86.989    56149.857    16212.877     7567.094        6.363        3.996      216.385      107.980        0.249      350.634       31.940      860.701
08/01/2014  18:35:00     -560.405      -69.743      -37.874      195.600      165.702       86.378    38259.549    27457.270     7461.095       19.675        3.659      564.728       96.165        0.029      350.484       31.677      860.702
08/01/2014  18:36:00     -454.589      -47.663      -14.343      236.622      150.024       95.047    55990.161    22507.181     9033.903       14.831        4.377      457.081      117.463        0.066      350.476       31.664      860.713
08/01/2014  18:37:00     -340.641     -188.739      -18.301      181.964      191.412       98.688    33111.061    36638.687     9739.350       11.573        3.974      389.434       87.129        0.050      350.471       31.655      860.710
08/01/2014  18:38:00     -306.095      -17.209       -6.725      212.856      116.874       69.012    45307.538    13659.451     4762.712        7.887        3.186      306.578       92.450        0.091      350.563       31.816      860.728
08/01/2014  18:39:00     -506.537      -39.357      -30.567      160.170      153.252       73.877    25654.294    23486.151     5457.760       15.682        2.730      508.064       70.018        0.019      350.446       31.613      860.713
08/01/2014  18:40:00     -308.819     -126.543       -9.212      137.608      143.647       67.669    18935.901    20634.537     4579.140        7.780        2.207      333.739       79.836        0.057      350.481       31.673      860.727
08/01/2014  18:41:00     -393.735     -120.884      -27.319      217.580      138.661       78.282    47341.133    19226.777     6128.043       12.153        3.635      411.874       85.253        0.043      350.474       31.660      860.738
08/01/2014  18:42:00     -346.392     -118.157      -11.004      194.867      120.939       68.498    37973.097    14626.243     4691.978        9.567        2.865      365.989       77.381        0.045      350.484       31.678      860.711
08/01/2014  18:43:00     -339.886     -148.606       -2.978      172.521      135.335       73.603    29763.624    18315.623     5417.370        9.555        2.675      370.954       76.102        0.042      350.487       31.682      860.722
08/01/2014  18:44:00     -266.513      -85.266       -4.526      193.357      145.414       68.377    37386.739    21145.324     4675.369        7.075        3.160      279.820       90.377        0.104      350.514       31.730      860.751
08/01/2014  18:45:00      -96.547      -66.026       15.070      117.651      109.189       60.304    13841.847    11922.160     3636.560        2.165        1.470      116.964       60.129        0.264      350.554       31.802      860.757
08/01/2014  18:46:00     -487.831     -154.911      -28.508      153.502      148.431       73.935    23562.852    22031.638     5466.437       15.691        2.553      511.836       42.829        0.007      350.384       31.507      860.746
08/01/2014  18:47:00     -307.985      -99.236       22.043      238.264      193.754      104.528    56769.585    37540.656    10926.118       10.519        5.262      323.578      124.537        0.148      350.396       31.527      860.739
08/01/2014  18:48:00     -436.394      -32.601       -4.832      224.732      160.401       89.065    50504.284    25728.555     7932.584       13.783        4.208      437.610       98.115        0.050      350.371       31.484      860.762
08/01/2014  18:49:00     -243.791      -94.720        3.330      176.526      155.501       83.532    31161.299    24180.602     6977.549        6.536        3.116      261.545       92.733        0.126      350.406       31.545      860.780
08/01/2014  18:50:00     -319.332     -112.886       11.086      197.697      157.024       90.466    39084.026    24656.540     8184.153        9.337        3.596      338.698       94.772        0.078      350.370       31.481      860.795
08/01/2014  18:51:00     -436.827     -231.954       -9.289      334.748      195.269      115.183   112055.939    38129.839    13267.238       20.405        8.173      494.592      154.694        0.098      350.254       31.279      860.797
08/01/2014  18:52:00     -287.279     -138.588        8.182      219.496      140.848       85.787    48178.450    19838.282     7359.449        8.857        3.769      318.961      106.010        0.110      350.270       31.307      860.833
08/01/2014  18:53:00     -475.809     -191.213      -12.441      215.992      145.627       93.088    46652.484    21207.332     8665.321       16.980        3.826      512.793      108.602        0.045      350.265       31.299      860.825
08/01/2014  18:54:00     -482.891     -201.741      -30.988      184.650      165.849       93.635    34095.467    27505.881     8767.424       17.259        3.518      523.338      105.218        0.040      350.257       31.286      860.848
08/01/2014  18:55:00     -326.783     -153.141       -8.010      132.233      142.068       67.341    17485.628    20183.365     4534.771        8.625        2.110      360.887       65.378        0.033      350.290       31.343      860.851
08/01/2014  18:56:00     -300.770     -125.508      -13.658      177.460       88.247       58.743    31492.035     7787.486     3450.753        7.456        2.137      325.906       66.744        0.042      350.331       31.415      860.864
08/01/2014  18:57:00     -282.062      -86.989        7.062      149.243      129.102       67.885    22273.501    16667.437     4608.360        6.535        2.177      295.171       75.398        0.065      350.332       31.417      860.880
08/01/2014  18:58:00     -569.558     -102.767      -50.632      174.596      166.262       85.910    30483.746    27643.132     7380.502       20.150        3.275      578.755       86.101        0.022      350.241       31.255      860.894
08/01/2014  18:59:00     -322.159     -131.160      -23.454      151.150      118.463       73.746    22846.219    14033.545     5438.436        8.192        2.116      347.836       82.402        0.056      350.277       31.318      860.886
08/01/2014  19:00:00     -386.797     -125.184       -5.057      149.853      162.877       88.782    22455.944    26528.809     7882.261       11.108        2.843      406.550       68.426        0.028      350.249       31.271      860.863
08/01/2014  19:01:00     -462.314      -26.862      -13.170      251.805      167.669       89.531    63405.696    28112.934     8015.815       15.706        4.977      463.094      104.664        0.051      350.246       31.265      860.851
08/01/2014  19:02:00     -314.946     -198.544        4.896      240.474      185.313      110.532    57827.688    34340.899    12217.266       12.149        5.219      372.305      123.222        0.110      350.224       31.228      860.873
08/01/2014  19:03:00     -281.267     -169.875        2.282      125.949      137.328       72.007    15863.158    18859.109     5185.049        7.393        1.995      328.585       66.991        0.042      350.256       31.283      860.899
08/01/2014  19:04:00     -260.248     -162.728        5.278      175.169      135.092       94.099    30684.296    18249.715     8854.560        7.600        2.889      306.936       98.983        0.104      350.211       31.204      860.901
08/01/2014  19:05:00     -366.770      -10.030       -1.125      212.439      144.285       81.479    45130.412    20818.151     6638.871       10.359        3.629      366.907       92.662        0.064      350.237       31.250      860.903
08/01/2014  19:06:00     -417.413     -220.135      -11.167      255.969      169.658      100.615    65519.962    28783.811    10123.444       16.360        5.221      471.904      111.219        0.056      350.183       31.155      860.896
08/01/2014  19:07:00     -379.953     -143.049       -5.644      235.877      196.962       97.596    55638.138    38793.905     9524.913       13.439        5.198      405.989      118.759        0.086      350.161       31.117      860.890
08/01/2014  19:08:00     -397.918     -213.917      -21.593      165.731      139.566       78.813    27466.668    19478.556     6211.442       12.885        2.658      451.773       75.686        0.028      350.127       31.058      860.913
08/01/2014  19:09:00     -420.684     -161.419       -9.564      293.500      144.109       88.272    86142.296    20767.495     7791.953       15.889        5.735      450.590      109.095        0.059      350.133       31.068      860.929
08/01/2014  19:10:00     -372.226      -88.225        1.165      248.367      166.534       83.208    61686.241    27733.574     6923.570       12.132        4.817      382.539      105.967        0.077      350.132       31.068      860.938
08/01/2014  19:11:00     -466.864      -96.256      -17.749      178.291      159.595       89.626    31787.819    25470.573     8032.752       14.640        3.265      476.684       85.656        0.032      350.071       30.961      860.944
08/01/2014  19:12:00     -290.703     -112.899        5.883      222.132      178.043       95.304    49342.671    31699.359     9082.807        9.369        4.506      311.856      111.528        0.128      350.079       30.974      860.925
08/01/2014  19:13:00     -468.766     -116.684       -8.148      229.353      157.419       98.397    52602.663    24780.708     9681.955       16.023        4.353      483.071      118.451        0.060      350.033       30.893      860.949
08/01/2014  19:14:00     -348.672      -70.226      -14.169      213.724      140.817       73.077    45677.828    19829.508     5340.207        9.876        3.542      355.674       83.150        0.055      350.052       30.927      860.947
08/01/2014  19:15:00     -503.715     -113.227      -31.413      137.736      159.768       78.723    18971.213    25525.781     6197.310       15.910        2.535      516.284       80.870        0.025      350.019       30.870      860.970
08/01/2014  19:16:00     -381.040      -64.202        4.674      255.114      176.122       95.937    65083.066    31019.067     9203.984       12.730        5.265      386.411      106.783        0.076      350.011       30.858      860.948
08/01/2014  19:17:00     -256.019      -57.677       10.604      230.202      132.034       91.053    52992.781    17433.095     8290.662        7.383        3.936      262.435       92.033        0.123      349.999       30.836      860.967
08/01/2014  19:18:00     -226.728     -106.050       -2.544      151.651      112.602       77.241    22997.977    12679.219     5966.211        5.214        2.082      250.304       63.756        0.065      350.013       30.860      861.004
08/01/2014  19:19:00     -208.338      -59.987       10.619      142.677      116.330       70.132    20356.773    13532.782     4918.494        4.295        1.940      216.802       74.417        0.118      349.995       30.830      861.018
08/01/2014  19:20:00     -323.142     -107.445      -16.620      191.007      111.825       65.385    36483.702    12504.875     4275.158        8.474        2.663      340.536       69.203        0.041      349.939       30.733      861.006
08/01/2014  19:21:00     -494.834     -187.702      -10.588      184.856      140.470       89.250    34171.912    19731.692     7965.563       17.102        3.093      529.238       82.441        0.024      349.911       30.684      860.994
08/01/2014  19:22:00     -279.096      -68.392       -2.591      153.613      134.133       68.789    23597.053    17991.705     4731.908        6.444        2.316      287.353       76.385        0.071      349.884       30.638      861.011
08/01/2014  19:23:00     -409.548     -114.175      -24.916      253.026      181.139       86.917    64022.084    32811.412     7554.585       14.287        5.219      425.165       98.261        0.053      349.910       30.681      860.992
08/01/2014  19:24:00     -455.270     -143.618       -7.573      244.198      218.760      103.306    59632.557    47855.917    10672.053       17.303        5.908      477.386      128.064        0.072      349.867       30.608      860.999
08/01/2014  19:25:00     -267.037     -200.949        1.434      234.340      186.930      121.822    54915.405    34943.003    14840.577       10.817        5.235      334.200      127.268        0.145      349.838       30.556      860.991
08/01/2014  19:26:00     -405.402      -94.932      -10.770      195.473      140.438       78.962    38209.673    19722.731     6234.967       11.881        3.208      416.369       85.769        0.042      349.855       30.587      861.024
08/01/2014  19:27:00     -416.426     -105.474      -13.254      247.259      148.149       94.672    61136.990    21948.177     8962.840       13.836        4.602      429.576      106.429        0.061      349.825       30.533      861.032
08/01/2014  19:28:00     -248.287      -69.506        9.707      229.140      138.116       86.763    52505.060    19076.159     7527.855        7.282        3.955      257.833      104.345        0.164      349.827       30.537      861.010
08/01/2014  19:29:00     -376.674     -202.905      -10.449      204.453      158.206       89.261    41801.168    25029.278     7967.576       12.897        3.740      427.848      106.767        0.062      349.806       30.499      861.030
08/01/2014  19:30:00     -413.914      -90.759        0.501      289.936      201.086      101.896    84063.154    40435.511    10382.812       15.720        6.744      423.748      131.793        0.097      349.768       30.435      861.059
08/01/2014  19:31:00     -401.207     -277.457       -0.132      250.990      212.105      116.938    62995.914    44988.710    13674.489       17.978        6.083      487.800      134.692        0.076      349.768       30.435      861.029
08/01/2014  19:32:00     -378.070     -204.819        2.307      202.830      138.810       90.048    41139.983    19268.245     8108.610       12.669        3.426      429.986      100.240        0.054      349.760       30.422      861.066
08/01/2014  19:33:00     -263.706     -102.920       -3.279      168.609      133.614       72.650    28429.150    17852.742     5278.081        6.584        2.578      283.078       74.372        0.069      349.756       30.414      861.102
08/01/2014  19:34:00     -333.719     -275.380       -6.524      191.483      157.562       90.559    36665.841    24825.678     8200.844       12.845        3.485      432.669       99.321        0.053      349.733       30.374      861.119
08/01/2014  19:35:00     -405.638     -129.740      -21.025      208.513      187.007       89.590    43477.506    34971.458     8026.330       13.413        4.324      425.881      107.760        0.064      349.752       30.406      861.098
08/01/2014  19:36:00     -372.010     -215.806       -8.490      183.527      168.638       99.485    33682.340    28438.842     9897.264       12.851        3.601      430.074      103.249        0.058      349.708       30.331      861.116
08/01/2014  19:37:00     -302.786     -143.767       -5.294      131.150      101.425       61.085    17200.205    10286.973     3731.428        7.179        1.561      335.184       53.175        0.025      349.681       30.282      861.161
08/01/2014  19:38:00     -342.860      -81.278        2.489      169.182      170.178       86.360    28622.575    28960.606     7458.014        9.459        3.252      352.362       89.626        0.065      349.661       30.247      861.163
08/01/2014  19:39:00     -403.977      -89.848      -13.112      182.919      168.501       76.362    33459.427    28392.624     5831.087       11.955        3.384      413.848       78.831        0.036      349.649       30.229      861.166
08/01/2014  19:40:00     -383.316      -98.571      -15.778      211.488      165.429       78.754    44726.994    27366.805     6202.116       11.758        3.915      395.787       90.136        0.052      349.654       30.236      861.193
08/01/2014  19:41:00     -276.590      -83.169      -16.662      165.198      130.417       78.653    27290.532    17008.661     6186.368        6.708        2.524      288.823       71.716        0.062      349.636       30.206      861.174
08/01/2014  19:42:00     -217.676      -11.532       23.793      185.976      147.563       92.712    34586.951    21774.729     8595.557        5.651        3.248      217.981      102.466        0.221      349.611       30.164      861.183
08/01/2014  19:43:00     -317.090      -81.117       -8.728      204.475      127.958       75.792    41810.136    16373.307     5744.424        8.555        3.196      327.301       89.969        0.076      349.565       30.083      861.215
08/01/2014  19:44:00     -297.048     -158.365        9.902      208.163      164.798       89.092    43331.749    27158.381     7937.398        9.591        3.921      336.626      110.516        0.108      349.531       30.025      861.234
08/01/2014  19:45:00     -433.075     -212.013      -17.894      185.931      163.528       95.737    34570.332    26741.302     9165.503       15.164        3.524      482.186       97.346        0.041      349.514       29.996      861.240
08/01/2014  19:46:00     -383.963      -95.438       -9.896      220.005      178.758       80.052    48401.997    31954.585     6408.361       12.168        4.338      395.646       95.376        0.058      349.495       29.960      861.258
08/01/2014  19:47:00     -396.909     -139.124       -9.097      264.943      190.326      107.754    70194.951    36224.114    11610.991       14.748        5.902      420.585      129.797        0.095      349.470       29.918      861.248
08/01/2014  19:48:00     -428.030     -195.854      -26.980      273.577      172.077      102.902    74844.138    29610.629    10588.793       16.865        5.752      470.711      127.173        0.073      349.447       29.878      861.247
08/01/2014  19:49:00     -267.891     -130.487       -2.464      213.849      165.111       95.654    45731.589    27261.793     9149.595        8.545        4.107      297.981      116.847        0.154      349.426       29.841      861.258
08/01/2014  19:50:00     -629.687     -194.615      -24.994      206.172      159.543       91.818    42507.011    25453.999     8430.572       25.568        3.820      659.076       87.492        0.018      349.456       29.893      861.278
08/01/2014  19:51:00     -377.713     -148.116       -3.183      255.933      148.745       90.592    65501.745    22124.938     8206.876       13.021        4.792      405.716      112.337        0.077      349.442       29.870      861.300
08/01/2014  19:52:00     -272.650     -190.361      -18.346      218.131      171.848      100.483    47581.095    29531.874    10096.752        9.904        4.360      332.528      113.763        0.117      349.431       29.850      861.314
08/01/2014  19:53:00     -313.364     -116.247       12.272      197.561      146.770      101.515    39030.310    21541.359    10305.298        9.135        3.544      334.230      111.991        0.112      349.395       29.787      861.348
08/01/2014  19:54:00     -270.672     -158.213       -9.478      188.266      124.896       76.788    35443.940    15598.901     5896.425        7.765        2.847      313.520       75.510        0.058      349.353       29.715      861.379
08/01/2014  19:55:00     -302.179     -147.580        9.880      233.024      203.074       89.719    54300.276    41239.151     8049.584       10.837        5.179      336.292      111.268        0.109      349.343       29.699      861.390
08/01/2014  19:56:00     -451.810     -134.780      -17.178      279.445      162.222       98.352    78089.761    26316.051     9673.088       16.831        5.704      471.484      121.070        0.066      349.336       29.685      861.409
08/01/2014  19:57:00     -503.009      -26.729      -18.876      229.939      239.383       87.617    52871.740    57303.986     7676.726       18.595        5.893      503.719       87.127        0.030      349.323       29.664      861.432
08/01/2014  19:58:00     -413.273     -176.901      -15.243      137.960      106.937       65.511    19033.057    11435.517     4291.750       11.853        1.738      449.543       62.852        0.020      349.320       29.659      861.462
08/01/2014  19:59:00     -313.244      -51.701        0.940      174.387      131.279       80.448    30410.904    17234.211     6471.861        7.745        2.706      317.482       86.804        0.075      349.269       29.570      861.498
08/01/2014  20:00:00     -327.486     -102.491      -16.590      142.617      131.795       69.195    20339.563    17369.855     4788.000        8.025        2.125      343.149       64.921        0.036      349.252       29.541      861.517
08/01/2014  20:01:00     -295.467      -54.963       -6.920      151.807      112.923       66.001    23045.395    12751.692     4356.149        6.525        2.008      300.536       69.408        0.053      349.221       29.486      861.533
08/01/2014  20:02:00     -386.260      -18.704      -22.415      144.142      114.577       62.227    20776.852    13127.810     3872.173        9.391        1.889      386.713       67.312        0.030      349.240       29.521      861.546
08/01/2014  20:03:00     -322.350      -52.431       -4.066      183.084      146.514       72.907    33519.838    21466.342     5315.472        8.348        3.015      326.587       70.371        0.046      349.221       29.486      861.556
08/01/2014  20:04:00     -190.733       -4.707       11.040      163.155      132.441       68.822    26619.551    17540.491     4736.532        4.270        2.445      190.791       62.599        0.108      349.148       29.361      861.559
08/01/2014  20:05:00     -411.951      -33.125      -31.382      185.330      110.409       68.613    34347.025    12190.226     4707.713       11.151        2.562      413.281       78.090        0.036      349.172       29.402      861.567
08/01/2014  20:06:00     -265.360     -104.124       -4.908      149.394      154.056       72.678    22318.685    23733.239     5282.133        6.630        2.567      285.057       76.688        0.072      349.205       29.459      861.598
08/01/2014  20:07:00     -283.686      -28.498       -3.932      110.816       98.734       54.515    12280.105     9748.471     2971.898        5.315        1.250      285.114       53.152        0.035      349.140       29.345      861.614
08/01/2014  20:08:00     -287.995      -41.277       -9.314      163.789      123.304       74.704    26826.940    15203.835     5580.652        6.616        2.381      290.938       84.174        0.084      349.129       29.327      861.635
08/01/2014  20:09:00     -420.678       28.314      -27.532      166.684      137.833       73.387    27783.721    18998.016     5385.619       11.534        2.608      421.630       72.811        0.030      349.134       29.336      861.660
08/01/2014  20:10:00     -174.662      -14.554        9.533      124.325      115.729       74.874    15456.643    13393.221     5606.146        3.263        1.723      175.267       58.447        0.111      349.092       29.263      861.670
08/01/2014  20:11:00     -301.764      -59.068       -1.969      159.876      101.508       62.339    25560.202    10303.881     3886.176        6.714        1.988      307.491       67.034        0.048      349.085       29.250      861.701
08/01/2014  20:12:00     -359.649      -89.787      -20.943      116.023      106.842       57.833    13461.230    11415.113     3344.601        8.303        1.411      370.687       57.817        0.024      349.084       29.248      861.734
08/01/2014  20:13:00     -248.195      -44.206      -11.810       96.755       87.401       50.208     9361.536     7638.919     2520.821        4.160        0.976      252.101       48.988        0.038      349.062       29.210      861.774
08/01/2014  20:14:00     -263.357       -9.458      -16.536      119.571       91.340       49.746    14297.149     8343.033     2474.661        4.741        1.256      263.527       47.844        0.033      349.013       29.126      861.796
08/01/2014  20:15:00     -276.478      -35.652      -16.217      115.616      110.832       43.446    13367.169    12283.682     1887.588        5.275        1.377      278.767       22.674        0.007      349.019       29.135      861.796
08/01/2014  20:16:00     -334.068       55.782      -21.925       87.050      120.540       48.172     7577.688    14529.844     2320.526        6.981        1.221      338.693       36.500        0.012      349.030       29.153      861.808
08/01/2014  20:17:00     -299.075       30.287      -35.398      111.688      137.739       55.373    12474.285    18972.070     3066.150        6.306        1.726      300.605       44.312        0.022      349.021       29.140      861.809
08/01/2014  20:18:00     -221.652      -31.668      -21.579       76.470      108.123       50.290     5847.695    11690.588     2529.050        3.533        1.003      223.902       53.901        0.058      349.007       29.117      861.837
08/01/2014  20:19:00     -224.654       -0.409      -10.689      187.723       99.302       63.100    35240.039     9860.903     3981.607        4.982        2.454      224.654       80.425        0.128      348.962       29.038      861.850
08/01/2014  20:20:00     -320.095      -74.627      -23.808      167.093      123.450       73.993    27920.116    15239.955     5474.917        7.861        2.432      328.679       83.955        0.065      348.978       29.066      861.861
08/01/2014  20:21:00     -300.152       -5.955      -19.433      163.185      121.829       61.030    26629.503    14842.305     3724.647        6.784        2.260      300.212       59.698        0.040      348.936       28.992      861.898
08/01/2014  20:22:00     -258.784       75.547      -21.673      196.872       72.884       51.366    38758.396     5312.095     2638.516        5.992        2.335      269.586       69.877        0.067      348.873       28.886      861.928
08/01/2014  20:23:00     -141.875       20.726      -11.166       82.889       51.014       32.925     6870.621     2602.406     1084.050        1.562        0.528      143.381       31.783        0.049      348.803       28.763      861.953
08/01/2014  20:24:00     -149.432        2.498      -18.529      100.855       66.733       28.193    10171.803     4453.239      794.859        1.905        0.771      149.453       41.129        0.076      348.829       28.810      861.983
08/01/2014  20:25:00     -203.618      -79.142      -18.154       83.845       84.527       48.540     7030.009     7144.775     2356.110        3.229        0.827      218.458       33.152        0.023      348.869       28.878      862.008
08/01/2014  20:26:00      -74.664       28.253       -4.435       42.815       44.032       29.950     1833.150     1938.823      896.996        0.553        0.233       79.831       23.179        0.084      348.696       28.580      862.039
08/01/2014  20:27:00     -104.654      115.573      -13.874       82.332       75.283       41.874     6778.574     5667.577     1753.447        1.935        0.710      155.915       44.577        0.082      348.645       28.490      862.055
08/01/2014  20:28:00     -130.332      124.312       -7.954       89.154      134.464       44.672     7948.448    18080.670     1995.579        3.026        1.401      180.111       28.900        0.026      348.682       28.554      862.067
08/01/2014  20:29:00     -105.103       61.411       -6.989       99.366      102.753       51.098     9873.658    10558.233     2611.004        1.895        1.152      121.729       51.287        0.178      348.736       28.648      862.095
08/01/2014  20:30:00     -225.272      137.477      -24.260      160.285      116.138       62.462    25691.321    13487.939     3901.489        5.665        2.154      263.908       76.554        0.084      348.782       28.729      862.135
08/01/2014  20:31:00     -137.220      -23.550      -14.413       99.256       55.777       52.511     9851.807     3111.029     2757.369        1.765        0.786      139.227       59.981        0.186      348.701       28.588      862.141
08/01/2014  20:32:00      -84.526       76.605       -2.304       61.042       84.907       53.242     3726.170     7209.259     2834.745        1.339        0.689      114.074       30.995        0.074      348.738       28.652      862.148
08/01/2014  20:33:00     -170.445      163.712      -30.630       71.709       82.230       56.028     5142.158     6761.758     3139.096        3.591        0.752      236.332       51.761        0.048      348.848       28.842      862.157
08/01/2014  20:34:00     -130.937       99.702      -26.346       73.621       53.523       34.141     5419.983     2864.762     1165.609        1.861        0.473      164.575       27.196        0.027      348.836       28.819      862.181
08/01/2014  20:35:00     -204.070      136.548      -25.946       69.316      104.697       51.356     4804.661    10961.503     2637.423        3.968        0.920      245.540       37.117        0.023      348.876       28.889      862.211
08/01/2014  20:36:00     -173.104      104.293      -21.192      106.675       97.073       49.657    11379.520     9423.137     2465.837        3.227        1.163      202.094       38.813        0.037      348.786       28.731      862.248
08/01/2014  20:37:00     -119.574       94.756      -14.321       97.168      105.859       50.604     9441.570    11206.215     2560.798        2.334        1.160      152.566       53.197        0.122      348.724       28.626      862.258
08/01/2014  20:38:00     -164.661      213.259      -20.782       80.375      202.772       62.240     6460.063    41116.396     3873.803        6.223        2.573      269.430       65.245        0.059      348.747       28.664      862.256
08/01/2014  20:39:00     -145.769      116.233      -17.106       84.491      119.127       51.701     7138.754    14191.350     2672.970        2.952        1.200      186.437       52.927        0.081      348.727       28.631      862.262
08/01/2014  20:40:00     -137.914      128.409      -27.976       61.827       69.509       43.675     3822.624     4831.480     1907.538        2.342        0.528      188.439       34.824        0.034      348.723       28.625      862.292
08/01/2014  20:41:00     -140.773       85.422      -18.220       54.963       74.277       28.717     3020.935     5517.143      824.659        1.840        0.468      164.663       18.727        0.013      348.710       28.604      862.326
08/01/2014  20:42:00     -159.172      176.811      -26.968       73.009       72.214       49.927     5330.288     5214.894     2492.699        3.518        0.652      237.903       51.640        0.047      348.817       28.786      862.322
08/01/2014  20:43:00     -156.251      200.730      -27.888       66.378       69.335       48.029     4406.076     4807.291     2306.797        3.850        0.576      254.375       34.496        0.018      348.746       28.663      862.321
08/01/2014  20:44:00     -126.651       79.842      -22.936       47.152       52.646       31.222     2223.289     2771.572      974.803        1.445        0.298      149.717       27.266        0.033      348.764       28.698      862.327
08/01/2014  20:45:00     -116.080      139.277      -20.442       55.155       66.147       39.092     3042.077     4375.370     1528.177        2.112        0.447      181.308       33.488        0.034      348.714       28.609      862.339
08/01/2014  20:46:00     -141.478      104.657      -16.143       78.434       53.996       39.512     6151.839     2915.606     1561.232        2.093        0.531      175.980       32.032        0.033      348.711       28.607      862.345
08/01/2014  20:47:00     -160.441      153.284      -30.099       48.816       94.585       38.422     2382.978     8946.338     1476.217        3.147        0.640      221.895       37.039        0.028      348.790       28.738      862.360
08/01/2014  20:48:00     -186.903       82.314      -16.427       74.998       83.802       58.778     5624.679     7022.807     3454.891        2.904        0.805      204.226       41.495        0.041      348.758       28.685      862.400
08/01/2014  20:49:00     -108.461      131.357       -8.148       87.121       82.506       48.741     7590.105     6807.245     2375.669        2.293        0.839      170.348       41.957        0.061      348.678       28.547      862.396
08/01/2014  20:50:00     -171.835      184.541      -39.704       69.938      132.835       52.015     4891.270    17645.129     2705.605        4.520        1.262      252.156       46.687        0.034      348.728       28.632      862.389
08/01/2014  20:51:00     -130.524       49.362      -13.729       79.991       91.953       33.831     6398.622     8455.370     1144.506        1.783        0.800      139.546       34.395        0.061      348.682       28.554      862.403
08/01/2014  20:52:00     -145.306       13.325      -18.385       78.783       92.831       46.797     6206.704     8617.599     2189.975        1.932        0.851      145.915       40.772        0.078      348.672       28.538      862.435
08/01/2014  20:53:00     -130.275       51.076      -14.384       73.445       81.680       39.916     5394.163     6671.683     1593.278        1.672        0.683      139.930       48.247        0.119      348.608       28.428      862.447
08/01/2014  20:54:00     -110.573       53.795       -7.899       71.766       67.184       35.606     5150.297     4513.706     1267.789        1.306        0.547      122.964       29.884        0.059      348.548       28.324      862.450
08/01/2014  20:55:00     -207.457       52.681      -28.800       70.761       79.793       41.618     5007.071     6366.975     1732.098        2.987        0.655      214.041       38.825        0.033      348.561       28.342      862.458
08/01/2014  20:56:00     -162.700        1.448      -11.374      136.597      101.343       49.357    18658.692    10270.447     2436.075        2.898        1.568      162.707       61.202        0.141      348.476       28.197      862.470
08/01/2014  20:57:00     -161.068       43.971       -7.778       72.956       87.133       43.486     5322.542     7592.101     1891.003        2.137        0.740      166.962       35.247        0.045      348.437       28.131      862.480
08/01/2014  20:58:00     -133.523       -3.904       -3.946       81.959      100.791       44.629     6717.221    10158.884     1991.758        1.836        0.943      133.580       35.371        0.070      348.436       28.129      862.482
08/01/2014  20:59:00     -176.252      -18.167       -9.981       67.267       83.639       35.265     4524.810     6995.465     1243.651        2.213        0.638      177.186       32.551        0.034      348.391       28.051      862.480
08/01/2014  21:00:00     -297.808      -57.887      -37.635       78.512       85.787       48.357     6164.060     7359.376     2338.353        5.466        0.793      303.382       31.374        0.011      348.453       28.156      862.486
08/01/2014  21:01:00     -269.275        9.515      -22.703       70.361       75.418       43.654     4950.714     5687.949     1905.644        4.283        0.627      269.443       29.992        0.012      348.417       28.093      862.495
08/01/2014  21:02:00     -289.202      -42.688      -16.273       94.881       60.713       38.163     9002.463     3686.093     1456.412        4.993        0.707      292.336       43.822        0.022      348.388       28.043      862.498
08/01/2014  21:03:00     -211.319      -57.569       -2.627       59.019       74.948       36.004     3483.249     5617.192     1296.305        2.918        0.520      219.020       32.884        0.023      348.309       27.907      862.524
08/01/2014  21:04:00     -156.637      -51.046       -1.129       72.120       56.422       43.967     5201.325     3183.425     1933.108        1.873        0.516      164.745       42.886        0.068      348.275       27.850      862.547
08/01/2014  21:05:00     -161.421      -53.458        0.203       72.854       66.420       35.545     5307.642     4411.682     1263.449        1.995        0.549      170.043       37.768        0.049      348.244       27.798      862.558
08/01/2014  21:06:00     -153.807       -1.179       -6.031       65.940       41.282       31.427     4348.129     1704.240      987.664        1.537        0.352      153.812       27.910        0.033      348.212       27.742      862.576
08/01/2014  21:07:00     -202.591      -17.867      -21.788       61.755       49.926       32.731     3813.682     2492.654     1071.348        2.461        0.369      203.378       30.272        0.022      348.168       27.664      862.576
08/01/2014  21:08:00     -224.113      -56.102      -19.086       85.422       72.402       42.451     7296.989     5242.025     1802.099        3.404        0.717      231.028       41.269        0.032      348.169       27.666      862.605
08/01/2014  21:09:00     -227.278      -20.346      -13.978       68.618       52.032       38.153     4708.421     2707.363     1455.643        3.057        0.444      228.187       33.219        0.021      348.179       27.683      862.636
08/01/2014  21:10:00     -264.642      -80.922       -0.659      120.181       89.103       50.862    14443.494     7939.335     2586.956        5.077        1.248      276.738       47.242        0.029      348.278       27.853      862.650
08/01/2014  21:11:00     -325.905      -36.378      -11.400      117.554      105.054       46.245    13818.936    11036.436     2138.624        6.733        1.350      327.929       52.696        0.026      348.385       28.038      862.639
08/01/2014  21:12:00     -326.081       -8.904      -21.857      104.365       86.373       47.605    10892.106     7460.304     2266.192        6.375        1.031      326.203       48.970        0.023      348.461       28.171      862.657
08/01/2014  21:13:00     -410.470      -56.320      -29.463      139.809      160.673       58.584    19546.450    25815.936     3432.058       11.065        2.440      414.315       58.298        0.020      348.383       28.035      862.666
08/01/2014  21:14:00     -312.246     -151.086       -2.672      149.175      105.457       61.593    22253.080    11121.150     3793.659        7.874        1.858      346.878       48.215        0.019      348.327       27.937      862.657
08/01/2014  21:15:00     -279.229      -59.340      -14.745      125.705      111.963       60.651    15801.809    12535.634     3678.511        5.686        1.601      285.465       55.332        0.038      348.318       27.921      862.658
08/01/2014  21:16:00     -341.690      -35.024      -10.525      138.277      115.797       65.533    19120.591    13408.920     4294.514        7.745        1.841      343.481       60.221        0.031      348.291       27.876      862.666
08/01/2014  21:17:00     -279.844      -55.788       -4.466      118.131      110.785       61.885    13954.856    12273.410     3829.700        5.575        1.503      285.351       65.037        0.052      348.257       27.816      862.664
08/01/2014  21:18:00     -248.841      -27.146      -13.956      143.323       85.265       54.598    20541.530     7270.062     2980.923        4.682        1.540      250.317       68.788        0.076      348.198       27.718      862.677
08/01/2014  21:19:00     -231.379      -33.390       -0.420      107.574       81.501       52.928    11572.104     6642.387     2801.373        3.783        1.051      233.776       55.256        0.056      348.173       27.674      862.695
08/01/2014  21:20:00     -158.524      -29.240      -10.773      119.626       77.527       41.745    14310.420     6010.438     1742.686        2.408        1.103      161.199       38.635        0.057      348.147       27.629      862.688
08/01/2014  21:21:00     -351.333      -41.579      -33.652      108.757       71.233       51.312    11828.115     5074.131     2632.871        7.291        0.977      353.785       52.222        0.022      348.145       27.625      862.697
08/01/2014  21:22:00     -221.882      -59.550       -2.653       82.076       53.615       42.252     6736.496     2874.524     1785.239        3.209        0.570      229.735       43.345        0.036      348.050       27.459      862.691
08/01/2014  21:23:00     -263.271      -60.424       -3.583       87.835       60.050       39.048     7714.981     3605.956     1524.747        4.291        0.642      270.116       40.212        0.022      348.034       27.431      862.692
08/01/2014  21:24:00     -217.456     -100.503       -4.501       88.595       61.903       44.774     7849.006     3831.934     2004.730        3.554        0.684      239.557       40.457        0.029      347.989       27.356      862.699
08/01/2014  21:25:00     -250.741      -56.503       -4.353      102.584       82.696       45.370    10523.434     6838.620     2058.469        4.275        0.971      257.029       50.249        0.038      347.972       27.325      862.706
08/01/2014  21:26:00     -208.793      -28.006      -13.146       78.502       68.435       39.408     6162.573     4683.401     1552.990        2.847        0.620      210.663       41.902        0.040      347.950       27.287      862.727
08/01/2014  21:27:00     -131.377      -59.276       -3.254       66.994       75.388       37.691     4488.251     5683.363     1420.598        1.619        0.580      144.130       31.331        0.047      347.902       27.206      862.728
08/01/2014  21:28:00     -236.124      -20.420      -13.793      100.747       66.319       36.265    10150.015     4398.209     1315.136        3.611        0.793      237.005       35.837        0.023      347.959       27.304      862.723
08/01/2014  21:29:00     -175.577       -9.761       -2.433      105.787       60.712       50.375    11190.856     3685.982     2537.670        2.417        0.871      175.848       57.397        0.107      347.901       27.205      862.718
08/01/2014  21:30:00     -145.166        4.798        1.044       75.363       64.350       36.145     5679.540     4140.875     1306.434        1.611        0.556      145.246       31.387        0.047      347.774       26.985      862.728
08/01/2014  21:31:00     -286.261      -87.263      -27.467       90.525       68.185       41.600     8194.793     4649.137     1730.598        5.244        0.729      299.266       44.388        0.022      347.955       27.294      862.710
08/01/2014  21:32:00     -167.726      -55.978       -0.903      141.069       97.053       50.463    19900.400     9419.206     2546.557        3.156        1.593      176.821       52.637        0.089      347.850       27.114      862.694
08/01/2014  21:33:00     -201.389      -74.304        4.053       97.303      104.631       54.576     9467.961    10947.549     2978.575        3.474        1.170      214.659       53.917        0.063      347.844       27.104      862.692
08/01/2014  21:34:00     -263.386      -54.332       -3.770      114.773       97.138       64.351    13172.834     9435.791     4141.092        4.954        1.337      268.932       59.096        0.048      347.906       27.211      862.700
08/01/2014  21:35:00     -330.859     -171.632      -19.579      129.529      124.259       66.579    16777.695    15440.359     4432.800        8.797        1.833      372.727       69.440        0.035      347.945       27.279      862.694
08/01/2014  21:36:00     -205.544     -120.049       15.688      142.406      152.479       76.204    20279.554    23249.890     5807.011        5.311        2.467      238.034       86.905        0.133      347.933       27.258      862.680
08/01/2014  21:37:00     -291.698     -104.299      -15.410      171.703      170.545       74.936    29482.079    29085.739     5615.442        8.018        3.209      309.784       73.022        0.056      348.029       27.423      862.668
08/01/2014  21:38:00     -366.481     -196.822       -8.848      146.184      113.209       60.015    21369.694    12816.311     3601.822       10.545        1.889      415.989       66.627        0.026      348.063       27.481      862.637
08/01/2014  21:39:00     -351.182     -153.143      -11.944      178.426      122.426       77.385    31835.839    14988.132     5988.512        9.986        2.641      383.121       86.585        0.051      347.998       27.370      862.626
08/01/2014  21:40:00     -337.464     -160.367       -6.585      190.178      147.966       73.411    36167.842    21893.864     5389.147       10.153        3.173      373.630       85.882        0.053      347.978       27.336      862.609
08/01/2014  21:41:00     -427.810     -227.373      -17.056      211.370      165.229       94.741    44677.431    27300.502     8975.787       15.797        4.048      484.479       99.001        0.042      348.026       27.418      862.595
08/01/2014  21:42:00     -407.989     -304.767       -3.834      213.285      184.043      106.468    45490.680    33871.761    11335.449       17.501        4.535      509.252      126.884        0.062      348.036       27.434      862.582
08/01/2014  21:43:00     -335.505     -212.056       -2.477      174.721      180.954       89.507    30527.325    32744.393     8011.448       11.440        3.564      396.902       95.481        0.058      348.013       27.395      862.572
08/01/2014  21:44:00     -384.454     -227.144       -4.320      217.035      208.985       95.869    47104.006    43674.747     9190.916       14.967        4.998      446.542      112.474        0.063      347.999       27.372      862.559
08/01/2014  21:45:00     -411.877     -223.032        5.220      240.534      218.823      119.105    57856.598    47883.381    14185.951       16.965        5.996      468.386      127.417        0.074      347.993       27.361      862.543
08/01/2014  21:46:00     -363.591     -248.475      -16.746      232.794      146.655       86.930    54192.816    21507.750     7556.803       13.872        4.163      440.384      109.620        0.062      347.966       27.317      862.551
08/01/2014  21:47:00     -320.887     -224.397       -6.035      222.119      142.553       96.790    49336.861    20321.268     9368.255       11.618        3.951      391.565      102.862        0.069      347.985       27.346      862.556
08/01/2014  21:48:00     -243.593     -109.134       21.635      201.212      141.585       88.244    40486.145    20046.437     7786.968        7.000        3.416      266.922       96.048        0.129      347.977       27.334      862.559
08/01/2014  21:49:00     -432.978     -331.049      -17.621      220.597      160.153       94.562    48662.855    25649.116     8942.006       19.030        4.163      545.035      118.221        0.047      347.992       27.359      862.537
08/01/2014  21:50:00     -445.845     -354.195      -12.790      246.349      198.107      135.677    60687.838    39246.420    18408.243       22.135        5.917      569.414      142.901        0.063      348.020       27.408      862.518
08/01/2014  21:51:00     -426.169     -175.420      -10.817      176.839      119.249       80.386    31271.924    14220.420     6461.960       13.222        2.598      460.860       82.018        0.032      348.019       27.407      862.541
08/01/2014  21:52:00     -282.149     -217.681      -20.242      193.399      136.174       80.175    37403.334    18543.340     6427.986        9.488        3.119      356.361       96.501        0.073      347.992       27.360      862.503
08/01/2014  21:53:00     -438.916     -232.549      -10.118      281.324      171.492      102.096    79143.121    29409.627    10423.547       18.288        5.949      496.716      138.755        0.078      347.984       27.345      862.500
08/01/2014  21:54:00     -297.709     -183.106       21.292      258.291      172.363      111.219    66714.379    29709.030    12369.563       11.568        5.440      349.512      113.802        0.106      347.981       27.340      862.516
08/01/2014  21:55:00     -381.030     -246.873      -20.094      208.296      184.702       95.688    43387.355    34114.835     9156.174       14.658        4.333      454.016       89.802        0.039      348.034       27.431      862.544
08/01/2014  21:56:00     -371.220     -245.237       -2.940      243.482      160.882      114.267    59283.245    25883.059    13056.902       14.807        4.911      444.911      139.481        0.098      348.054       27.467      862.592
08/01/2014  21:57:00     -343.370     -174.269        2.224      214.334      172.691      113.410    45938.916    29822.209    12861.936       11.843        4.431      385.062      118.244        0.094      348.041       27.444      862.599
08/01/2014  21:58:00     -281.172     -235.661        9.954      227.834      165.696      118.691    51908.289    27455.203    14087.546       11.405        4.673      366.870      142.961        0.152      348.013       27.397      862.627
08/01/2014  21:59:00     -237.571     -156.085       -2.099      166.230      114.045       87.825    27632.463    13006.205     7713.169        6.457        2.418      284.258       91.930        0.105      347.981       27.340      862.651
08/01/2014  22:00:00     -209.419     -170.308       10.912      177.422      129.709       89.326    31478.448    16824.378     7979.195        6.462        2.814      269.929       98.557        0.133      347.955       27.294      862.667
08/01/2014  22:01:00     -155.751     -155.113       11.693      158.692      138.452       88.626    25183.005    19168.911     7854.513        5.032        2.610      219.815       91.494        0.173      347.924       27.243      862.652
08/01/2014  22:02:00     -372.289     -232.679      -12.134      189.200      153.662       87.433    35796.578    23612.030     7644.470       12.996        3.353      439.020       88.075        0.040      347.931       27.256      862.633
08/01/2014  22:03:00     -387.169     -329.053      -16.309      233.664      149.654      103.540    54599.060    22396.440    10720.464       17.306        4.386      508.110      108.927        0.046      347.937       27.265      862.619
08/01/2014  22:04:00     -278.484     -240.936       -5.900      188.020      153.483       95.420    35351.511    23557.154     9104.928       10.181        3.401      368.244       93.180        0.064      347.945       27.280      862.656
08/01/2014  22:05:00     -253.243     -157.045       -2.993      178.757      147.873       72.916    31954.154    21866.419     5316.755        7.396        2.957      297.985       81.107        0.074      347.913       27.224      862.682
08/01/2014  22:06:00     -214.101      -69.603       -4.791      131.163       88.874       58.656    17203.791     7898.615     3440.543        3.962        1.427      225.131       59.510        0.070      347.873       27.154      862.689
08/01/2014  22:07:00     -276.815     -126.391      -19.409      145.684      129.174       72.245    21223.969    16685.977     5219.273        6.805        2.156      304.305       78.343        0.066      347.878       27.161      862.682
08/01/2014  22:08:00     -334.818      -90.809       -5.622      154.529      129.100       78.112    23879.111    16666.753     6101.518        8.350        2.332      346.914       76.495        0.049      347.858       27.129      862.702
08/01/2014  22:09:00     -160.480      -99.400       24.430      172.529      132.397       80.616    29766.370    17529.001     6498.962        4.500        2.690      188.770       90.598        0.230      347.859       27.131      862.699
08/01/2014  22:10:00     -423.424     -224.156      -17.895      239.123      185.347       87.445    57179.990    34353.438     7646.542       16.450        4.959      479.097       96.783        0.041      347.909       27.216      862.677
08/01/2014  22:11:00     -366.985     -186.967      -26.837      175.674      147.356       78.707    30861.318    21713.713     6194.859       11.455        2.938      411.867       85.756        0.043      347.873       27.154      862.701
08/01/2014  22:12:00     -301.623     -168.615       -0.414      151.763      112.299       77.297    23032.028    12611.102     5974.799        8.050        2.081      345.554       66.094        0.037      347.822       27.064      862.710
08/01/2014  22:13:00     -285.550     -178.996      -16.649      192.209      130.683       72.446    36944.432    17077.936     5248.440        8.655        2.964      337.014       91.813        0.074      347.857       27.127      862.700
08/01/2014  22:14:00     -213.856     -175.875       -1.093      178.798      121.698       66.933    31968.643    14810.397     4480.007        6.395        2.563      276.887       74.593        0.073      347.828       27.076      862.708
08/01/2014  22:15:00     -334.677      -62.381      -17.499      174.414      103.979       73.274    30420.073    10811.662     5369.008        8.139        2.330      340.441       89.535        0.069      347.859       27.129      862.709
08/01/2014  22:16:00     -216.180     -106.681       -3.683      133.323      135.142       63.174    17774.895    18263.452     3990.964        4.907        2.001      241.069       61.147        0.064      347.831       27.080      862.692
08/01/2014  22:17:00     -303.627      -57.813       13.367      224.551      160.320       97.322    50423.308    25702.577     9471.496        9.064        4.280      309.082      121.702        0.155      347.841       27.099      862.716
08/01/2014  22:18:00     -346.655      -71.589      -15.079      180.901      129.931       79.852    32725.097    16882.119     6376.388        9.074        2.799      353.969       83.628        0.056      347.866       27.140      862.740
08/01/2014  22:19:00     -155.862      -81.004       15.582      141.332      151.329       74.419    19974.816    22900.318     5538.132        3.975        2.421      175.655       76.981        0.192      347.794       27.017      862.746
08/01/2014  22:20:00     -270.935      -91.100       -6.194      185.190      139.745       87.032    34295.273    19528.754     7574.483        7.156        3.070      285.841      100.687        0.124      347.817       27.059      862.769
08/01/2014  22:21:00     -142.892      -67.252       -1.234      105.920       91.461       55.993    11219.008     8365.173     3135.218        2.383        1.136      157.927       62.351        0.156      347.759       26.960      862.766
08/01/2014  22:22:00     -199.142      -71.447        2.482      154.290       74.257       58.987    23805.550     5514.040     3479.480        3.878        1.640      211.571       71.306        0.114      347.752       26.947      862.771
08/01/2014  22:23:00     -232.423      -77.579       10.946      168.254       98.660       76.272    28309.394     9733.868     5817.480        5.200        2.193      245.028       86.298        0.124      347.747       26.939      862.747
08/01/2014  22:24:00     -204.053      -78.884        7.798      141.612      104.602       61.522    20054.088    10941.661     3784.998        4.134        1.739      218.770       73.628        0.113      347.706       26.867      862.762
08/01/2014  22:25:00     -313.703     -150.806       -5.785      179.684      135.840       65.230    32286.243    18452.436     4254.978        8.808        2.750      348.069       75.703        0.047      347.781       26.995      862.766
08/01/2014  22:26:00     -270.471     -152.658      -10.539      135.152      117.040       74.178    18266.046    13698.247     5502.317        6.701        1.873      310.578       72.347        0.054      347.745       26.934      862.777
08/01/2014  22:27:00     -181.669      -10.638        1.195      153.291       90.671       62.929    23498.006     8221.279     3960.073        3.439        1.784      181.980       77.517        0.181      347.659       26.785      862.794
08/01/2014  22:28:00     -326.307     -130.184      -12.227      152.408      125.923       69.433    23228.102    15856.597     4820.886        8.373        2.195      351.317       75.985        0.047      347.692       26.843      862.822
08/01/2014  22:29:00     -142.876     -145.189       11.439      174.233      134.747       80.107    30357.216    18156.830     6417.061        4.827        2.747      203.699       93.921        0.213      347.621       26.721      862.831
08/01/2014  22:30:00     -150.572      -66.888       -1.786      124.753       94.172       67.782    15563.194     8868.411     4594.414        2.808        1.451      164.760       72.541        0.194      347.653       26.776      862.827
08/01/2014  22:31:00     -217.524      -75.011      -24.278       88.965       82.591       42.186     7914.812     6821.313     1779.652        3.502        0.826      230.094       37.428        0.026      347.638       26.748      862.832
08/01/2014  22:32:00     -140.016      -30.988       -3.252       72.812       77.915       39.016     5301.538     6070.727     1522.234        1.673        0.645      143.405       37.200        0.067      347.596       26.679      862.829
08/01/2014  22:33:00     -212.263      -90.970        3.664      173.942      105.746       62.253    30255.869    11182.113     3875.473        4.932        2.266      230.935       82.984        0.129      347.544       26.588      862.812
08/01/2014  22:34:00     -250.484     -118.725       -0.441      155.215      113.555       76.726    24091.543    12894.825     5886.908        5.985        2.144      277.196       86.724        0.098      347.569       26.631      862.830
08/01/2014  22:35:00     -208.411      -20.539        0.872      141.459       78.805       55.882    20010.519     6210.243     3122.788        3.659        1.467      209.420       55.705        0.071      347.534       26.570      862.858
08/01/2014  22:36:00     -172.430      -30.708       -0.333      109.634       75.361       50.462    12019.688     5679.216     2546.372        2.546        1.012      175.143       57.695        0.109      347.570       26.633      862.858
08/01/2014  22:37:00     -340.946      -12.290      -24.021      146.173       96.223       55.106    21366.595     9258.843     3036.717        7.531        1.683      341.167       64.612        0.036      347.595       26.675      862.849
08/01/2014  22:38:00     -190.969      -17.661        0.242      104.536       82.634       54.890    10927.866     6828.315     3012.882        2.877        1.038      191.784       53.372        0.077      347.516       26.539      862.858
08/01/2014  22:39:00     -297.091     -107.996        1.224      115.216      120.297       62.329    13274.839    14471.405     3884.915        6.577        1.582      316.111       64.498        0.042      347.552       26.601      862.862
08/01/2014  22:40:00     -318.797      -54.668       -6.406      127.668      104.955       63.628    16299.121    11015.518     4048.505        6.801        1.568      323.451       73.531        0.052      347.532       26.566      862.865
08/01/2014  22:41:00     -325.743     -169.888      -24.027      197.821      123.387       83.934    39133.122    15224.380     7044.892        9.846        3.070      367.383       96.576        0.069      347.606       26.693      862.853
08/01/2014  22:42:00     -174.583      -51.806        5.032      108.367       89.768       47.393    11743.322     8058.239     2246.115        2.761        1.102      182.107       45.643        0.063      347.521       26.550      862.876
08/01/2014  22:43:00     -171.839      -62.202       -2.346      102.360       85.708       49.564    10477.585     7345.939     2456.639        2.684        1.014      182.750       49.617        0.074      347.489       26.494      862.881
08/01/2014  22:44:00     -303.235      -87.468      -25.689      156.480      105.937       68.443    24486.038    11222.584     4684.399        7.032        2.020      315.598       78.652        0.062      347.538       26.578      862.873
08/01/2014  22:45:00     -235.079      -59.351        5.171      119.020       86.181       56.029    14165.827     7427.127     3139.286        4.177        1.237      242.455       55.486        0.052      347.512       26.532      862.876
08/01/2014  22:46:00     -143.046      -43.937        1.235       93.702       93.324       54.066     8780.082     8709.461     2923.164        2.140        1.021      149.641       50.473        0.114      347.439       26.406      862.878
08/01/2014  22:47:00     -254.922      -12.358      -19.227       92.123       69.890       47.295     8486.677     4884.672     2236.811        4.055        0.780      255.222       45.925        0.032      347.473       26.463      862.901
08/01/2014  22:48:00     -294.998      -51.523      -20.637      107.226       79.556       46.996    11497.512     6329.211     2208.581        5.507        1.002      299.464       48.422        0.026      347.404       26.343      862.919
08/01/2014  22:49:00     -213.798      -82.792       -6.867      124.738       97.243       57.614    15559.661     9456.284     3319.365        4.047        1.417      229.269       65.486        0.082      347.448       26.420      862.914
08/01/2014  22:50:00     -335.213      -44.042      -14.191      146.703      123.117       55.238    21521.845    15157.857     3051.195        7.711        1.987      338.093       62.103        0.034      347.557       26.610      862.916
08/01/2014  22:51:00     -260.461      -73.570       -1.162      140.218       92.039       57.002    19661.163     8471.101     3249.173        5.231        1.569      270.652       67.312        0.062      347.517       26.540      862.929
08/01/2014  22:52:00     -250.291      -64.517        3.774      111.374       68.924       47.621    12404.222     4750.506     2267.747        4.312        0.971      258.473       51.237        0.039      347.470       26.459      862.943
08/01/2014  22:53:00     -232.078        0.322      -10.830       98.231       80.824       53.423     9649.316     6532.520     2854.065        3.650        0.952      232.078       51.872        0.050      347.414       26.362      862.961
08/01/2014  22:54:00     -297.368       79.222      -19.982       69.501       57.549       36.863     4830.422     3311.851     1358.876        5.230        0.475      307.740       28.109        0.008      347.523       26.550      862.973
08/01/2014  22:55:00     -217.521      -29.053      -26.955       58.457       89.270       32.828     3417.248     7969.203     1077.650        3.067        0.623      219.452       27.116        0.015      347.446       26.417      862.977
08/01/2014  22:56:00     -115.807      -28.536       -6.012       69.420       62.389       34.120     4819.114     3892.443     1164.201        1.207        0.494      119.270       37.773        0.100      347.331       26.221      862.979
08/01/2014  22:57:00     -120.853      -75.776        2.986      110.914       77.643       49.597    12302.004     6028.384     2459.895        2.057        1.040      142.644       63.756        0.200      347.336       26.230      862.988
08/01/2014  22:58:00     -129.302      -13.216        1.597       58.432       76.627       33.150     3414.308     5871.662     1098.955        1.364        0.519      129.976       26.577        0.042      347.239       26.063      863.016
08/01/2014  22:59:00     -205.644      -46.644       -7.810       84.859       74.586       35.494     7201.105     5563.075     1259.794        2.927        0.701      210.867       34.997        0.028      347.211       26.013      863.028
08/01/2014  23:00:00     -190.512      -15.592       -6.095       77.087       50.872       38.836     5942.373     2587.927     1508.220        2.330        0.502      191.149       36.695        0.037      347.279       26.131      863.017
08/01/2014  23:01:00     -140.767       16.186      -21.985       83.443       57.917       32.372     6962.804     3354.325     1047.952        1.596        0.568      141.695       37.089        0.069      347.144       25.899      862.994
08/01/2014  23:02:00      -95.328       25.706      -16.568       38.912       53.039       25.855     1514.169     2813.126      668.489        0.751        0.250       98.733       23.766        0.058      347.135       25.886      862.985
08/01/2014  23:03:00     -115.624       -1.842      -10.150       47.079       60.334       27.069     2216.452     3640.240      732.715        1.003        0.329      115.639       24.903        0.046      347.072       25.777      863.000
08/01/2014  23:04:00     -195.355      -50.100      -19.136       73.521       60.457       30.157     5405.382     3655.063      909.420        2.550        0.498      201.677       32.104        0.025      346.983       25.621      863.006
08/01/2014  23:05:00     -205.691       -6.143       -8.850       85.970       99.359       47.509     7390.761     9872.202     2257.080        3.097        0.976      205.783       38.811        0.036      347.013       25.671      862.993
08/01/2014  23:06:00     -303.530      -58.206      -17.786      128.670       83.981       49.150    16556.086     7052.827     2415.710        6.092        1.301      309.061       61.771        0.040      347.016       25.677      863.027
08/01/2014  23:07:00     -342.065       52.081      -34.260      129.161       60.930       43.430    16682.657     3712.477     1886.173        7.158        1.114      346.008       49.847        0.021      347.286       26.141      863.022
08/01/2014  23:08:00     -116.933      -17.561       -3.503       63.257       70.436       27.954     4001.417     4961.278      781.398        1.187        0.487      118.244       27.200        0.053      347.131       25.877      863.021
08/01/2014  23:09:00     -129.244      -65.020        3.941      118.965       82.621       48.011    14152.704     6826.148     2305.069        2.211        1.164      144.678       60.740        0.176      347.085       25.797      863.034
08/01/2014  23:10:00     -177.871      -16.875       -1.875      141.037       80.483       42.071    19891.485     6477.482     1769.982        3.003        1.407      178.669       43.810        0.060      347.181       25.965      863.023
08/01/2014  23:11:00     -101.602      -23.098        3.446       46.128       53.729       26.800     2127.812     2886.783      718.226        0.830        0.287      104.195       27.455        0.069      347.084       25.800      863.016
08/01/2014  23:12:00      -25.869       79.850      -13.945       54.349       56.012       36.160     2953.867     3137.337     1307.565        0.732        0.370       83.936       20.615        0.060      347.005       25.661      863.004
08/01/2014  23:13:00     -186.911        8.400      -14.663       72.427       49.547       38.505     5245.667     2454.863     1482.629        2.220        0.459      187.100       36.951        0.039      347.095       25.812      863.014
08/01/2014  23:14:00     -201.374      -13.430      -24.855       68.720       62.075       41.555     4722.395     3853.344     1726.815        2.582        0.515      201.821       37.381        0.034      347.080       25.788      863.028
08/01/2014  23:15:00     -149.441      -57.005       -0.778       85.409       66.288       42.509     7294.677     4394.128     1807.052        1.954        0.675      159.944       45.891        0.082      347.054       25.744      863.038
08/01/2014  23:16:00      -98.754      -55.310        3.635       79.966       74.623       34.154     6394.516     5568.553     1166.490        1.297        0.656      113.188       33.365        0.087      347.159       25.926      863.031
08/01/2014  23:17:00     -118.138       23.186       -0.966       92.211       52.102       31.033     8502.847     2714.649      963.044        1.334        0.609      120.392       41.358        0.118      346.987       25.629      863.016
08/01/2014  23:18:00     -229.841       10.999      -14.824       83.343       69.636       40.730     6946.062     4849.193     1658.895        3.331        0.673      230.104       32.549        0.020      347.131       25.873      863.016
08/01/2014  23:19:00     -134.186      -18.934       -4.194       75.300       59.005       47.603     5670.154     3481.641     2266.023        1.490        0.571      135.515       47.144        0.121      347.061       25.758      863.005
08/01/2014  23:20:00     -220.827       -6.987      -19.679       78.930       71.620       51.345     6229.949     5129.394     2636.258        3.160        0.700      220.938       44.155        0.040      347.088       25.801      863.026
08/01/2014  23:21:00     -256.285      -41.550       -4.657      105.753      117.967       57.569    11183.672    13916.143     3314.193        4.792        1.421      259.631       59.188        0.052      347.105       25.830      863.024
08/01/2014  23:22:00     -281.717      -54.331      -24.142      105.805       81.563       47.104    11194.652     6652.452     2218.768        5.148        1.003      286.908       40.264        0.020      347.156       25.918      863.035
08/01/2014  23:23:00     -154.495      -11.994       -5.809      131.684       86.500       48.769    17340.766     7482.279     2378.395        2.562        1.360      154.960       48.287        0.097      347.119       25.856      863.038
08/01/2014  23:24:00     -213.522      -28.114       -7.619      113.171       88.162       45.415    12807.592     7772.519     2062.552        3.454        1.132      215.365       58.766        0.074      347.220       26.029      863.031
08/01/2014  23:25:00      -97.263        2.677        2.337       70.263       33.137       31.713     4936.865     1098.040     1005.746        0.826        0.352       97.300       38.367        0.155      347.071       25.776      863.017
08/01/2014  23:26:00     -121.735      132.908      -19.926       40.769       57.324       34.670     1662.117     3286.027     1202.028        1.951        0.308      180.233       19.121        0.011      347.095       25.816      863.015
08/01/2014  23:27:00     -126.047       91.236      -17.047       76.060       49.120       34.998     5785.192     2412.778     1224.845        1.696        0.471      155.602       36.883        0.056      347.038       25.716      863.027
08/01/2014  23:28:00     -139.923      -29.879       -0.714       85.756       85.757       47.002     7354.141     7354.258     2209.172        1.869        0.846      143.078       46.373        0.105      346.971       25.600      863.043
08/01/2014  23:29:00     -125.611      -59.719      -10.415       57.617       34.979       27.089     3319.713     1223.520      733.800        1.236        0.264      139.084       25.423        0.033      346.932       25.534      863.056
08/01/2014  23:30:00     -178.660      -44.856      -10.349       58.239       70.421       37.400     3391.736     4959.149     1398.789        2.189        0.487      184.205       30.336        0.027      346.926       25.523      863.056
08/01/2014  23:31:00     -173.520      -33.274      -12.494       84.097       49.983       31.691     7072.342     2498.261     1004.298        2.097        0.529      176.681       39.873        0.051      346.953       25.570      863.045
08/01/2014  23:32:00     -200.446      -39.706      -18.783       57.717       54.446       42.515     3331.297     2964.332     1807.558        2.510        0.405      204.341       27.127        0.018      347.012       25.670      863.034
08/01/2014  23:33:00     -143.173       13.654      -13.245       82.981       48.712       33.394     6885.793     2372.901     1115.170        1.562        0.519      143.823       40.440        0.079      346.911       25.498      863.035
08/01/2014  23:34:00     -108.778      -67.931       -8.273       51.736       43.684       36.149     2676.653     1908.249     1306.729        1.120        0.295      128.247       25.468        0.039      346.896       25.473      863.032
08/01/2014  23:35:00      -74.913       11.177       -5.609       40.465       39.871       26.855     1637.426     1589.670      721.176        0.486        0.197       75.742       24.641        0.106      346.813       25.330      863.046
08/01/2014  23:36:00     -143.548      -25.432      -17.222       70.705       66.994       28.780     4999.171     4488.261      828.265        1.593        0.516      145.783       23.144        0.025      346.855       25.400      863.064
08/01/2014  23:37:00     -209.461      -46.500      -14.211       68.207       72.883       43.889     4652.181     5311.957     1926.279        2.906        0.595      214.561       40.762        0.036      346.789       25.286      863.085
08/01/2014  23:38:00     -132.924      -29.238        0.934       83.820       52.613       38.271     7025.776     2768.153     1464.667        1.489        0.563      136.102       30.118        0.049      346.748       25.217      863.085
08/01/2014  23:39:00     -245.568      -36.195       -8.180      122.654       71.190       45.378    15044.072     5067.989     2059.166        4.192        1.109      248.221       56.103        0.051      346.802       25.309      863.088
08/01/2014  23:40:00     -107.379       23.629        0.879       34.266       38.149       25.568     1174.170     1455.369      653.706        0.769        0.164      109.948       14.530        0.017      346.811       25.328      863.077
08/01/2014  23:41:00      -81.815       34.201      -10.922       38.991       59.549       30.990     1520.310     3546.115      960.357        0.700        0.301       88.676       22.330        0.063      346.784       25.280      863.050
08/01/2014  23:42:00     -111.536      -11.694      -18.109       67.293       52.651       31.819     4528.357     2772.157     1012.438        1.061        0.416      112.147       34.219        0.093      346.750       25.220      863.067
08/01/2014  23:43:00     -160.667      -50.478      -17.007       95.947       73.391       49.666     9205.823     5386.291     2466.710        2.285        0.853      168.410       34.296        0.041      346.740       25.202      863.075
08/01/2014  23:44:00     -168.199      -40.074      -16.927       74.279       45.925       33.443     5517.434     2109.099     1118.444        1.946        0.437      172.907       34.062        0.039      346.741       25.207      863.088
08/01/2014  23:45:00     -138.846      -73.836      -20.406       51.771       54.178       34.511     2680.265     2935.288     1190.997        1.598        0.340      157.258       25.662        0.027      346.771       25.257      863.087
08/01/2014  23:46:00      -85.660      -35.203      -13.021       90.783       61.536       29.837     8241.519     3786.634      890.231        1.083        0.646       92.611       33.277        0.129      346.663       25.070      863.082
08/01/2014  23:47:00     -164.604      -67.156      -12.164       74.445       60.107       43.039     5542.016     3612.811     1852.335        2.138        0.550      177.777       29.116        0.027      346.741       25.204      863.100
08/01/2014  23:48:00     -209.407      -23.309      -20.145       44.577       40.401       29.343     1987.134     1632.204      861.035        2.464        0.224      210.700       17.442        0.007      346.735       25.191      863.111
08/01/2014  23:49:00     -203.010      -33.205      -13.205       32.641       29.725       20.886     1065.452      883.590      436.217        2.244        0.119      205.707       12.547        0.004      346.727       25.180      863.106
08/01/2014  23:50:00     -109.100       -6.775        0.361       52.287       41.147       21.721     2733.965     1693.044      471.801        0.842        0.245      109.310       26.775        0.060      346.628       25.013      863.107
08/01/2014  23:51:00     -113.975       40.130      -13.217       59.478       46.527       29.383     3537.633     2164.797      863.364        1.067        0.328      120.833       30.606        0.064      346.831       25.360      863.087
08/01/2014  23:52:00      -77.827       63.108       -8.611       49.002       41.041       32.024     2401.244     1684.377     1025.552        0.761        0.256      100.198       31.795        0.101      346.603       24.969      863.085
08/01/2014  23:53:00      -64.103       -0.079       -8.272       36.222       34.820       22.436     1312.016     1212.443      503.389        0.360        0.151       64.103       15.010        0.055      346.572       24.916      863.098
08/01/2014  23:54:00      -89.889      -32.993       -0.700       68.956       46.501       28.914     4754.956     2162.357      836.000        0.846        0.388       95.753       31.100        0.105      346.620       24.997      863.114
08/01/2014  23:55:00     -164.553      -19.312      -10.384       57.510       59.413       30.221     3307.402     3529.944      913.290        1.765        0.388      165.682       27.062        0.027      346.628       25.013      863.125
08/01/2014  23:56:00     -152.602      -18.201      -11.476       54.221       71.448       34.297     2939.919     5104.871     1176.286        1.648        0.461      153.683       26.518        0.030      346.639       25.029      863.112
08/01/2014  23:57:00     -244.314        0.505      -22.386       86.551       58.636       39.623     7491.126     3438.125     1569.955        3.634        0.625      244.314       38.683        0.025      346.786       25.281      863.097
08/01/2014  23:58:00     -227.552       -1.482      -16.152       98.447       77.560       41.916     9691.841     6015.613     1756.936        3.475        0.873      227.557       40.687        0.032      346.831       25.359      863.068
08/01/2014  23:59:00     -133.923      -52.598       -5.876       59.672       66.774       38.874     3560.778     4458.726     1511.201        1.513        0.477      143.881       37.228        0.067      346.724       25.176      863.065
